<?xml version="1.0" encoding="UTF-8" standalone="no" ?>
<gpx xmlns="http://www.topografix.com/GPX/1/1" xmlns:xsi="http://www.w3.org/2001/XMLSchema-instance" xsi:schemaLocation="http://www.topografix.com/GPX/1/1 http://www.topografix.com/GPX/1/1/gpx.xsd" version="1.1" creator="VisuGPX - https://www.visugpx.com">
  <metadata>
    <name>Domaine des Courmettes - Antibes</name>
    <desc><![CDATA[Balade dominicale...]]></desc>
  </metadata>
  <trk>
    <name><![CDATA[Domaine de Courmettes / Antibes]]></name>
    <trkseg>
      <trkpt lat="43.71731" lon="7.02029">
        <ele>822.59997558594</ele>
        <time>2011-04-03T13:03:05.000Z</time>
      </trkpt>
      <trkpt lat="43.7173" lon="7.02028">
        <ele>822.59997558594</ele>
        <time>2011-04-03T13:03:07.000Z</time>
      </trkpt>
      <trkpt lat="43.71723" lon="7.02031">
        <ele>821</ele>
        <time>2011-04-03T13:03:11.000Z</time>
      </trkpt>
      <trkpt lat="43.71721" lon="7.02035">
        <ele>820.79998779297</ele>
        <time>2011-04-03T13:03:13.000Z</time>
      </trkpt>
      <trkpt lat="43.71719" lon="7.02038">
        <ele>820.40002441406</ele>
        <time>2011-04-03T13:03:18.000Z</time>
      </trkpt>
      <trkpt lat="43.71715" lon="7.0205">
        <ele>820</ele>
        <time>2011-04-03T13:03:22.000Z</time>
      </trkpt>
      <trkpt lat="43.71706" lon="7.02082">
        <ele>818.79998779297</ele>
        <time>2011-04-03T13:03:29.000Z</time>
      </trkpt>
      <trkpt lat="43.71704" lon="7.02117">
        <ele>820</ele>
        <time>2011-04-03T13:03:36.000Z</time>
      </trkpt>
      <trkpt lat="43.71704" lon="7.02144">
        <ele>821.40002441406</ele>
        <time>2011-04-03T13:03:42.000Z</time>
      </trkpt>
      <trkpt lat="43.71705" lon="7.02166">
        <ele>822.59997558594</ele>
        <time>2011-04-03T13:03:47.000Z</time>
      </trkpt>
      <trkpt lat="43.71709" lon="7.02203">
        <ele>824.59997558594</ele>
        <time>2011-04-03T13:03:55.000Z</time>
      </trkpt>
      <trkpt lat="43.71718" lon="7.02244">
        <ele>827.79998779297</ele>
        <time>2011-04-03T13:04:04.000Z</time>
      </trkpt>
      <trkpt lat="43.71725" lon="7.02276">
        <ele>828.40002441406</ele>
        <time>2011-04-03T13:04:11.000Z</time>
      </trkpt>
      <trkpt lat="43.71734" lon="7.02309">
        <ele>829.20001220703</ele>
        <time>2011-04-03T13:04:18.000Z</time>
      </trkpt>
      <trkpt lat="43.71738" lon="7.02337">
        <ele>829</ele>
        <time>2011-04-03T13:04:23.000Z</time>
      </trkpt>
      <trkpt lat="43.7175" lon="7.02368">
        <ele>831.40002441406</ele>
        <time>2011-04-03T13:04:30.000Z</time>
      </trkpt>
      <trkpt lat="43.71757" lon="7.02376">
        <ele>832.40002441406</ele>
        <time>2011-04-03T13:04:33.000Z</time>
      </trkpt>
      <trkpt lat="43.71767" lon="7.02368">
        <ele>834</ele>
        <time>2011-04-03T13:04:37.000Z</time>
      </trkpt>
      <trkpt lat="43.71768" lon="7.02359">
        <ele>834.20001220703</ele>
        <time>2011-04-03T13:04:39.000Z</time>
      </trkpt>
      <trkpt lat="43.71773" lon="7.0232">
        <ele>835.59997558594</ele>
        <time>2011-04-03T13:04:48.000Z</time>
      </trkpt>
      <trkpt lat="43.71789" lon="7.02295">
        <ele>838.79998779297</ele>
        <time>2011-04-03T13:04:57.000Z</time>
      </trkpt>
      <trkpt lat="43.71799" lon="7.02294">
        <ele>840.40002441406</ele>
        <time>2011-04-03T13:05:01.000Z</time>
      </trkpt>
      <trkpt lat="43.71805" lon="7.02316">
        <ele>840.40002441406</ele>
        <time>2011-04-03T13:05:07.000Z</time>
      </trkpt>
      <trkpt lat="43.71805" lon="7.0232">
        <ele>840.20001220703</ele>
        <time>2011-04-03T13:05:08.000Z</time>
      </trkpt>
      <trkpt lat="43.71806" lon="7.02361">
        <ele>839.59997558594</ele>
        <time>2011-04-03T13:05:16.000Z</time>
      </trkpt>
      <trkpt lat="43.71811" lon="7.02391">
        <ele>840</ele>
        <time>2011-04-03T13:05:21.000Z</time>
      </trkpt>
      <trkpt lat="43.71812" lon="7.02411">
        <ele>839.79998779297</ele>
        <time>2011-04-03T13:05:24.000Z</time>
      </trkpt>
      <trkpt lat="43.71813" lon="7.02462">
        <ele>841.40002441406</ele>
        <time>2011-04-03T13:05:32.000Z</time>
      </trkpt>
      <trkpt lat="43.71809" lon="7.02494">
        <ele>841.79998779297</ele>
        <time>2011-04-03T13:05:37.000Z</time>
      </trkpt>
      <trkpt lat="43.71802" lon="7.02522">
        <ele>842.40002441406</ele>
        <time>2011-04-03T13:05:41.000Z</time>
      </trkpt>
      <trkpt lat="43.71796" lon="7.02542">
        <ele>842.59997558594</ele>
        <time>2011-04-03T13:05:44.000Z</time>
      </trkpt>
      <trkpt lat="43.71792" lon="7.02554">
        <ele>843</ele>
        <time>2011-04-03T13:05:46.000Z</time>
      </trkpt>
      <trkpt lat="43.71786" lon="7.02584">
        <ele>843.79998779297</ele>
        <time>2011-04-03T13:05:51.000Z</time>
      </trkpt>
      <trkpt lat="43.71772" lon="7.02601">
        <ele>843.79998779297</ele>
        <time>2011-04-03T13:05:55.000Z</time>
      </trkpt>
      <trkpt lat="43.71765" lon="7.02608">
        <ele>843.59997558594</ele>
        <time>2011-04-03T13:05:57.000Z</time>
      </trkpt>
      <trkpt lat="43.71746" lon="7.0262">
        <ele>843.40002441406</ele>
        <time>2011-04-03T13:06:02.000Z</time>
      </trkpt>
      <trkpt lat="43.71726" lon="7.02626">
        <ele>843.59997558594</ele>
        <time>2011-04-03T13:06:09.000Z</time>
      </trkpt>
      <trkpt lat="43.71705" lon="7.02634">
        <ele>844.20001220703</ele>
        <time>2011-04-03T13:06:14.000Z</time>
      </trkpt>
      <trkpt lat="43.71696" lon="7.02638">
        <ele>844.20001220703</ele>
        <time>2011-04-03T13:06:16.000Z</time>
      </trkpt>
      <trkpt lat="43.71678" lon="7.02652">
        <ele>845</ele>
        <time>2011-04-03T13:06:21.000Z</time>
      </trkpt>
      <trkpt lat="43.7167" lon="7.0267">
        <ele>846</ele>
        <time>2011-04-03T13:06:26.000Z</time>
      </trkpt>
      <trkpt lat="43.71668" lon="7.02698">
        <ele>845.59997558594</ele>
        <time>2011-04-03T13:06:31.000Z</time>
      </trkpt>
      <trkpt lat="43.71672" lon="7.02727">
        <ele>845.59997558594</ele>
        <time>2011-04-03T13:06:36.000Z</time>
      </trkpt>
      <trkpt lat="43.71689" lon="7.02755">
        <ele>847.20001220703</ele>
        <time>2011-04-03T13:06:42.000Z</time>
      </trkpt>
      <trkpt lat="43.71701" lon="7.0277">
        <ele>847.20001220703</ele>
        <time>2011-04-03T13:06:46.000Z</time>
      </trkpt>
      <trkpt lat="43.71721" lon="7.02792">
        <ele>847.59997558594</ele>
        <time>2011-04-03T13:06:52.000Z</time>
      </trkpt>
      <trkpt lat="43.71732" lon="7.02811">
        <ele>847.40002441406</ele>
        <time>2011-04-03T13:06:56.000Z</time>
      </trkpt>
      <trkpt lat="43.71745" lon="7.02827">
        <ele>847.79998779297</ele>
        <time>2011-04-03T13:07:00.000Z</time>
      </trkpt>
      <trkpt lat="43.71754" lon="7.02841">
        <ele>847.40002441406</ele>
        <time>2011-04-03T13:07:03.000Z</time>
      </trkpt>
      <trkpt lat="43.71776" lon="7.02874">
        <ele>846.59997558594</ele>
        <time>2011-04-03T13:07:10.000Z</time>
      </trkpt>
      <trkpt lat="43.71783" lon="7.02883">
        <ele>846.59997558594</ele>
        <time>2011-04-03T13:07:12.000Z</time>
      </trkpt>
      <trkpt lat="43.71808" lon="7.02919">
        <ele>846</ele>
        <time>2011-04-03T13:07:19.000Z</time>
      </trkpt>
      <trkpt lat="43.71831" lon="7.02952">
        <ele>844.20001220703</ele>
        <time>2011-04-03T13:07:24.000Z</time>
      </trkpt>
      <trkpt lat="43.71862" lon="7.02993">
        <ele>843.59997558594</ele>
        <time>2011-04-03T13:07:29.000Z</time>
      </trkpt>
      <trkpt lat="43.7189" lon="7.03038">
        <ele>842.20001220703</ele>
        <time>2011-04-03T13:07:34.000Z</time>
      </trkpt>
      <trkpt lat="43.71893" lon="7.03044">
        <ele>842</ele>
        <time>2011-04-03T13:07:35.000Z</time>
      </trkpt>
      <trkpt lat="43.71905" lon="7.03064">
        <ele>842.20001220703</ele>
        <time>2011-04-03T13:07:38.000Z</time>
      </trkpt>
      <trkpt lat="43.71917" lon="7.03113">
        <ele>840</ele>
        <time>2011-04-03T13:07:43.000Z</time>
      </trkpt>
      <trkpt lat="43.71918" lon="7.03124">
        <ele>839.79998779297</ele>
        <time>2011-04-03T13:07:44.000Z</time>
      </trkpt>
      <trkpt lat="43.71921" lon="7.03154">
        <ele>837.79998779297</ele>
        <time>2011-04-03T13:07:47.000Z</time>
      </trkpt>
      <trkpt lat="43.7192" lon="7.03199">
        <ele>833</ele>
        <time>2011-04-03T13:07:52.000Z</time>
      </trkpt>
      <trkpt lat="43.71925" lon="7.03231">
        <ele>832</ele>
        <time>2011-04-03T13:07:56.000Z</time>
      </trkpt>
      <trkpt lat="43.71935" lon="7.03249">
        <ele>833.59997558594</ele>
        <time>2011-04-03T13:07:59.000Z</time>
      </trkpt>
      <trkpt lat="43.71957" lon="7.03272">
        <ele>836.79998779297</ele>
        <time>2011-04-03T13:08:04.000Z</time>
      </trkpt>
      <trkpt lat="43.71981" lon="7.03313">
        <ele>836</ele>
        <time>2011-04-03T13:08:11.000Z</time>
      </trkpt>
      <trkpt lat="43.72002" lon="7.03362">
        <ele>831.20001220703</ele>
        <time>2011-04-03T13:08:17.000Z</time>
      </trkpt>
      <trkpt lat="43.72032" lon="7.03415">
        <ele>829</ele>
        <time>2011-04-03T13:08:23.000Z</time>
      </trkpt>
      <trkpt lat="43.72039" lon="7.0343">
        <ele>828.79998779297</ele>
        <time>2011-04-03T13:08:25.000Z</time>
      </trkpt>
      <trkpt lat="43.72044" lon="7.03467">
        <ele>824.59997558594</ele>
        <time>2011-04-03T13:08:29.000Z</time>
      </trkpt>
      <trkpt lat="43.72049" lon="7.03497">
        <ele>821</ele>
        <time>2011-04-03T13:08:32.000Z</time>
      </trkpt>
      <trkpt lat="43.72069" lon="7.03531">
        <ele>821.20001220703</ele>
        <time>2011-04-03T13:08:37.000Z</time>
      </trkpt>
      <trkpt lat="43.72074" lon="7.03535">
        <ele>821.59997558594</ele>
        <time>2011-04-03T13:08:38.000Z</time>
      </trkpt>
      <trkpt lat="43.72083" lon="7.03546">
        <ele>822</ele>
        <time>2011-04-03T13:08:40.000Z</time>
      </trkpt>
      <trkpt lat="43.72097" lon="7.0356">
        <ele>822.59997558594</ele>
        <time>2011-04-03T13:08:44.000Z</time>
      </trkpt>
      <trkpt lat="43.72099" lon="7.03559">
        <ele>823.20001220703</ele>
        <time>2011-04-03T13:08:51.000Z</time>
      </trkpt>
      <trkpt lat="43.72097" lon="7.03558">
        <ele>823.20001220703</ele>
        <time>2011-04-03T13:09:02.000Z</time>
      </trkpt>
      <trkpt lat="43.72096" lon="7.03555">
        <ele>823.40002441406</ele>
        <time>2011-04-03T13:09:33.000Z</time>
      </trkpt>
      <trkpt lat="43.72093" lon="7.0356">
        <ele>821.59997558594</ele>
        <time>2011-04-03T13:10:11.000Z</time>
      </trkpt>
      <trkpt lat="43.72095" lon="7.03559">
        <ele>822.40002441406</ele>
        <time>2011-04-03T13:10:23.000Z</time>
      </trkpt>
      <trkpt lat="43.72098" lon="7.03557">
        <ele>823.40002441406</ele>
        <time>2011-04-03T13:10:27.000Z</time>
      </trkpt>
      <trkpt lat="43.72101" lon="7.03551">
        <ele>825.40002441406</ele>
        <time>2011-04-03T13:10:40.000Z</time>
      </trkpt>
      <trkpt lat="43.72098" lon="7.03553">
        <ele>824.40002441406</ele>
        <time>2011-04-03T13:11:15.000Z</time>
      </trkpt>
      <trkpt lat="43.72099" lon="7.03554">
        <ele>824.40002441406</ele>
        <time>2011-04-03T13:11:19.000Z</time>
      </trkpt>
      <trkpt lat="43.72094" lon="7.03557">
        <ele>822.59997558594</ele>
        <time>2011-04-03T13:11:23.000Z</time>
      </trkpt>
      <trkpt lat="43.72086" lon="7.03543">
        <ele>823.40002441406</ele>
        <time>2011-04-03T13:11:26.000Z</time>
      </trkpt>
      <trkpt lat="43.7207" lon="7.03524">
        <ele>822.40002441406</ele>
        <time>2011-04-03T13:11:31.000Z</time>
      </trkpt>
      <trkpt lat="43.72066" lon="7.03523">
        <ele>821.59997558594</ele>
        <time>2011-04-03T13:11:37.000Z</time>
      </trkpt>
      <trkpt lat="43.72062" lon="7.03527">
        <ele>819.79998779297</ele>
        <time>2011-04-03T13:11:41.000Z</time>
      </trkpt>
      <trkpt lat="43.72061" lon="7.03529">
        <ele>819.20001220703</ele>
        <time>2011-04-03T13:11:47.000Z</time>
      </trkpt>
      <trkpt lat="43.72051" lon="7.03523">
        <ele>817.40002441406</ele>
        <time>2011-04-03T13:11:51.000Z</time>
      </trkpt>
      <trkpt lat="43.72042" lon="7.03518">
        <ele>815.79998779297</ele>
        <time>2011-04-03T13:11:55.000Z</time>
      </trkpt>
      <trkpt lat="43.72035" lon="7.03514">
        <ele>814.20001220703</ele>
        <time>2011-04-03T13:12:02.000Z</time>
      </trkpt>
      <trkpt lat="43.72017" lon="7.03501">
        <ele>811</ele>
        <time>2011-04-03T13:12:07.000Z</time>
      </trkpt>
      <trkpt lat="43.72008" lon="7.03482">
        <ele>811</ele>
        <time>2011-04-03T13:12:11.000Z</time>
      </trkpt>
      <trkpt lat="43.72006" lon="7.0347">
        <ele>812.20001220703</ele>
        <time>2011-04-03T13:12:15.000Z</time>
      </trkpt>
      <trkpt lat="43.71999" lon="7.03445">
        <ele>813.40002441406</ele>
        <time>2011-04-03T13:12:19.000Z</time>
      </trkpt>
      <trkpt lat="43.71988" lon="7.03409">
        <ele>815.59997558594</ele>
        <time>2011-04-03T13:12:24.000Z</time>
      </trkpt>
      <trkpt lat="43.71965" lon="7.03382">
        <ele>814.40002441406</ele>
        <time>2011-04-03T13:12:29.000Z</time>
      </trkpt>
      <trkpt lat="43.71957" lon="7.03374">
        <ele>814</ele>
        <time>2011-04-03T13:12:31.000Z</time>
      </trkpt>
      <trkpt lat="43.71941" lon="7.03364">
        <ele>811.79998779297</ele>
        <time>2011-04-03T13:12:34.000Z</time>
      </trkpt>
      <trkpt lat="43.71909" lon="7.03367">
        <ele>801.20001220703</ele>
        <time>2011-04-03T13:12:39.000Z</time>
      </trkpt>
      <trkpt lat="43.7189" lon="7.03384">
        <ele>790.59997558594</ele>
        <time>2011-04-03T13:12:42.000Z</time>
      </trkpt>
      <trkpt lat="43.71879" lon="7.03389">
        <ele>786.20001220703</ele>
        <time>2011-04-03T13:12:44.000Z</time>
      </trkpt>
      <trkpt lat="43.7186" lon="7.03402">
        <ele>778.20001220703</ele>
        <time>2011-04-03T13:12:47.000Z</time>
      </trkpt>
      <trkpt lat="43.71855" lon="7.03379">
        <ele>781.79998779297</ele>
        <time>2011-04-03T13:12:52.000Z</time>
      </trkpt>
      <trkpt lat="43.71852" lon="7.03363">
        <ele>784.40002441406</ele>
        <time>2011-04-03T13:12:54.000Z</time>
      </trkpt>
      <trkpt lat="43.71839" lon="7.03325">
        <ele>787</ele>
        <time>2011-04-03T13:12:59.000Z</time>
      </trkpt>
      <trkpt lat="43.71824" lon="7.03303">
        <ele>781.59997558594</ele>
        <time>2011-04-03T13:13:04.000Z</time>
      </trkpt>
      <trkpt lat="43.71821" lon="7.03299">
        <ele>780.40002441406</ele>
        <time>2011-04-03T13:13:05.000Z</time>
      </trkpt>
      <trkpt lat="43.71814" lon="7.03272">
        <ele>780</ele>
        <time>2011-04-03T13:13:09.000Z</time>
      </trkpt>
      <trkpt lat="43.71813" lon="7.03264">
        <ele>780.40002441406</ele>
        <time>2011-04-03T13:13:10.000Z</time>
      </trkpt>
      <trkpt lat="43.71804" lon="7.03224">
        <ele>780.79998779297</ele>
        <time>2011-04-03T13:13:16.000Z</time>
      </trkpt>
      <trkpt lat="43.71793" lon="7.03192">
        <ele>780.40002441406</ele>
        <time>2011-04-03T13:13:21.000Z</time>
      </trkpt>
      <trkpt lat="43.71789" lon="7.0318">
        <ele>780.59997558594</ele>
        <time>2011-04-03T13:13:23.000Z</time>
      </trkpt>
      <trkpt lat="43.71781" lon="7.03177">
        <ele>777.79998779297</ele>
        <time>2011-04-03T13:13:28.000Z</time>
      </trkpt>
      <trkpt lat="43.71779" lon="7.03179">
        <ele>777</ele>
        <time>2011-04-03T13:13:29.000Z</time>
      </trkpt>
      <trkpt lat="43.71779" lon="7.03181">
        <ele>776.20001220703</ele>
        <time>2011-04-03T13:13:32.000Z</time>
      </trkpt>
      <trkpt lat="43.7178" lon="7.03183">
        <ele>776.40002441406</ele>
        <time>2011-04-03T13:13:37.000Z</time>
      </trkpt>
      <trkpt lat="43.71778" lon="7.03181">
        <ele>776.20001220703</ele>
        <time>2011-04-03T13:13:43.000Z</time>
      </trkpt>
      <trkpt lat="43.71779" lon="7.03183">
        <ele>775.79998779297</ele>
        <time>2011-04-03T13:13:47.000Z</time>
      </trkpt>
      <trkpt lat="43.71777" lon="7.03185">
        <ele>774.79998779297</ele>
        <time>2011-04-03T13:13:53.000Z</time>
      </trkpt>
      <trkpt lat="43.71775" lon="7.0319">
        <ele>773.20001220703</ele>
        <time>2011-04-03T13:13:59.000Z</time>
      </trkpt>
      <trkpt lat="43.71771" lon="7.0319">
        <ele>771.20001220703</ele>
        <time>2011-04-03T13:14:05.000Z</time>
      </trkpt>
      <trkpt lat="43.71769" lon="7.03188">
        <ele>770.59997558594</ele>
        <time>2011-04-03T13:14:12.000Z</time>
      </trkpt>
      <trkpt lat="43.7176" lon="7.03184">
        <ele>768</ele>
        <time>2011-04-03T13:14:17.000Z</time>
      </trkpt>
      <trkpt lat="43.71747" lon="7.03173">
        <ele>765.59997558594</ele>
        <time>2011-04-03T13:14:22.000Z</time>
      </trkpt>
      <trkpt lat="43.7173" lon="7.03159">
        <ele>764</ele>
        <time>2011-04-03T13:14:27.000Z</time>
      </trkpt>
      <trkpt lat="43.71717" lon="7.03152">
        <ele>761.79998779297</ele>
        <time>2011-04-03T13:14:30.000Z</time>
      </trkpt>
      <trkpt lat="43.71691" lon="7.0314">
        <ele>756.79998779297</ele>
        <time>2011-04-03T13:14:36.000Z</time>
      </trkpt>
      <trkpt lat="43.71675" lon="7.03118">
        <ele>757.20001220703</ele>
        <time>2011-04-03T13:14:41.000Z</time>
      </trkpt>
      <trkpt lat="43.71664" lon="7.03094">
        <ele>759.59997558594</ele>
        <time>2011-04-03T13:14:45.000Z</time>
      </trkpt>
      <trkpt lat="43.71654" lon="7.03077">
        <ele>761.40002441406</ele>
        <time>2011-04-03T13:14:48.000Z</time>
      </trkpt>
      <trkpt lat="43.71632" lon="7.03046">
        <ele>765.79998779297</ele>
        <time>2011-04-03T13:14:54.000Z</time>
      </trkpt>
      <trkpt lat="43.71618" lon="7.03042">
        <ele>763.40002441406</ele>
        <time>2011-04-03T13:14:59.000Z</time>
      </trkpt>
      <trkpt lat="43.7161" lon="7.03042">
        <ele>761.40002441406</ele>
        <time>2011-04-03T13:15:01.000Z</time>
      </trkpt>
      <trkpt lat="43.71581" lon="7.0304">
        <ele>755.40002441406</ele>
        <time>2011-04-03T13:15:07.000Z</time>
      </trkpt>
      <trkpt lat="43.7157" lon="7.03038">
        <ele>754.79998779297</ele>
        <time>2011-04-03T13:15:09.000Z</time>
      </trkpt>
      <trkpt lat="43.71549" lon="7.0303">
        <ele>755.20001220703</ele>
        <time>2011-04-03T13:15:13.000Z</time>
      </trkpt>
      <trkpt lat="43.71541" lon="7.03023">
        <ele>756.79998779297</ele>
        <time>2011-04-03T13:15:15.000Z</time>
      </trkpt>
      <trkpt lat="43.71517" lon="7.03031">
        <ele>751.40002441406</ele>
        <time>2011-04-03T13:15:20.000Z</time>
      </trkpt>
      <trkpt lat="43.71513" lon="7.03033">
        <ele>750</ele>
        <time>2011-04-03T13:15:21.000Z</time>
      </trkpt>
      <trkpt lat="43.71489" lon="7.03039">
        <ele>746.20001220703</ele>
        <time>2011-04-03T13:15:26.000Z</time>
      </trkpt>
      <trkpt lat="43.71474" lon="7.03039">
        <ele>746</ele>
        <time>2011-04-03T13:15:29.000Z</time>
      </trkpt>
      <trkpt lat="43.71464" lon="7.03039">
        <ele>746</ele>
        <time>2011-04-03T13:15:31.000Z</time>
      </trkpt>
      <trkpt lat="43.71438" lon="7.03054">
        <ele>740.20001220703</ele>
        <time>2011-04-03T13:15:37.000Z</time>
      </trkpt>
      <trkpt lat="43.71432" lon="7.03069">
        <ele>734.79998779297</ele>
        <time>2011-04-03T13:15:41.000Z</time>
      </trkpt>
      <trkpt lat="43.71442" lon="7.0307">
        <ele>734.59997558594</ele>
        <time>2011-04-03T13:15:44.000Z</time>
      </trkpt>
      <trkpt lat="43.71446" lon="7.03069">
        <ele>735.20001220703</ele>
        <time>2011-04-03T13:15:45.000Z</time>
      </trkpt>
      <trkpt lat="43.71468" lon="7.03068">
        <ele>735.59997558594</ele>
        <time>2011-04-03T13:15:50.000Z</time>
      </trkpt>
      <trkpt lat="43.71477" lon="7.03076">
        <ele>732.59997558594</ele>
        <time>2011-04-03T13:15:53.000Z</time>
      </trkpt>
      <trkpt lat="43.71491" lon="7.03083">
        <ele>730</ele>
        <time>2011-04-03T13:15:58.000Z</time>
      </trkpt>
      <trkpt lat="43.71512" lon="7.03091">
        <ele>728.40002441406</ele>
        <time>2011-04-03T13:16:04.000Z</time>
      </trkpt>
      <trkpt lat="43.7153" lon="7.03103">
        <ele>726.20001220703</ele>
        <time>2011-04-03T13:16:08.000Z</time>
      </trkpt>
      <trkpt lat="43.71539" lon="7.03111">
        <ele>724.20001220703</ele>
        <time>2011-04-03T13:16:10.000Z</time>
      </trkpt>
      <trkpt lat="43.71552" lon="7.0312">
        <ele>723</ele>
        <time>2011-04-03T13:16:13.000Z</time>
      </trkpt>
      <trkpt lat="43.7157" lon="7.03129">
        <ele>722.79998779297</ele>
        <time>2011-04-03T13:16:18.000Z</time>
      </trkpt>
      <trkpt lat="43.71589" lon="7.03131">
        <ele>726.20001220703</ele>
        <time>2011-04-03T13:16:22.000Z</time>
      </trkpt>
      <trkpt lat="43.71596" lon="7.03147">
        <ele>723.59997558594</ele>
        <time>2011-04-03T13:16:26.000Z</time>
      </trkpt>
      <trkpt lat="43.71597" lon="7.03162">
        <ele>719.20001220703</ele>
        <time>2011-04-03T13:16:29.000Z</time>
      </trkpt>
      <trkpt lat="43.71595" lon="7.03188">
        <ele>711.20001220703</ele>
        <time>2011-04-03T13:16:34.000Z</time>
      </trkpt>
      <trkpt lat="43.71594" lon="7.03206">
        <ele>706.40002441406</ele>
        <time>2011-04-03T13:16:38.000Z</time>
      </trkpt>
      <trkpt lat="43.71594" lon="7.03235">
        <ele>698.59997558594</ele>
        <time>2011-04-03T13:16:43.000Z</time>
      </trkpt>
      <trkpt lat="43.71595" lon="7.03255">
        <ele>694.20001220703</ele>
        <time>2011-04-03T13:16:47.000Z</time>
      </trkpt>
      <trkpt lat="43.71596" lon="7.03269">
        <ele>692.20001220703</ele>
        <time>2011-04-03T13:16:49.000Z</time>
      </trkpt>
      <trkpt lat="43.71597" lon="7.03286">
        <ele>690</ele>
        <time>2011-04-03T13:16:51.000Z</time>
      </trkpt>
      <trkpt lat="43.71599" lon="7.03306">
        <ele>687.20001220703</ele>
        <time>2011-04-03T13:16:54.000Z</time>
      </trkpt>
      <trkpt lat="43.716" lon="7.03328">
        <ele>684</ele>
        <time>2011-04-03T13:16:59.000Z</time>
      </trkpt>
      <trkpt lat="43.71595" lon="7.03328">
        <ele>682.59997558594</ele>
        <time>2011-04-03T13:17:02.000Z</time>
      </trkpt>
      <trkpt lat="43.71586" lon="7.03319">
        <ele>681.79998779297</ele>
        <time>2011-04-03T13:17:05.000Z</time>
      </trkpt>
      <trkpt lat="43.71568" lon="7.03286">
        <ele>680.79998779297</ele>
        <time>2011-04-03T13:17:11.000Z</time>
      </trkpt>
      <trkpt lat="43.71553" lon="7.0326">
        <ele>680.59997558594</ele>
        <time>2011-04-03T13:17:16.000Z</time>
      </trkpt>
      <trkpt lat="43.71544" lon="7.03248">
        <ele>680.79998779297</ele>
        <time>2011-04-03T13:17:19.000Z</time>
      </trkpt>
      <trkpt lat="43.7154" lon="7.03244">
        <ele>680.59997558594</ele>
        <time>2011-04-03T13:17:23.000Z</time>
      </trkpt>
      <trkpt lat="43.7154" lon="7.03251">
        <ele>679</ele>
        <time>2011-04-03T13:17:25.000Z</time>
      </trkpt>
      <trkpt lat="43.71541" lon="7.03278">
        <ele>673.40002441406</ele>
        <time>2011-04-03T13:17:30.000Z</time>
      </trkpt>
      <trkpt lat="43.71542" lon="7.03296">
        <ele>670</ele>
        <time>2011-04-03T13:17:34.000Z</time>
      </trkpt>
      <trkpt lat="43.71535" lon="7.03291">
        <ele>668.59997558594</ele>
        <time>2011-04-03T13:17:38.000Z</time>
      </trkpt>
      <trkpt lat="43.71522" lon="7.03271">
        <ele>669</ele>
        <time>2011-04-03T13:17:43.000Z</time>
      </trkpt>
      <trkpt lat="43.71516" lon="7.03263">
        <ele>669</ele>
        <time>2011-04-03T13:17:46.000Z</time>
      </trkpt>
      <trkpt lat="43.71509" lon="7.03263">
        <ele>667.20001220703</ele>
        <time>2011-04-03T13:17:50.000Z</time>
      </trkpt>
      <trkpt lat="43.71507" lon="7.03282">
        <ele>661.59997558594</ele>
        <time>2011-04-03T13:17:56.000Z</time>
      </trkpt>
      <trkpt lat="43.71506" lon="7.03294">
        <ele>658.40002441406</ele>
        <time>2011-04-03T13:17:59.000Z</time>
      </trkpt>
      <trkpt lat="43.71503" lon="7.03294">
        <ele>657.20001220703</ele>
        <time>2011-04-03T13:18:03.000Z</time>
      </trkpt>
      <trkpt lat="43.715" lon="7.03289">
        <ele>657.40002441406</ele>
        <time>2011-04-03T13:18:05.000Z</time>
      </trkpt>
      <trkpt lat="43.71499" lon="7.03291">
        <ele>657.20001220703</ele>
        <time>2011-04-03T13:18:07.000Z</time>
      </trkpt>
      <trkpt lat="43.715" lon="7.03307">
        <ele>653</ele>
        <time>2011-04-03T13:18:11.000Z</time>
      </trkpt>
      <trkpt lat="43.71503" lon="7.03327">
        <ele>648.79998779297</ele>
        <time>2011-04-03T13:18:16.000Z</time>
      </trkpt>
      <trkpt lat="43.71505" lon="7.03355">
        <ele>644.20001220703</ele>
        <time>2011-04-03T13:18:22.000Z</time>
      </trkpt>
      <trkpt lat="43.71507" lon="7.03373">
        <ele>641.20001220703</ele>
        <time>2011-04-03T13:18:27.000Z</time>
      </trkpt>
      <trkpt lat="43.71505" lon="7.03392">
        <ele>637</ele>
        <time>2011-04-03T13:18:31.000Z</time>
      </trkpt>
      <trkpt lat="43.71504" lon="7.03403">
        <ele>634.59997558594</ele>
        <time>2011-04-03T13:18:34.000Z</time>
      </trkpt>
      <trkpt lat="43.71496" lon="7.03418">
        <ele>629.79998779297</ele>
        <time>2011-04-03T13:18:39.000Z</time>
      </trkpt>
      <trkpt lat="43.71489" lon="7.03436">
        <ele>625.20001220703</ele>
        <time>2011-04-03T13:18:44.000Z</time>
      </trkpt>
      <trkpt lat="43.71488" lon="7.03439">
        <ele>624.40002441406</ele>
        <time>2011-04-03T13:18:45.000Z</time>
      </trkpt>
      <trkpt lat="43.71483" lon="7.03451">
        <ele>621</ele>
        <time>2011-04-03T13:18:49.000Z</time>
      </trkpt>
      <trkpt lat="43.7148" lon="7.03467">
        <ele>617.59997558594</ele>
        <time>2011-04-03T13:18:53.000Z</time>
      </trkpt>
      <trkpt lat="43.71471" lon="7.03491">
        <ele>610.79998779297</ele>
        <time>2011-04-03T13:18:59.000Z</time>
      </trkpt>
      <trkpt lat="43.71466" lon="7.03518">
        <ele>606.20001220703</ele>
        <time>2011-04-03T13:19:04.000Z</time>
      </trkpt>
      <trkpt lat="43.71463" lon="7.03554">
        <ele>602.40002441406</ele>
        <time>2011-04-03T13:19:09.000Z</time>
      </trkpt>
      <trkpt lat="43.71451" lon="7.03581">
        <ele>598.20001220703</ele>
        <time>2011-04-03T13:19:13.000Z</time>
      </trkpt>
      <trkpt lat="43.71439" lon="7.03599">
        <ele>594.79998779297</ele>
        <time>2011-04-03T13:19:17.000Z</time>
      </trkpt>
      <trkpt lat="43.71433" lon="7.03611">
        <ele>593.20001220703</ele>
        <time>2011-04-03T13:19:19.000Z</time>
      </trkpt>
      <trkpt lat="43.71424" lon="7.0363">
        <ele>591.79998779297</ele>
        <time>2011-04-03T13:19:25.000Z</time>
      </trkpt>
      <trkpt lat="43.71422" lon="7.03638">
        <ele>591.40002441406</ele>
        <time>2011-04-03T13:19:28.000Z</time>
      </trkpt>
      <trkpt lat="43.71405" lon="7.03666">
        <ele>589.40002441406</ele>
        <time>2011-04-03T13:19:36.000Z</time>
      </trkpt>
      <trkpt lat="43.71396" lon="7.03682">
        <ele>585.59997558594</ele>
        <time>2011-04-03T13:19:40.000Z</time>
      </trkpt>
      <trkpt lat="43.71388" lon="7.03694">
        <ele>582.79998779297</ele>
        <time>2011-04-03T13:19:44.000Z</time>
      </trkpt>
      <trkpt lat="43.71375" lon="7.03708">
        <ele>580.20001220703</ele>
        <time>2011-04-03T13:19:49.000Z</time>
      </trkpt>
      <trkpt lat="43.71362" lon="7.03725">
        <ele>578.20001220703</ele>
        <time>2011-04-03T13:19:54.000Z</time>
      </trkpt>
      <trkpt lat="43.71351" lon="7.03737">
        <ele>577.40002441406</ele>
        <time>2011-04-03T13:19:58.000Z</time>
      </trkpt>
      <trkpt lat="43.71337" lon="7.03753">
        <ele>576.79998779297</ele>
        <time>2011-04-03T13:20:02.000Z</time>
      </trkpt>
      <trkpt lat="43.7133" lon="7.03766">
        <ele>573.40002441406</ele>
        <time>2011-04-03T13:20:06.000Z</time>
      </trkpt>
      <trkpt lat="43.71335" lon="7.03768">
        <ele>573.40002441406</ele>
        <time>2011-04-03T13:20:11.000Z</time>
      </trkpt>
      <trkpt lat="43.71346" lon="7.03765">
        <ele>573.40002441406</ele>
        <time>2011-04-03T13:20:15.000Z</time>
      </trkpt>
      <trkpt lat="43.71368" lon="7.03764">
        <ele>572.40002441406</ele>
        <time>2011-04-03T13:20:21.000Z</time>
      </trkpt>
      <trkpt lat="43.71377" lon="7.03765">
        <ele>571.79998779297</ele>
        <time>2011-04-03T13:20:24.000Z</time>
      </trkpt>
      <trkpt lat="43.71371" lon="7.03775">
        <ele>570.40002441406</ele>
        <time>2011-04-03T13:20:28.000Z</time>
      </trkpt>
      <trkpt lat="43.71362" lon="7.03786">
        <ele>568.40002441406</ele>
        <time>2011-04-03T13:20:32.000Z</time>
      </trkpt>
      <trkpt lat="43.71362" lon="7.03791">
        <ele>567.40002441406</ele>
        <time>2011-04-03T13:20:35.000Z</time>
      </trkpt>
      <trkpt lat="43.7138" lon="7.03788">
        <ele>568</ele>
        <time>2011-04-03T13:20:40.000Z</time>
      </trkpt>
      <trkpt lat="43.714" lon="7.03784">
        <ele>568.20001220703</ele>
        <time>2011-04-03T13:20:45.000Z</time>
      </trkpt>
      <trkpt lat="43.71412" lon="7.03787">
        <ele>567.79998779297</ele>
        <time>2011-04-03T13:20:48.000Z</time>
      </trkpt>
      <trkpt lat="43.7142" lon="7.03793">
        <ele>567.79998779297</ele>
        <time>2011-04-03T13:20:51.000Z</time>
      </trkpt>
      <trkpt lat="43.71416" lon="7.03801">
        <ele>566.59997558594</ele>
        <time>2011-04-03T13:20:55.000Z</time>
      </trkpt>
      <trkpt lat="43.71415" lon="7.03802">
        <ele>566.40002441406</ele>
        <time>2011-04-03T13:20:56.000Z</time>
      </trkpt>
      <trkpt lat="43.71404" lon="7.03818">
        <ele>564.59997558594</ele>
        <time>2011-04-03T13:21:01.000Z</time>
      </trkpt>
      <trkpt lat="43.71392" lon="7.03842">
        <ele>562.20001220703</ele>
        <time>2011-04-03T13:21:06.000Z</time>
      </trkpt>
      <trkpt lat="43.71385" lon="7.03858">
        <ele>561.59997558594</ele>
        <time>2011-04-03T13:21:10.000Z</time>
      </trkpt>
      <trkpt lat="43.71382" lon="7.0386">
        <ele>561.20001220703</ele>
        <time>2011-04-03T13:21:12.000Z</time>
      </trkpt>
      <trkpt lat="43.7138" lon="7.03877">
        <ele>560.79998779297</ele>
        <time>2011-04-03T13:21:17.000Z</time>
      </trkpt>
      <trkpt lat="43.71371" lon="7.039">
        <ele>557.59997558594</ele>
        <time>2011-04-03T13:21:22.000Z</time>
      </trkpt>
      <trkpt lat="43.7136" lon="7.03915">
        <ele>552.59997558594</ele>
        <time>2011-04-03T13:21:26.000Z</time>
      </trkpt>
      <trkpt lat="43.71358" lon="7.03921">
        <ele>551.59997558594</ele>
        <time>2011-04-03T13:21:27.000Z</time>
      </trkpt>
      <trkpt lat="43.71348" lon="7.03964">
        <ele>546.40002441406</ele>
        <time>2011-04-03T13:21:33.000Z</time>
      </trkpt>
      <trkpt lat="43.71343" lon="7.0399">
        <ele>542.59997558594</ele>
        <time>2011-04-03T13:21:37.000Z</time>
      </trkpt>
      <trkpt lat="43.71323" lon="7.04029">
        <ele>532</ele>
        <time>2011-04-03T13:21:44.000Z</time>
      </trkpt>
      <trkpt lat="43.71317" lon="7.04041">
        <ele>529.20001220703</ele>
        <time>2011-04-03T13:21:46.000Z</time>
      </trkpt>
      <trkpt lat="43.71309" lon="7.04088">
        <ele>525.59997558594</ele>
        <time>2011-04-03T13:21:53.000Z</time>
      </trkpt>
      <trkpt lat="43.71304" lon="7.04105">
        <ele>523.59997558594</ele>
        <time>2011-04-03T13:21:57.000Z</time>
      </trkpt>
      <trkpt lat="43.71296" lon="7.04137">
        <ele>520.59997558594</ele>
        <time>2011-04-03T13:22:04.000Z</time>
      </trkpt>
      <trkpt lat="43.71295" lon="7.04155">
        <ele>521.79998779297</ele>
        <time>2011-04-03T13:22:08.000Z</time>
      </trkpt>
      <trkpt lat="43.7129" lon="7.04175">
        <ele>521.20001220703</ele>
        <time>2011-04-03T13:22:12.000Z</time>
      </trkpt>
      <trkpt lat="43.71286" lon="7.04193">
        <ele>521.59997558594</ele>
        <time>2011-04-03T13:22:16.000Z</time>
      </trkpt>
      <trkpt lat="43.71277" lon="7.0421">
        <ele>520.20001220703</ele>
        <time>2011-04-03T13:22:20.000Z</time>
      </trkpt>
      <trkpt lat="43.71268" lon="7.04238">
        <ele>520.79998779297</ele>
        <time>2011-04-03T13:22:25.000Z</time>
      </trkpt>
      <trkpt lat="43.71264" lon="7.04251">
        <ele>521.59997558594</ele>
        <time>2011-04-03T13:22:27.000Z</time>
      </trkpt>
      <trkpt lat="43.71261" lon="7.04293">
        <ele>525.20001220703</ele>
        <time>2011-04-03T13:22:33.000Z</time>
      </trkpt>
      <trkpt lat="43.71264" lon="7.04315">
        <ele>528</ele>
        <time>2011-04-03T13:22:37.000Z</time>
      </trkpt>
      <trkpt lat="43.71264" lon="7.04331">
        <ele>529.59997558594</ele>
        <time>2011-04-03T13:22:40.000Z</time>
      </trkpt>
      <trkpt lat="43.71262" lon="7.04354">
        <ele>529</ele>
        <time>2011-04-03T13:22:45.000Z</time>
      </trkpt>
      <trkpt lat="43.71264" lon="7.04379">
        <ele>528.79998779297</ele>
        <time>2011-04-03T13:22:49.000Z</time>
      </trkpt>
      <trkpt lat="43.71263" lon="7.04402">
        <ele>527.79998779297</ele>
        <time>2011-04-03T13:22:52.000Z</time>
      </trkpt>
      <trkpt lat="43.71271" lon="7.0444">
        <ele>526.20001220703</ele>
        <time>2011-04-03T13:22:57.000Z</time>
      </trkpt>
      <trkpt lat="43.71287" lon="7.04464">
        <ele>526.79998779297</ele>
        <time>2011-04-03T13:23:01.000Z</time>
      </trkpt>
      <trkpt lat="43.71295" lon="7.04475">
        <ele>527.20001220703</ele>
        <time>2011-04-03T13:23:03.000Z</time>
      </trkpt>
      <trkpt lat="43.71304" lon="7.04514">
        <ele>524.40002441406</ele>
        <time>2011-04-03T13:23:07.000Z</time>
      </trkpt>
      <trkpt lat="43.71312" lon="7.0455">
        <ele>521.59997558594</ele>
        <time>2011-04-03T13:23:10.000Z</time>
      </trkpt>
      <trkpt lat="43.7132" lon="7.0457">
        <ele>521.20001220703</ele>
        <time>2011-04-03T13:23:12.000Z</time>
      </trkpt>
      <trkpt lat="43.71335" lon="7.04623">
        <ele>520.79998779297</ele>
        <time>2011-04-03T13:23:18.000Z</time>
      </trkpt>
      <trkpt lat="43.71336" lon="7.04641">
        <ele>519.59997558594</ele>
        <time>2011-04-03T13:23:20.000Z</time>
      </trkpt>
      <trkpt lat="43.71332" lon="7.04682">
        <ele>514.59997558594</ele>
        <time>2011-04-03T13:23:24.000Z</time>
      </trkpt>
      <trkpt lat="43.71339" lon="7.04709">
        <ele>512.79998779297</ele>
        <time>2011-04-03T13:23:27.000Z</time>
      </trkpt>
      <trkpt lat="43.71346" lon="7.04723">
        <ele>512.20001220703</ele>
        <time>2011-04-03T13:23:29.000Z</time>
      </trkpt>
      <trkpt lat="43.71337" lon="7.04755">
        <ele>506.79998779297</ele>
        <time>2011-04-03T13:23:33.000Z</time>
      </trkpt>
      <trkpt lat="43.71339" lon="7.04797">
        <ele>502</ele>
        <time>2011-04-03T13:23:37.000Z</time>
      </trkpt>
      <trkpt lat="43.71346" lon="7.04833">
        <ele>498.39999389648</ele>
        <time>2011-04-03T13:23:40.000Z</time>
      </trkpt>
      <trkpt lat="43.71367" lon="7.04875">
        <ele>495.39999389648</ele>
        <time>2011-04-03T13:23:44.000Z</time>
      </trkpt>
      <trkpt lat="43.71381" lon="7.04895">
        <ele>494.39999389648</ele>
        <time>2011-04-03T13:23:46.000Z</time>
      </trkpt>
      <trkpt lat="43.71425" lon="7.04935">
        <ele>494</ele>
        <time>2011-04-03T13:23:51.000Z</time>
      </trkpt>
      <trkpt lat="43.7145" lon="7.04977">
        <ele>490</ele>
        <time>2011-04-03T13:23:55.000Z</time>
      </trkpt>
      <trkpt lat="43.7147" lon="7.05019">
        <ele>485</ele>
        <time>2011-04-03T13:23:59.000Z</time>
      </trkpt>
      <trkpt lat="43.71466" lon="7.05059">
        <ele>478.39999389648</ele>
        <time>2011-04-03T13:24:03.000Z</time>
      </trkpt>
      <trkpt lat="43.71468" lon="7.05078">
        <ele>475.79998779297</ele>
        <time>2011-04-03T13:24:05.000Z</time>
      </trkpt>
      <trkpt lat="43.71478" lon="7.05095">
        <ele>473.60000610352</ele>
        <time>2011-04-03T13:24:07.000Z</time>
      </trkpt>
      <trkpt lat="43.71518" lon="7.05141">
        <ele>470</ele>
        <time>2011-04-03T13:24:13.000Z</time>
      </trkpt>
      <trkpt lat="43.71521" lon="7.0518">
        <ele>463.79998779297</ele>
        <time>2011-04-03T13:24:17.000Z</time>
      </trkpt>
      <trkpt lat="43.7153" lon="7.05217">
        <ele>457.60000610352</ele>
        <time>2011-04-03T13:24:20.000Z</time>
      </trkpt>
      <trkpt lat="43.7155" lon="7.05246">
        <ele>454</ele>
        <time>2011-04-03T13:24:23.000Z</time>
      </trkpt>
      <trkpt lat="43.71565" lon="7.05265">
        <ele>452.39999389648</ele>
        <time>2011-04-03T13:24:25.000Z</time>
      </trkpt>
      <trkpt lat="43.71577" lon="7.05285">
        <ele>450</ele>
        <time>2011-04-03T13:24:27.000Z</time>
      </trkpt>
      <trkpt lat="43.71604" lon="7.05315">
        <ele>446</ele>
        <time>2011-04-03T13:24:31.000Z</time>
      </trkpt>
      <trkpt lat="43.7161" lon="7.05317">
        <ele>445.79998779297</ele>
        <time>2011-04-03T13:24:35.000Z</time>
      </trkpt>
      <trkpt lat="43.71604" lon="7.05317">
        <ele>445.79998779297</ele>
        <time>2011-04-03T13:24:38.000Z</time>
      </trkpt>
      <trkpt lat="43.71597" lon="7.0531">
        <ele>446.79998779297</ele>
        <time>2011-04-03T13:24:42.000Z</time>
      </trkpt>
      <trkpt lat="43.71596" lon="7.05317">
        <ele>445.39999389648</ele>
        <time>2011-04-03T13:24:46.000Z</time>
      </trkpt>
      <trkpt lat="43.716" lon="7.05339">
        <ele>441.20001220703</ele>
        <time>2011-04-03T13:24:52.000Z</time>
      </trkpt>
      <trkpt lat="43.71601" lon="7.05346">
        <ele>439.79998779297</ele>
        <time>2011-04-03T13:24:53.000Z</time>
      </trkpt>
      <trkpt lat="43.71619" lon="7.05361">
        <ele>437</ele>
        <time>2011-04-03T13:24:57.000Z</time>
      </trkpt>
      <trkpt lat="43.7166" lon="7.05377">
        <ele>433.39999389648</ele>
        <time>2011-04-03T13:25:03.000Z</time>
      </trkpt>
      <trkpt lat="43.71708" lon="7.05389">
        <ele>431</ele>
        <time>2011-04-03T13:25:09.000Z</time>
      </trkpt>
      <trkpt lat="43.71763" lon="7.05397">
        <ele>429.79998779297</ele>
        <time>2011-04-03T13:25:15.000Z</time>
      </trkpt>
      <trkpt lat="43.71812" lon="7.0541">
        <ele>429.20001220703</ele>
        <time>2011-04-03T13:25:20.000Z</time>
      </trkpt>
      <trkpt lat="43.71846" lon="7.05418">
        <ele>430.79998779297</ele>
        <time>2011-04-03T13:25:24.000Z</time>
      </trkpt>
      <trkpt lat="43.71844" lon="7.05443">
        <ele>428.79998779297</ele>
        <time>2011-04-03T13:25:27.000Z</time>
      </trkpt>
      <trkpt lat="43.71829" lon="7.05455">
        <ele>425.20001220703</ele>
        <time>2011-04-03T13:25:29.000Z</time>
      </trkpt>
      <trkpt lat="43.71815" lon="7.05466">
        <ele>422.20001220703</ele>
        <time>2011-04-03T13:25:31.000Z</time>
      </trkpt>
      <trkpt lat="43.71799" lon="7.05504">
        <ele>415.39999389648</ele>
        <time>2011-04-03T13:25:35.000Z</time>
      </trkpt>
      <trkpt lat="43.71788" lon="7.05559">
        <ele>414.79998779297</ele>
        <time>2011-04-03T13:25:41.000Z</time>
      </trkpt>
      <trkpt lat="43.71786" lon="7.05567">
        <ele>414.60000610352</ele>
        <time>2011-04-03T13:25:42.000Z</time>
      </trkpt>
      <trkpt lat="43.71768" lon="7.05608">
        <ele>413.20001220703</ele>
        <time>2011-04-03T13:25:48.000Z</time>
      </trkpt>
      <trkpt lat="43.71759" lon="7.05627">
        <ele>412.79998779297</ele>
        <time>2011-04-03T13:25:51.000Z</time>
      </trkpt>
      <trkpt lat="43.71752" lon="7.05649">
        <ele>413.39999389648</ele>
        <time>2011-04-03T13:25:54.000Z</time>
      </trkpt>
      <trkpt lat="43.71747" lon="7.05663">
        <ele>413.60000610352</ele>
        <time>2011-04-03T13:25:56.000Z</time>
      </trkpt>
      <trkpt lat="43.71743" lon="7.05699">
        <ele>414.39999389648</ele>
        <time>2011-04-03T13:26:01.000Z</time>
      </trkpt>
      <trkpt lat="43.71732" lon="7.05726">
        <ele>413.20001220703</ele>
        <time>2011-04-03T13:26:05.000Z</time>
      </trkpt>
      <trkpt lat="43.71716" lon="7.05746">
        <ele>411.79998779297</ele>
        <time>2011-04-03T13:26:08.000Z</time>
      </trkpt>
      <trkpt lat="43.71696" lon="7.05796">
        <ele>412.39999389648</ele>
        <time>2011-04-03T13:26:14.000Z</time>
      </trkpt>
      <trkpt lat="43.71694" lon="7.05802">
        <ele>412.39999389648</ele>
        <time>2011-04-03T13:26:15.000Z</time>
      </trkpt>
      <trkpt lat="43.71683" lon="7.05814">
        <ele>412</ele>
        <time>2011-04-03T13:26:19.000Z</time>
      </trkpt>
      <trkpt lat="43.71674" lon="7.05817">
        <ele>411.20001220703</ele>
        <time>2011-04-03T13:26:22.000Z</time>
      </trkpt>
      <trkpt lat="43.71651" lon="7.05828">
        <ele>409.20001220703</ele>
        <time>2011-04-03T13:26:28.000Z</time>
      </trkpt>
      <trkpt lat="43.71646" lon="7.05834">
        <ele>409.20001220703</ele>
        <time>2011-04-03T13:26:31.000Z</time>
      </trkpt>
      <trkpt lat="43.71646" lon="7.05835">
        <ele>409.20001220703</ele>
        <time>2011-04-03T13:26:36.000Z</time>
      </trkpt>
      <trkpt lat="43.71645" lon="7.05836">
        <ele>409</ele>
        <time>2011-04-03T13:26:44.000Z</time>
      </trkpt>
      <trkpt lat="43.7164" lon="7.0584">
        <ele>408.39999389648</ele>
        <time>2011-04-03T13:26:55.000Z</time>
      </trkpt>
      <trkpt lat="43.71633" lon="7.05841">
        <ele>407.39999389648</ele>
        <time>2011-04-03T13:27:05.000Z</time>
      </trkpt>
      <trkpt lat="43.71631" lon="7.05843">
        <ele>407</ele>
        <time>2011-04-03T13:27:16.000Z</time>
      </trkpt>
      <trkpt lat="43.71636" lon="7.05844">
        <ele>407.60000610352</ele>
        <time>2011-04-03T13:27:31.000Z</time>
      </trkpt>
      <trkpt lat="43.71643" lon="7.05839">
        <ele>408.60000610352</ele>
        <time>2011-04-03T13:27:44.000Z</time>
      </trkpt>
      <trkpt lat="43.71642" lon="7.05839">
        <ele>408.60000610352</ele>
        <time>2011-04-03T13:27:50.000Z</time>
      </trkpt>
      <trkpt lat="43.71626" lon="7.05845">
        <ele>406.39999389648</ele>
        <time>2011-04-03T13:27:56.000Z</time>
      </trkpt>
      <trkpt lat="43.71624" lon="7.05846">
        <ele>406.20001220703</ele>
        <time>2011-04-03T13:27:57.000Z</time>
      </trkpt>
      <trkpt lat="43.71614" lon="7.05849">
        <ele>405</ele>
        <time>2011-04-03T13:28:03.000Z</time>
      </trkpt>
      <trkpt lat="43.71601" lon="7.0585">
        <ele>403.39999389648</ele>
        <time>2011-04-03T13:28:09.000Z</time>
      </trkpt>
      <trkpt lat="43.7159" lon="7.05852">
        <ele>402.20001220703</ele>
        <time>2011-04-03T13:28:13.000Z</time>
      </trkpt>
      <trkpt lat="43.71584" lon="7.05848">
        <ele>401.39999389648</ele>
        <time>2011-04-03T13:28:18.000Z</time>
      </trkpt>
      <trkpt lat="43.71583" lon="7.05848">
        <ele>401.20001220703</ele>
        <time>2011-04-03T13:28:20.000Z</time>
      </trkpt>
      <trkpt lat="43.71577" lon="7.05849">
        <ele>398.39999389648</ele>
        <time>2011-04-03T13:28:25.000Z</time>
      </trkpt>
      <trkpt lat="43.71564" lon="7.05855">
        <ele>393.39999389648</ele>
        <time>2011-04-03T13:28:30.000Z</time>
      </trkpt>
      <trkpt lat="43.71556" lon="7.05859">
        <ele>390.79998779297</ele>
        <time>2011-04-03T13:28:33.000Z</time>
      </trkpt>
      <trkpt lat="43.71547" lon="7.05864">
        <ele>387.60000610352</ele>
        <time>2011-04-03T13:28:39.000Z</time>
      </trkpt>
      <trkpt lat="43.71545" lon="7.05866">
        <ele>387</ele>
        <time>2011-04-03T13:28:40.000Z</time>
      </trkpt>
      <trkpt lat="43.71536" lon="7.05874">
        <ele>384.79998779297</ele>
        <time>2011-04-03T13:28:45.000Z</time>
      </trkpt>
      <trkpt lat="43.71535" lon="7.05875">
        <ele>384.60000610352</ele>
        <time>2011-04-03T13:28:46.000Z</time>
      </trkpt>
      <trkpt lat="43.71526" lon="7.05885">
        <ele>383</ele>
        <time>2011-04-03T13:28:50.000Z</time>
      </trkpt>
      <trkpt lat="43.71514" lon="7.05895">
        <ele>380.79998779297</ele>
        <time>2011-04-03T13:28:56.000Z</time>
      </trkpt>
      <trkpt lat="43.71502" lon="7.05902">
        <ele>378.20001220703</ele>
        <time>2011-04-03T13:29:01.000Z</time>
      </trkpt>
      <trkpt lat="43.71488" lon="7.05912">
        <ele>375.20001220703</ele>
        <time>2011-04-03T13:29:04.000Z</time>
      </trkpt>
      <trkpt lat="43.71488" lon="7.05927">
        <ele>374</ele>
        <time>2011-04-03T13:29:08.000Z</time>
      </trkpt>
      <trkpt lat="43.71491" lon="7.05935">
        <ele>373</ele>
        <time>2011-04-03T13:29:11.000Z</time>
      </trkpt>
      <trkpt lat="43.7149" lon="7.05935">
        <ele>372.79998779297</ele>
        <time>2011-04-03T13:29:15.000Z</time>
      </trkpt>
      <trkpt lat="43.71479" lon="7.05925">
        <ele>371.39999389648</ele>
        <time>2011-04-03T13:29:20.000Z</time>
      </trkpt>
      <trkpt lat="43.71475" lon="7.05929">
        <ele>369.39999389648</ele>
        <time>2011-04-03T13:29:24.000Z</time>
      </trkpt>
      <trkpt lat="43.71482" lon="7.0594">
        <ele>369.39999389648</ele>
        <time>2011-04-03T13:29:28.000Z</time>
      </trkpt>
      <trkpt lat="43.71479" lon="7.05945">
        <ele>367.60000610352</ele>
        <time>2011-04-03T13:29:31.000Z</time>
      </trkpt>
      <trkpt lat="43.71469" lon="7.05951">
        <ele>364.60000610352</ele>
        <time>2011-04-03T13:29:36.000Z</time>
      </trkpt>
      <trkpt lat="43.71461" lon="7.05951">
        <ele>362.60000610352</ele>
        <time>2011-04-03T13:29:39.000Z</time>
      </trkpt>
      <trkpt lat="43.71455" lon="7.05953">
        <ele>361.20001220703</ele>
        <time>2011-04-03T13:29:41.000Z</time>
      </trkpt>
      <trkpt lat="43.71437" lon="7.05963">
        <ele>357.20001220703</ele>
        <time>2011-04-03T13:29:47.000Z</time>
      </trkpt>
      <trkpt lat="43.71421" lon="7.05975">
        <ele>355.79998779297</ele>
        <time>2011-04-03T13:29:51.000Z</time>
      </trkpt>
      <trkpt lat="43.71411" lon="7.05988">
        <ele>355.60000610352</ele>
        <time>2011-04-03T13:29:55.000Z</time>
      </trkpt>
      <trkpt lat="43.71409" lon="7.05995">
        <ele>356</ele>
        <time>2011-04-03T13:29:59.000Z</time>
      </trkpt>
      <trkpt lat="43.71406" lon="7.06">
        <ele>356</ele>
        <time>2011-04-03T13:30:04.000Z</time>
      </trkpt>
      <trkpt lat="43.71403" lon="7.06004">
        <ele>354.79998779297</ele>
        <time>2011-04-03T13:30:07.000Z</time>
      </trkpt>
      <trkpt lat="43.714" lon="7.06007">
        <ele>353.60000610352</ele>
        <time>2011-04-03T13:30:12.000Z</time>
      </trkpt>
      <trkpt lat="43.71397" lon="7.06011">
        <ele>352.20001220703</ele>
        <time>2011-04-03T13:30:18.000Z</time>
      </trkpt>
      <trkpt lat="43.71397" lon="7.06012">
        <ele>352</ele>
        <time>2011-04-03T13:30:22.000Z</time>
      </trkpt>
      <trkpt lat="43.71392" lon="7.06015">
        <ele>350.79998779297</ele>
        <time>2011-04-03T13:30:26.000Z</time>
      </trkpt>
      <trkpt lat="43.71376" lon="7.06025">
        <ele>348.20001220703</ele>
        <time>2011-04-03T13:30:32.000Z</time>
      </trkpt>
      <trkpt lat="43.71357" lon="7.06042">
        <ele>346.60000610352</ele>
        <time>2011-04-03T13:30:39.000Z</time>
      </trkpt>
      <trkpt lat="43.71339" lon="7.06052">
        <ele>347.60000610352</ele>
        <time>2011-04-03T13:30:44.000Z</time>
      </trkpt>
      <trkpt lat="43.71326" lon="7.06067">
        <ele>347.79998779297</ele>
        <time>2011-04-03T13:30:49.000Z</time>
      </trkpt>
      <trkpt lat="43.7132" lon="7.06079">
        <ele>347.60000610352</ele>
        <time>2011-04-03T13:30:52.000Z</time>
      </trkpt>
      <trkpt lat="43.71308" lon="7.06081">
        <ele>346</ele>
        <time>2011-04-03T13:30:57.000Z</time>
      </trkpt>
      <trkpt lat="43.713" lon="7.06089">
        <ele>343.79998779297</ele>
        <time>2011-04-03T13:31:02.000Z</time>
      </trkpt>
      <trkpt lat="43.71305" lon="7.06098">
        <ele>342.20001220703</ele>
        <time>2011-04-03T13:31:06.000Z</time>
      </trkpt>
      <trkpt lat="43.71301" lon="7.06108">
        <ele>339.60000610352</ele>
        <time>2011-04-03T13:31:10.000Z</time>
      </trkpt>
      <trkpt lat="43.71291" lon="7.06114">
        <ele>337.60000610352</ele>
        <time>2011-04-03T13:31:15.000Z</time>
      </trkpt>
      <trkpt lat="43.71286" lon="7.06115">
        <ele>337.20001220703</ele>
        <time>2011-04-03T13:31:17.000Z</time>
      </trkpt>
      <trkpt lat="43.71273" lon="7.06122">
        <ele>335.39999389648</ele>
        <time>2011-04-03T13:31:22.000Z</time>
      </trkpt>
      <trkpt lat="43.71273" lon="7.06125">
        <ele>335</ele>
        <time>2011-04-03T13:31:23.000Z</time>
      </trkpt>
      <trkpt lat="43.71277" lon="7.06136">
        <ele>333.20001220703</ele>
        <time>2011-04-03T13:31:28.000Z</time>
      </trkpt>
      <trkpt lat="43.71284" lon="7.06141">
        <ele>332.39999389648</ele>
        <time>2011-04-03T13:31:32.000Z</time>
      </trkpt>
      <trkpt lat="43.71293" lon="7.06145">
        <ele>331.39999389648</ele>
        <time>2011-04-03T13:31:36.000Z</time>
      </trkpt>
      <trkpt lat="43.71292" lon="7.06147">
        <ele>331</ele>
        <time>2011-04-03T13:31:40.000Z</time>
      </trkpt>
      <trkpt lat="43.7129" lon="7.06149">
        <ele>330.60000610352</ele>
        <time>2011-04-03T13:31:43.000Z</time>
      </trkpt>
      <trkpt lat="43.71282" lon="7.06162">
        <ele>328.79998779297</ele>
        <time>2011-04-03T13:31:48.000Z</time>
      </trkpt>
      <trkpt lat="43.71273" lon="7.0617">
        <ele>327.79998779297</ele>
        <time>2011-04-03T13:31:52.000Z</time>
      </trkpt>
      <trkpt lat="43.71272" lon="7.06175">
        <ele>327</ele>
        <time>2011-04-03T13:31:56.000Z</time>
      </trkpt>
      <trkpt lat="43.71278" lon="7.06175">
        <ele>326.39999389648</ele>
        <time>2011-04-03T13:32:01.000Z</time>
      </trkpt>
      <trkpt lat="43.71277" lon="7.06176">
        <ele>326.39999389648</ele>
        <time>2011-04-03T13:32:02.000Z</time>
      </trkpt>
      <trkpt lat="43.71266" lon="7.06189">
        <ele>324.39999389648</ele>
        <time>2011-04-03T13:32:07.000Z</time>
      </trkpt>
      <trkpt lat="43.71254" lon="7.06202">
        <ele>323</ele>
        <time>2011-04-03T13:32:12.000Z</time>
      </trkpt>
      <trkpt lat="43.71237" lon="7.06214">
        <ele>319.39999389648</ele>
        <time>2011-04-03T13:32:19.000Z</time>
      </trkpt>
      <trkpt lat="43.71227" lon="7.06223">
        <ele>317</ele>
        <time>2011-04-03T13:32:23.000Z</time>
      </trkpt>
      <trkpt lat="43.71222" lon="7.06229">
        <ele>316</ele>
        <time>2011-04-03T13:32:25.000Z</time>
      </trkpt>
      <trkpt lat="43.7121" lon="7.06227">
        <ele>315.39999389648</ele>
        <time>2011-04-03T13:32:30.000Z</time>
      </trkpt>
      <trkpt lat="43.71206" lon="7.06229">
        <ele>314.79998779297</ele>
        <time>2011-04-03T13:32:32.000Z</time>
      </trkpt>
      <trkpt lat="43.71201" lon="7.06235">
        <ele>314</ele>
        <time>2011-04-03T13:32:34.000Z</time>
      </trkpt>
      <trkpt lat="43.71192" lon="7.06237">
        <ele>313.39999389648</ele>
        <time>2011-04-03T13:32:38.000Z</time>
      </trkpt>
      <trkpt lat="43.71187" lon="7.06226">
        <ele>314</ele>
        <time>2011-04-03T13:32:42.000Z</time>
      </trkpt>
      <trkpt lat="43.71184" lon="7.06228">
        <ele>313.79998779297</ele>
        <time>2011-04-03T13:32:46.000Z</time>
      </trkpt>
      <trkpt lat="43.71184" lon="7.06229">
        <ele>313.60000610352</ele>
        <time>2011-04-03T13:32:51.000Z</time>
      </trkpt>
      <trkpt lat="43.71183" lon="7.06231">
        <ele>313.39999389648</ele>
        <time>2011-04-03T13:32:57.000Z</time>
      </trkpt>
      <trkpt lat="43.71183" lon="7.06231">
        <ele>313.39999389648</ele>
        <time>2011-04-03T13:33:10.000Z</time>
      </trkpt>
      <trkpt lat="43.71183" lon="7.0623">
        <ele>313.60000610352</ele>
        <time>2011-04-03T13:33:27.000Z</time>
      </trkpt>
      <trkpt lat="43.71183" lon="7.0623">
        <ele>313.60000610352</ele>
        <time>2011-04-03T13:33:44.000Z</time>
      </trkpt>
      <trkpt lat="43.71184" lon="7.0623">
        <ele>313.60000610352</ele>
        <time>2011-04-03T13:33:48.000Z</time>
      </trkpt>
      <trkpt lat="43.71184" lon="7.06231">
        <ele>313.39999389648</ele>
        <time>2011-04-03T13:33:52.000Z</time>
      </trkpt>
      <trkpt lat="43.71183" lon="7.06252">
        <ele>311.79998779297</ele>
        <time>2011-04-03T13:33:57.000Z</time>
      </trkpt>
      <trkpt lat="43.71179" lon="7.0629">
        <ele>306</ele>
        <time>2011-04-03T13:34:02.000Z</time>
      </trkpt>
      <trkpt lat="43.71157" lon="7.06315">
        <ele>303.60000610352</ele>
        <time>2011-04-03T13:34:06.000Z</time>
      </trkpt>
      <trkpt lat="43.71128" lon="7.06332">
        <ele>303</ele>
        <time>2011-04-03T13:34:10.000Z</time>
      </trkpt>
      <trkpt lat="43.71076" lon="7.06358">
        <ele>301.60000610352</ele>
        <time>2011-04-03T13:34:17.000Z</time>
      </trkpt>
      <trkpt lat="43.71047" lon="7.06372">
        <ele>300.60000610352</ele>
        <time>2011-04-03T13:34:21.000Z</time>
      </trkpt>
      <trkpt lat="43.71005" lon="7.06401">
        <ele>300.20001220703</ele>
        <time>2011-04-03T13:34:27.000Z</time>
      </trkpt>
      <trkpt lat="43.70977" lon="7.0642">
        <ele>300</ele>
        <time>2011-04-03T13:34:31.000Z</time>
      </trkpt>
      <trkpt lat="43.70928" lon="7.06465">
        <ele>299.60000610352</ele>
        <time>2011-04-03T13:34:39.000Z</time>
      </trkpt>
      <trkpt lat="43.70917" lon="7.06476">
        <ele>300.39999389648</ele>
        <time>2011-04-03T13:34:41.000Z</time>
      </trkpt>
      <trkpt lat="43.70894" lon="7.06488">
        <ele>300</ele>
        <time>2011-04-03T13:34:45.000Z</time>
      </trkpt>
      <trkpt lat="43.70876" lon="7.06499">
        <ele>299.39999389648</ele>
        <time>2011-04-03T13:34:48.000Z</time>
      </trkpt>
      <trkpt lat="43.70845" lon="7.06522">
        <ele>296.60000610352</ele>
        <time>2011-04-03T13:34:53.000Z</time>
      </trkpt>
      <trkpt lat="43.70815" lon="7.06545">
        <ele>293</ele>
        <time>2011-04-03T13:34:57.000Z</time>
      </trkpt>
      <trkpt lat="43.7079" lon="7.0658">
        <ele>289.39999389648</ele>
        <time>2011-04-03T13:35:01.000Z</time>
      </trkpt>
      <trkpt lat="43.70765" lon="7.06598">
        <ele>287.20001220703</ele>
        <time>2011-04-03T13:35:04.000Z</time>
      </trkpt>
      <trkpt lat="43.70748" lon="7.06606">
        <ele>286.39999389648</ele>
        <time>2011-04-03T13:35:06.000Z</time>
      </trkpt>
      <trkpt lat="43.70691" lon="7.06638">
        <ele>283.20001220703</ele>
        <time>2011-04-03T13:35:13.000Z</time>
      </trkpt>
      <trkpt lat="43.70687" lon="7.06669">
        <ele>282.39999389648</ele>
        <time>2011-04-03T13:35:17.000Z</time>
      </trkpt>
      <trkpt lat="43.70707" lon="7.06689">
        <ele>278.39999389648</ele>
        <time>2011-04-03T13:35:20.000Z</time>
      </trkpt>
      <trkpt lat="43.70737" lon="7.06682">
        <ele>279.20001220703</ele>
        <time>2011-04-03T13:35:23.000Z</time>
      </trkpt>
      <trkpt lat="43.7079" lon="7.06667">
        <ele>279</ele>
        <time>2011-04-03T13:35:29.000Z</time>
      </trkpt>
      <trkpt lat="43.70807" lon="7.06667">
        <ele>277.39999389648</ele>
        <time>2011-04-03T13:35:31.000Z</time>
      </trkpt>
      <trkpt lat="43.70871" lon="7.06649">
        <ele>273.79998779297</ele>
        <time>2011-04-03T13:35:38.000Z</time>
      </trkpt>
      <trkpt lat="43.70916" lon="7.06634">
        <ele>272.20001220703</ele>
        <time>2011-04-03T13:35:43.000Z</time>
      </trkpt>
      <trkpt lat="43.70962" lon="7.06616">
        <ele>270.20001220703</ele>
        <time>2011-04-03T13:35:48.000Z</time>
      </trkpt>
      <trkpt lat="43.70971" lon="7.06614">
        <ele>269</ele>
        <time>2011-04-03T13:35:49.000Z</time>
      </trkpt>
      <trkpt lat="43.71012" lon="7.06615">
        <ele>265.60000610352</ele>
        <time>2011-04-03T13:35:53.000Z</time>
      </trkpt>
      <trkpt lat="43.71027" lon="7.06613">
        <ele>266.39999389648</ele>
        <time>2011-04-03T13:35:55.000Z</time>
      </trkpt>
      <trkpt lat="43.71039" lon="7.06623">
        <ele>267.60000610352</ele>
        <time>2011-04-03T13:35:59.000Z</time>
      </trkpt>
      <trkpt lat="43.71033" lon="7.06645">
        <ele>267.79998779297</ele>
        <time>2011-04-03T13:36:04.000Z</time>
      </trkpt>
      <trkpt lat="43.71011" lon="7.06668">
        <ele>265</ele>
        <time>2011-04-03T13:36:11.000Z</time>
      </trkpt>
      <trkpt lat="43.71002" lon="7.06689">
        <ele>266.20001220703</ele>
        <time>2011-04-03T13:36:16.000Z</time>
      </trkpt>
      <trkpt lat="43.70988" lon="7.06727">
        <ele>269.39999389648</ele>
        <time>2011-04-03T13:36:24.000Z</time>
      </trkpt>
      <trkpt lat="43.70971" lon="7.06753">
        <ele>269</ele>
        <time>2011-04-03T13:36:30.000Z</time>
      </trkpt>
      <trkpt lat="43.7095" lon="7.06789">
        <ele>269.39999389648</ele>
        <time>2011-04-03T13:36:38.000Z</time>
      </trkpt>
      <trkpt lat="43.70929" lon="7.06823">
        <ele>269.79998779297</ele>
        <time>2011-04-03T13:36:46.000Z</time>
      </trkpt>
      <trkpt lat="43.70912" lon="7.06848">
        <ele>270.39999389648</ele>
        <time>2011-04-03T13:36:53.000Z</time>
      </trkpt>
      <trkpt lat="43.70894" lon="7.06866">
        <ele>271.20001220703</ele>
        <time>2011-04-03T13:37:00.000Z</time>
      </trkpt>
      <trkpt lat="43.70875" lon="7.06883">
        <ele>271.39999389648</ele>
        <time>2011-04-03T13:37:07.000Z</time>
      </trkpt>
      <trkpt lat="43.70854" lon="7.06904">
        <ele>272.39999389648</ele>
        <time>2011-04-03T13:37:14.000Z</time>
      </trkpt>
      <trkpt lat="43.7084" lon="7.06924">
        <ele>273.60000610352</ele>
        <time>2011-04-03T13:37:20.000Z</time>
      </trkpt>
      <trkpt lat="43.70826" lon="7.06951">
        <ele>275.39999389648</ele>
        <time>2011-04-03T13:37:27.000Z</time>
      </trkpt>
      <trkpt lat="43.70808" lon="7.06975">
        <ele>277.20001220703</ele>
        <time>2011-04-03T13:37:34.000Z</time>
      </trkpt>
      <trkpt lat="43.70782" lon="7.06995">
        <ele>278.20001220703</ele>
        <time>2011-04-03T13:37:41.000Z</time>
      </trkpt>
      <trkpt lat="43.70752" lon="7.07019">
        <ele>278</ele>
        <time>2011-04-03T13:37:50.000Z</time>
      </trkpt>
      <trkpt lat="43.70733" lon="7.07043">
        <ele>278</ele>
        <time>2011-04-03T13:37:57.000Z</time>
      </trkpt>
      <trkpt lat="43.70723" lon="7.07063">
        <ele>278.79998779297</ele>
        <time>2011-04-03T13:38:02.000Z</time>
      </trkpt>
      <trkpt lat="43.70725" lon="7.07082">
        <ele>280</ele>
        <time>2011-04-03T13:38:06.000Z</time>
      </trkpt>
      <trkpt lat="43.70727" lon="7.07115">
        <ele>280.20001220703</ele>
        <time>2011-04-03T13:38:13.000Z</time>
      </trkpt>
      <trkpt lat="43.70736" lon="7.07142">
        <ele>280.20001220703</ele>
        <time>2011-04-03T13:38:19.000Z</time>
      </trkpt>
      <trkpt lat="43.70744" lon="7.07165">
        <ele>280</ele>
        <time>2011-04-03T13:38:23.000Z</time>
      </trkpt>
      <trkpt lat="43.70764" lon="7.0719">
        <ele>279.20001220703</ele>
        <time>2011-04-03T13:38:28.000Z</time>
      </trkpt>
      <trkpt lat="43.70773" lon="7.072">
        <ele>278.79998779297</ele>
        <time>2011-04-03T13:38:30.000Z</time>
      </trkpt>
      <trkpt lat="43.70796" lon="7.07225">
        <ele>278.20001220703</ele>
        <time>2011-04-03T13:38:35.000Z</time>
      </trkpt>
      <trkpt lat="43.70813" lon="7.07264">
        <ele>277.60000610352</ele>
        <time>2011-04-03T13:38:40.000Z</time>
      </trkpt>
      <trkpt lat="43.7082" lon="7.07317">
        <ele>279</ele>
        <time>2011-04-03T13:38:47.000Z</time>
      </trkpt>
      <trkpt lat="43.7082" lon="7.07322">
        <ele>279</ele>
        <time>2011-04-03T13:38:48.000Z</time>
      </trkpt>
      <trkpt lat="43.70811" lon="7.07344">
        <ele>279.60000610352</ele>
        <time>2011-04-03T13:38:53.000Z</time>
      </trkpt>
      <trkpt lat="43.70805" lon="7.07352">
        <ele>280</ele>
        <time>2011-04-03T13:38:55.000Z</time>
      </trkpt>
      <trkpt lat="43.70775" lon="7.07389">
        <ele>280.79998779297</ele>
        <time>2011-04-03T13:39:04.000Z</time>
      </trkpt>
      <trkpt lat="43.70772" lon="7.07409">
        <ele>282</ele>
        <time>2011-04-03T13:39:08.000Z</time>
      </trkpt>
      <trkpt lat="43.70776" lon="7.07417">
        <ele>282.79998779297</ele>
        <time>2011-04-03T13:39:10.000Z</time>
      </trkpt>
      <trkpt lat="43.70803" lon="7.07447">
        <ele>286</ele>
        <time>2011-04-03T13:39:19.000Z</time>
      </trkpt>
      <trkpt lat="43.70816" lon="7.07469">
        <ele>288</ele>
        <time>2011-04-03T13:39:26.000Z</time>
      </trkpt>
      <trkpt lat="43.7083" lon="7.07481">
        <ele>289.79998779297</ele>
        <time>2011-04-03T13:39:32.000Z</time>
      </trkpt>
      <trkpt lat="43.70844" lon="7.07493">
        <ele>291</ele>
        <time>2011-04-03T13:39:38.000Z</time>
      </trkpt>
      <trkpt lat="43.70858" lon="7.07506">
        <ele>291.79998779297</ele>
        <time>2011-04-03T13:39:44.000Z</time>
      </trkpt>
      <trkpt lat="43.70854" lon="7.07519">
        <ele>291.39999389648</ele>
        <time>2011-04-03T13:39:48.000Z</time>
      </trkpt>
      <trkpt lat="43.70828" lon="7.07546">
        <ele>290.60000610352</ele>
        <time>2011-04-03T13:39:56.000Z</time>
      </trkpt>
      <trkpt lat="43.70824" lon="7.07549">
        <ele>290.39999389648</ele>
        <time>2011-04-03T13:39:57.000Z</time>
      </trkpt>
      <trkpt lat="43.70803" lon="7.07568">
        <ele>289.79998779297</ele>
        <time>2011-04-03T13:40:02.000Z</time>
      </trkpt>
      <trkpt lat="43.70794" lon="7.07584">
        <ele>290</ele>
        <time>2011-04-03T13:40:06.000Z</time>
      </trkpt>
      <trkpt lat="43.70792" lon="7.07602">
        <ele>288.79998779297</ele>
        <time>2011-04-03T13:40:10.000Z</time>
      </trkpt>
      <trkpt lat="43.70797" lon="7.07611">
        <ele>288.39999389648</ele>
        <time>2011-04-03T13:40:12.000Z</time>
      </trkpt>
      <trkpt lat="43.70803" lon="7.07627">
        <ele>287.39999389648</ele>
        <time>2011-04-03T13:40:16.000Z</time>
      </trkpt>
      <trkpt lat="43.70791" lon="7.07637">
        <ele>287</ele>
        <time>2011-04-03T13:40:21.000Z</time>
      </trkpt>
      <trkpt lat="43.70773" lon="7.07653">
        <ele>286.60000610352</ele>
        <time>2011-04-03T13:40:25.000Z</time>
      </trkpt>
      <trkpt lat="43.70758" lon="7.0767">
        <ele>285.79998779297</ele>
        <time>2011-04-03T13:40:29.000Z</time>
      </trkpt>
      <trkpt lat="43.70745" lon="7.07683">
        <ele>283.20001220703</ele>
        <time>2011-04-03T13:40:32.000Z</time>
      </trkpt>
      <trkpt lat="43.70732" lon="7.07707">
        <ele>278.79998779297</ele>
        <time>2011-04-03T13:40:37.000Z</time>
      </trkpt>
      <trkpt lat="43.70725" lon="7.0772">
        <ele>277</ele>
        <time>2011-04-03T13:40:40.000Z</time>
      </trkpt>
      <trkpt lat="43.70721" lon="7.07736">
        <ele>274.20001220703</ele>
        <time>2011-04-03T13:40:45.000Z</time>
      </trkpt>
      <trkpt lat="43.70736" lon="7.07731">
        <ele>273</ele>
        <time>2011-04-03T13:40:50.000Z</time>
      </trkpt>
      <trkpt lat="43.70739" lon="7.07732">
        <ele>272.39999389648</ele>
        <time>2011-04-03T13:40:51.000Z</time>
      </trkpt>
      <trkpt lat="43.70732" lon="7.07742">
        <ele>271.20001220703</ele>
        <time>2011-04-03T13:40:55.000Z</time>
      </trkpt>
      <trkpt lat="43.7072" lon="7.07761">
        <ele>267.20001220703</ele>
        <time>2011-04-03T13:41:00.000Z</time>
      </trkpt>
      <trkpt lat="43.70723" lon="7.07767">
        <ele>264.20001220703</ele>
        <time>2011-04-03T13:41:05.000Z</time>
      </trkpt>
      <trkpt lat="43.70734" lon="7.07765">
        <ele>262.79998779297</ele>
        <time>2011-04-03T13:41:09.000Z</time>
      </trkpt>
      <trkpt lat="43.70735" lon="7.07766">
        <ele>262.39999389648</ele>
        <time>2011-04-03T13:41:13.000Z</time>
      </trkpt>
      <trkpt lat="43.70737" lon="7.07768">
        <ele>261.20001220703</ele>
        <time>2011-04-03T13:41:15.000Z</time>
      </trkpt>
      <trkpt lat="43.70748" lon="7.07769">
        <ele>258.60000610352</ele>
        <time>2011-04-03T13:41:19.000Z</time>
      </trkpt>
      <trkpt lat="43.7075" lon="7.07776">
        <ele>255.19999694824</ele>
        <time>2011-04-03T13:41:23.000Z</time>
      </trkpt>
      <trkpt lat="43.70735" lon="7.07793">
        <ele>251</ele>
        <time>2011-04-03T13:41:29.000Z</time>
      </trkpt>
      <trkpt lat="43.70709" lon="7.07808">
        <ele>249.60000610352</ele>
        <time>2011-04-03T13:41:36.000Z</time>
      </trkpt>
      <trkpt lat="43.70704" lon="7.07811">
        <ele>249.39999389648</ele>
        <time>2011-04-03T13:41:40.000Z</time>
      </trkpt>
      <trkpt lat="43.70699" lon="7.07817">
        <ele>247.80000305176</ele>
        <time>2011-04-03T13:41:45.000Z</time>
      </trkpt>
      <trkpt lat="43.70691" lon="7.07823">
        <ele>246.60000610352</ele>
        <time>2011-04-03T13:41:49.000Z</time>
      </trkpt>
      <trkpt lat="43.70671" lon="7.07836">
        <ele>245.60000610352</ele>
        <time>2011-04-03T13:41:54.000Z</time>
      </trkpt>
      <trkpt lat="43.70652" lon="7.07851">
        <ele>244.19999694824</ele>
        <time>2011-04-03T13:41:59.000Z</time>
      </trkpt>
      <trkpt lat="43.70649" lon="7.07854">
        <ele>244</ele>
        <time>2011-04-03T13:42:00.000Z</time>
      </trkpt>
      <trkpt lat="43.70638" lon="7.07863">
        <ele>242.19999694824</ele>
        <time>2011-04-03T13:42:06.000Z</time>
      </trkpt>
      <trkpt lat="43.70629" lon="7.07871">
        <ele>240.39999389648</ele>
        <time>2011-04-03T13:42:10.000Z</time>
      </trkpt>
      <trkpt lat="43.70616" lon="7.07883">
        <ele>236.80000305176</ele>
        <time>2011-04-03T13:42:14.000Z</time>
      </trkpt>
      <trkpt lat="43.70614" lon="7.07886">
        <ele>235.80000305176</ele>
        <time>2011-04-03T13:42:15.000Z</time>
      </trkpt>
      <trkpt lat="43.70604" lon="7.07897">
        <ele>231.60000610352</ele>
        <time>2011-04-03T13:42:19.000Z</time>
      </trkpt>
      <trkpt lat="43.70593" lon="7.07913">
        <ele>224.60000610352</ele>
        <time>2011-04-03T13:42:24.000Z</time>
      </trkpt>
      <trkpt lat="43.70582" lon="7.07925">
        <ele>222.60000610352</ele>
        <time>2011-04-03T13:42:28.000Z</time>
      </trkpt>
      <trkpt lat="43.70567" lon="7.07932">
        <ele>221.19999694824</ele>
        <time>2011-04-03T13:42:33.000Z</time>
      </trkpt>
      <trkpt lat="43.70565" lon="7.07933">
        <ele>221</ele>
        <time>2011-04-03T13:42:34.000Z</time>
      </trkpt>
      <trkpt lat="43.70555" lon="7.07939">
        <ele>220.39999389648</ele>
        <time>2011-04-03T13:42:40.000Z</time>
      </trkpt>
      <trkpt lat="43.70551" lon="7.07944">
        <ele>220.19999694824</ele>
        <time>2011-04-03T13:42:43.000Z</time>
      </trkpt>
      <trkpt lat="43.70553" lon="7.07948">
        <ele>220.39999389648</ele>
        <time>2011-04-03T13:42:47.000Z</time>
      </trkpt>
      <trkpt lat="43.70554" lon="7.07953">
        <ele>220.80000305176</ele>
        <time>2011-04-03T13:42:53.000Z</time>
      </trkpt>
      <trkpt lat="43.70551" lon="7.07956">
        <ele>220.80000305176</ele>
        <time>2011-04-03T13:42:59.000Z</time>
      </trkpt>
      <trkpt lat="43.70549" lon="7.07957">
        <ele>220.60000610352</ele>
        <time>2011-04-03T13:43:04.000Z</time>
      </trkpt>
      <trkpt lat="43.70545" lon="7.07958">
        <ele>220.60000610352</ele>
        <time>2011-04-03T13:43:10.000Z</time>
      </trkpt>
      <trkpt lat="43.7054" lon="7.07958">
        <ele>220.39999389648</ele>
        <time>2011-04-03T13:43:15.000Z</time>
      </trkpt>
      <trkpt lat="43.70535" lon="7.07958">
        <ele>220</ele>
        <time>2011-04-03T13:43:20.000Z</time>
      </trkpt>
      <trkpt lat="43.70528" lon="7.07961">
        <ele>220</ele>
        <time>2011-04-03T13:43:28.000Z</time>
      </trkpt>
      <trkpt lat="43.70522" lon="7.07963">
        <ele>220</ele>
        <time>2011-04-03T13:43:34.000Z</time>
      </trkpt>
      <trkpt lat="43.70515" lon="7.07963">
        <ele>219.60000610352</ele>
        <time>2011-04-03T13:43:41.000Z</time>
      </trkpt>
      <trkpt lat="43.70507" lon="7.07963">
        <ele>219.19999694824</ele>
        <time>2011-04-03T13:43:48.000Z</time>
      </trkpt>
      <trkpt lat="43.70501" lon="7.07967">
        <ele>219.60000610352</ele>
        <time>2011-04-03T13:43:56.000Z</time>
      </trkpt>
      <trkpt lat="43.70496" lon="7.07967">
        <ele>219.60000610352</ele>
        <time>2011-04-03T13:44:03.000Z</time>
      </trkpt>
      <trkpt lat="43.70496" lon="7.07969">
        <ele>219.80000305176</ele>
        <time>2011-04-03T13:44:16.000Z</time>
      </trkpt>
      <trkpt lat="43.70496" lon="7.07973">
        <ele>220.19999694824</ele>
        <time>2011-04-03T13:44:22.000Z</time>
      </trkpt>
      <trkpt lat="43.70491" lon="7.0798">
        <ele>221.39999389648</ele>
        <time>2011-04-03T13:44:29.000Z</time>
      </trkpt>
      <trkpt lat="43.70487" lon="7.07983">
        <ele>222</ele>
        <time>2011-04-03T13:44:34.000Z</time>
      </trkpt>
      <trkpt lat="43.70484" lon="7.07985">
        <ele>222.39999389648</ele>
        <time>2011-04-03T13:44:38.000Z</time>
      </trkpt>
      <trkpt lat="43.7048" lon="7.07987">
        <ele>222.80000305176</ele>
        <time>2011-04-03T13:44:43.000Z</time>
      </trkpt>
      <trkpt lat="43.70477" lon="7.07987">
        <ele>223</ele>
        <time>2011-04-03T13:44:48.000Z</time>
      </trkpt>
      <trkpt lat="43.70472" lon="7.07988">
        <ele>223.39999389648</ele>
        <time>2011-04-03T13:44:53.000Z</time>
      </trkpt>
      <trkpt lat="43.70466" lon="7.07987">
        <ele>223.39999389648</ele>
        <time>2011-04-03T13:44:59.000Z</time>
      </trkpt>
      <trkpt lat="43.70463" lon="7.07995">
        <ele>225</ele>
        <time>2011-04-03T13:45:06.000Z</time>
      </trkpt>
      <trkpt lat="43.70459" lon="7.07999">
        <ele>226.19999694824</ele>
        <time>2011-04-03T13:45:12.000Z</time>
      </trkpt>
      <trkpt lat="43.70454" lon="7.07999">
        <ele>226.39999389648</ele>
        <time>2011-04-03T13:45:17.000Z</time>
      </trkpt>
      <trkpt lat="43.70454" lon="7.08">
        <ele>226.60000610352</ele>
        <time>2011-04-03T13:45:23.000Z</time>
      </trkpt>
      <trkpt lat="43.70454" lon="7.07995">
        <ele>225.39999389648</ele>
        <time>2011-04-03T13:45:26.000Z</time>
      </trkpt>
      <trkpt lat="43.70461" lon="7.07993">
        <ele>224.80000305176</ele>
        <time>2011-04-03T13:45:35.000Z</time>
      </trkpt>
      <trkpt lat="43.70464" lon="7.08005">
        <ele>228</ele>
        <time>2011-04-03T13:45:41.000Z</time>
      </trkpt>
      <trkpt lat="43.70462" lon="7.08014">
        <ele>232</ele>
        <time>2011-04-03T13:45:48.000Z</time>
      </trkpt>
      <trkpt lat="43.7046" lon="7.08017">
        <ele>233.39999389648</ele>
        <time>2011-04-03T13:45:52.000Z</time>
      </trkpt>
      <trkpt lat="43.70457" lon="7.0802">
        <ele>234.80000305176</ele>
        <time>2011-04-03T13:45:56.000Z</time>
      </trkpt>
      <trkpt lat="43.70451" lon="7.08026">
        <ele>238</ele>
        <time>2011-04-03T13:46:03.000Z</time>
      </trkpt>
      <trkpt lat="43.70449" lon="7.08029">
        <ele>239</ele>
        <time>2011-04-03T13:46:07.000Z</time>
      </trkpt>
      <trkpt lat="43.70447" lon="7.08031">
        <ele>240.39999389648</ele>
        <time>2011-04-03T13:46:12.000Z</time>
      </trkpt>
      <trkpt lat="43.70445" lon="7.08034">
        <ele>241.60000610352</ele>
        <time>2011-04-03T13:46:16.000Z</time>
      </trkpt>
      <trkpt lat="43.70443" lon="7.08034">
        <ele>241.60000610352</ele>
        <time>2011-04-03T13:46:18.000Z</time>
      </trkpt>
      <trkpt lat="43.70434" lon="7.08035">
        <ele>242.80000305176</ele>
        <time>2011-04-03T13:46:27.000Z</time>
      </trkpt>
      <trkpt lat="43.70431" lon="7.08037">
        <ele>243.80000305176</ele>
        <time>2011-04-03T13:46:31.000Z</time>
      </trkpt>
      <trkpt lat="43.7043" lon="7.08041">
        <ele>245.60000610352</ele>
        <time>2011-04-03T13:46:37.000Z</time>
      </trkpt>
      <trkpt lat="43.70432" lon="7.08036">
        <ele>243.39999389648</ele>
        <time>2011-04-03T13:46:45.000Z</time>
      </trkpt>
      <trkpt lat="43.70436" lon="7.08042">
        <ele>245.39999389648</ele>
        <time>2011-04-03T13:46:51.000Z</time>
      </trkpt>
      <trkpt lat="43.70433" lon="7.08046">
        <ele>247.80000305176</ele>
        <time>2011-04-03T13:46:56.000Z</time>
      </trkpt>
      <trkpt lat="43.70431" lon="7.08048">
        <ele>248.80000305176</ele>
        <time>2011-04-03T13:47:05.000Z</time>
      </trkpt>
      <trkpt lat="43.70421" lon="7.08048">
        <ele>249.60000610352</ele>
        <time>2011-04-03T13:47:11.000Z</time>
      </trkpt>
      <trkpt lat="43.70418" lon="7.08048">
        <ele>249.60000610352</ele>
        <time>2011-04-03T13:47:15.000Z</time>
      </trkpt>
      <trkpt lat="43.70413" lon="7.08047">
        <ele>249.80000305176</ele>
        <time>2011-04-03T13:47:19.000Z</time>
      </trkpt>
      <trkpt lat="43.70409" lon="7.08044">
        <ele>248.80000305176</ele>
        <time>2011-04-03T13:47:24.000Z</time>
      </trkpt>
      <trkpt lat="43.70408" lon="7.08046">
        <ele>250</ele>
        <time>2011-04-03T13:47:30.000Z</time>
      </trkpt>
      <trkpt lat="43.70404" lon="7.08046">
        <ele>250.60000610352</ele>
        <time>2011-04-03T13:47:35.000Z</time>
      </trkpt>
      <trkpt lat="43.70404" lon="7.08049">
        <ele>251.60000610352</ele>
        <time>2011-04-03T13:47:40.000Z</time>
      </trkpt>
      <trkpt lat="43.70405" lon="7.08049">
        <ele>251.60000610352</ele>
        <time>2011-04-03T13:47:45.000Z</time>
      </trkpt>
      <trkpt lat="43.70408" lon="7.0805">
        <ele>251.60000610352</ele>
        <time>2011-04-03T13:47:52.000Z</time>
      </trkpt>
      <trkpt lat="43.70411" lon="7.08057">
        <ele>254.19999694824</ele>
        <time>2011-04-03T13:48:02.000Z</time>
      </trkpt>
      <trkpt lat="43.70413" lon="7.08059">
        <ele>254.80000305176</ele>
        <time>2011-04-03T13:48:05.000Z</time>
      </trkpt>
      <trkpt lat="43.70414" lon="7.08067">
        <ele>258.39999389648</ele>
        <time>2011-04-03T13:48:11.000Z</time>
      </trkpt>
      <trkpt lat="43.70417" lon="7.08077">
        <ele>262.39999389648</ele>
        <time>2011-04-03T13:48:17.000Z</time>
      </trkpt>
      <trkpt lat="43.70412" lon="7.0808">
        <ele>264</ele>
        <time>2011-04-03T13:48:21.000Z</time>
      </trkpt>
      <trkpt lat="43.70411" lon="7.08074">
        <ele>261.79998779297</ele>
        <time>2011-04-03T13:48:27.000Z</time>
      </trkpt>
      <trkpt lat="43.70405" lon="7.08069">
        <ele>260.20001220703</ele>
        <time>2011-04-03T13:48:34.000Z</time>
      </trkpt>
      <trkpt lat="43.70402" lon="7.08067">
        <ele>259.60000610352</ele>
        <time>2011-04-03T13:48:37.000Z</time>
      </trkpt>
      <trkpt lat="43.70399" lon="7.0807">
        <ele>261.39999389648</ele>
        <time>2011-04-03T13:48:42.000Z</time>
      </trkpt>
      <trkpt lat="43.70401" lon="7.08077">
        <ele>264</ele>
        <time>2011-04-03T13:48:49.000Z</time>
      </trkpt>
      <trkpt lat="43.70402" lon="7.08083">
        <ele>266.79998779297</ele>
        <time>2011-04-03T13:48:56.000Z</time>
      </trkpt>
      <trkpt lat="43.70404" lon="7.08088">
        <ele>267.39999389648</ele>
        <time>2011-04-03T13:49:02.000Z</time>
      </trkpt>
      <trkpt lat="43.70403" lon="7.08092">
        <ele>268.60000610352</ele>
        <time>2011-04-03T13:49:09.000Z</time>
      </trkpt>
      <trkpt lat="43.70406" lon="7.081">
        <ele>270.20001220703</ele>
        <time>2011-04-03T13:49:16.000Z</time>
      </trkpt>
      <trkpt lat="43.70406" lon="7.08109">
        <ele>272.60000610352</ele>
        <time>2011-04-03T13:49:22.000Z</time>
      </trkpt>
      <trkpt lat="43.70407" lon="7.08114">
        <ele>273.79998779297</ele>
        <time>2011-04-03T13:49:26.000Z</time>
      </trkpt>
      <trkpt lat="43.70409" lon="7.08124">
        <ele>276</ele>
        <time>2011-04-03T13:49:32.000Z</time>
      </trkpt>
      <trkpt lat="43.70409" lon="7.08131">
        <ele>277.79998779297</ele>
        <time>2011-04-03T13:49:41.000Z</time>
      </trkpt>
      <trkpt lat="43.70409" lon="7.08137">
        <ele>279.20001220703</ele>
        <time>2011-04-03T13:49:45.000Z</time>
      </trkpt>
      <trkpt lat="43.70412" lon="7.08146">
        <ele>281.20001220703</ele>
        <time>2011-04-03T13:49:51.000Z</time>
      </trkpt>
      <trkpt lat="43.70409" lon="7.08148">
        <ele>282</ele>
        <time>2011-04-03T13:49:56.000Z</time>
      </trkpt>
      <trkpt lat="43.70404" lon="7.08151">
        <ele>283.20001220703</ele>
        <time>2011-04-03T13:50:02.000Z</time>
      </trkpt>
      <trkpt lat="43.70405" lon="7.08165">
        <ele>286.79998779297</ele>
        <time>2011-04-03T13:50:21.000Z</time>
      </trkpt>
      <trkpt lat="43.70397" lon="7.08175">
        <ele>289.60000610352</ele>
        <time>2011-04-03T13:50:31.000Z</time>
      </trkpt>
      <trkpt lat="43.70396" lon="7.08181">
        <ele>290.79998779297</ele>
        <time>2011-04-03T13:50:36.000Z</time>
      </trkpt>
      <trkpt lat="43.70398" lon="7.08185">
        <ele>291.39999389648</ele>
        <time>2011-04-03T13:50:42.000Z</time>
      </trkpt>
      <trkpt lat="43.70395" lon="7.08191">
        <ele>292.79998779297</ele>
        <time>2011-04-03T13:50:48.000Z</time>
      </trkpt>
      <trkpt lat="43.70394" lon="7.08194">
        <ele>293.60000610352</ele>
        <time>2011-04-03T13:50:52.000Z</time>
      </trkpt>
      <trkpt lat="43.70394" lon="7.08195">
        <ele>293.79998779297</ele>
        <time>2011-04-03T13:50:53.000Z</time>
      </trkpt>
      <trkpt lat="43.70389" lon="7.08199">
        <ele>295</ele>
        <time>2011-04-03T13:51:00.000Z</time>
      </trkpt>
      <trkpt lat="43.70384" lon="7.08205">
        <ele>296.39999389648</ele>
        <time>2011-04-03T13:51:08.000Z</time>
      </trkpt>
      <trkpt lat="43.70377" lon="7.08205">
        <ele>296.79998779297</ele>
        <time>2011-04-03T13:51:14.000Z</time>
      </trkpt>
      <trkpt lat="43.70378" lon="7.0821">
        <ele>297.79998779297</ele>
        <time>2011-04-03T13:51:18.000Z</time>
      </trkpt>
      <trkpt lat="43.70379" lon="7.08216">
        <ele>298.79998779297</ele>
        <time>2011-04-03T13:51:22.000Z</time>
      </trkpt>
      <trkpt lat="43.7038" lon="7.08218">
        <ele>299.20001220703</ele>
        <time>2011-04-03T13:51:28.000Z</time>
      </trkpt>
      <trkpt lat="43.7038" lon="7.08226">
        <ele>300.60000610352</ele>
        <time>2011-04-03T13:51:33.000Z</time>
      </trkpt>
      <trkpt lat="43.70368" lon="7.08231">
        <ele>302.20001220703</ele>
        <time>2011-04-03T13:51:58.000Z</time>
      </trkpt>
      <trkpt lat="43.70368" lon="7.08229">
        <ele>302</ele>
        <time>2011-04-03T13:52:03.000Z</time>
      </trkpt>
      <trkpt lat="43.70367" lon="7.08232">
        <ele>302.39999389648</ele>
        <time>2011-04-03T13:52:14.000Z</time>
      </trkpt>
      <trkpt lat="43.70364" lon="7.08228">
        <ele>301.79998779297</ele>
        <time>2011-04-03T13:52:29.000Z</time>
      </trkpt>
      <trkpt lat="43.70372" lon="7.08228">
        <ele>301.60000610352</ele>
        <time>2011-04-03T13:53:12.000Z</time>
      </trkpt>
      <trkpt lat="43.70372" lon="7.08234">
        <ele>302.60000610352</ele>
        <time>2011-04-03T13:53:53.000Z</time>
      </trkpt>
      <trkpt lat="43.70369" lon="7.08237">
        <ele>303.20001220703</ele>
        <time>2011-04-03T13:53:59.000Z</time>
      </trkpt>
      <trkpt lat="43.70367" lon="7.08239">
        <ele>303.60000610352</ele>
        <time>2011-04-03T13:54:01.000Z</time>
      </trkpt>
      <trkpt lat="43.70364" lon="7.08245">
        <ele>304.79998779297</ele>
        <time>2011-04-03T13:54:06.000Z</time>
      </trkpt>
      <trkpt lat="43.70363" lon="7.08251">
        <ele>306</ele>
        <time>2011-04-03T13:54:11.000Z</time>
      </trkpt>
      <trkpt lat="43.70359" lon="7.08256">
        <ele>306.60000610352</ele>
        <time>2011-04-03T13:54:16.000Z</time>
      </trkpt>
      <trkpt lat="43.70359" lon="7.08261">
        <ele>307.20001220703</ele>
        <time>2011-04-03T13:54:19.000Z</time>
      </trkpt>
      <trkpt lat="43.70359" lon="7.0827">
        <ele>308.20001220703</ele>
        <time>2011-04-03T13:54:25.000Z</time>
      </trkpt>
      <trkpt lat="43.70357" lon="7.08287">
        <ele>310</ele>
        <time>2011-04-03T13:54:34.000Z</time>
      </trkpt>
      <trkpt lat="43.70358" lon="7.08292">
        <ele>310.39999389648</ele>
        <time>2011-04-03T13:54:37.000Z</time>
      </trkpt>
      <trkpt lat="43.7036" lon="7.08306">
        <ele>312</ele>
        <time>2011-04-03T13:54:45.000Z</time>
      </trkpt>
      <trkpt lat="43.70361" lon="7.08309">
        <ele>312.39999389648</ele>
        <time>2011-04-03T13:54:47.000Z</time>
      </trkpt>
      <trkpt lat="43.70368" lon="7.08322">
        <ele>313.39999389648</ele>
        <time>2011-04-03T13:54:56.000Z</time>
      </trkpt>
      <trkpt lat="43.7037" lon="7.08328">
        <ele>314</ele>
        <time>2011-04-03T13:54:59.000Z</time>
      </trkpt>
      <trkpt lat="43.70368" lon="7.08337">
        <ele>314.79998779297</ele>
        <time>2011-04-03T13:55:04.000Z</time>
      </trkpt>
      <trkpt lat="43.70358" lon="7.08352">
        <ele>316</ele>
        <time>2011-04-03T13:55:15.000Z</time>
      </trkpt>
      <trkpt lat="43.70353" lon="7.08359">
        <ele>316.60000610352</ele>
        <time>2011-04-03T13:55:23.000Z</time>
      </trkpt>
      <trkpt lat="43.70346" lon="7.08366">
        <ele>317.20001220703</ele>
        <time>2011-04-03T13:55:28.000Z</time>
      </trkpt>
      <trkpt lat="43.70346" lon="7.08379">
        <ele>317.79998779297</ele>
        <time>2011-04-03T13:55:33.000Z</time>
      </trkpt>
      <trkpt lat="43.70346" lon="7.08381">
        <ele>318</ele>
        <time>2011-04-03T13:55:34.000Z</time>
      </trkpt>
      <trkpt lat="43.70343" lon="7.08403">
        <ele>319.20001220703</ele>
        <time>2011-04-03T13:55:41.000Z</time>
      </trkpt>
      <trkpt lat="43.70334" lon="7.08419">
        <ele>320</ele>
        <time>2011-04-03T13:55:46.000Z</time>
      </trkpt>
      <trkpt lat="43.70324" lon="7.08427">
        <ele>320.60000610352</ele>
        <time>2011-04-03T13:55:51.000Z</time>
      </trkpt>
      <trkpt lat="43.70308" lon="7.08434">
        <ele>321.79998779297</ele>
        <time>2011-04-03T13:55:58.000Z</time>
      </trkpt>
      <trkpt lat="43.70296" lon="7.08443">
        <ele>322.39999389648</ele>
        <time>2011-04-03T13:56:03.000Z</time>
      </trkpt>
      <trkpt lat="43.70287" lon="7.08451">
        <ele>323</ele>
        <time>2011-04-03T13:56:07.000Z</time>
      </trkpt>
      <trkpt lat="43.70273" lon="7.08458">
        <ele>323.60000610352</ele>
        <time>2011-04-03T13:56:12.000Z</time>
      </trkpt>
      <trkpt lat="43.70257" lon="7.08471">
        <ele>324</ele>
        <time>2011-04-03T13:56:18.000Z</time>
      </trkpt>
      <trkpt lat="43.70238" lon="7.08481">
        <ele>323.60000610352</ele>
        <time>2011-04-03T13:56:24.000Z</time>
      </trkpt>
      <trkpt lat="43.70214" lon="7.08492">
        <ele>322.60000610352</ele>
        <time>2011-04-03T13:56:29.000Z</time>
      </trkpt>
      <trkpt lat="43.70209" lon="7.08494">
        <ele>322.39999389648</ele>
        <time>2011-04-03T13:56:30.000Z</time>
      </trkpt>
      <trkpt lat="43.70198" lon="7.08498">
        <ele>321.79998779297</ele>
        <time>2011-04-03T13:56:32.000Z</time>
      </trkpt>
      <trkpt lat="43.70181" lon="7.08506">
        <ele>320.60000610352</ele>
        <time>2011-04-03T13:56:35.000Z</time>
      </trkpt>
      <trkpt lat="43.70157" lon="7.08513">
        <ele>319.20001220703</ele>
        <time>2011-04-03T13:56:40.000Z</time>
      </trkpt>
      <trkpt lat="43.70128" lon="7.08511">
        <ele>318.39999389648</ele>
        <time>2011-04-03T13:56:46.000Z</time>
      </trkpt>
      <trkpt lat="43.70108" lon="7.08509">
        <ele>317.79998779297</ele>
        <time>2011-04-03T13:56:50.000Z</time>
      </trkpt>
      <trkpt lat="43.7009" lon="7.08497">
        <ele>318.60000610352</ele>
        <time>2011-04-03T13:56:54.000Z</time>
      </trkpt>
      <trkpt lat="43.70088" lon="7.08494">
        <ele>319</ele>
        <time>2011-04-03T13:56:55.000Z</time>
      </trkpt>
      <trkpt lat="43.70076" lon="7.08479">
        <ele>320.60000610352</ele>
        <time>2011-04-03T13:57:02.000Z</time>
      </trkpt>
      <trkpt lat="43.70073" lon="7.08491">
        <ele>318.20001220703</ele>
        <time>2011-04-03T13:57:06.000Z</time>
      </trkpt>
      <trkpt lat="43.70072" lon="7.08513">
        <ele>315.39999389648</ele>
        <time>2011-04-03T13:57:09.000Z</time>
      </trkpt>
      <trkpt lat="43.70071" lon="7.08522">
        <ele>314.39999389648</ele>
        <time>2011-04-03T13:57:10.000Z</time>
      </trkpt>
      <trkpt lat="43.70065" lon="7.08551">
        <ele>310.39999389648</ele>
        <time>2011-04-03T13:57:14.000Z</time>
      </trkpt>
      <trkpt lat="43.70053" lon="7.08572">
        <ele>306.79998779297</ele>
        <time>2011-04-03T13:57:18.000Z</time>
      </trkpt>
      <trkpt lat="43.70033" lon="7.08599">
        <ele>302.39999389648</ele>
        <time>2011-04-03T13:57:24.000Z</time>
      </trkpt>
      <trkpt lat="43.70026" lon="7.08607">
        <ele>301</ele>
        <time>2011-04-03T13:57:26.000Z</time>
      </trkpt>
      <trkpt lat="43.70007" lon="7.0862">
        <ele>298.39999389648</ele>
        <time>2011-04-03T13:57:32.000Z</time>
      </trkpt>
      <trkpt lat="43.7" lon="7.08614">
        <ele>298</ele>
        <time>2011-04-03T13:57:35.000Z</time>
      </trkpt>
      <trkpt lat="43.69986" lon="7.08617">
        <ele>296.39999389648</ele>
        <time>2011-04-03T13:57:38.000Z</time>
      </trkpt>
      <trkpt lat="43.69981" lon="7.08621">
        <ele>295.79998779297</ele>
        <time>2011-04-03T13:57:39.000Z</time>
      </trkpt>
      <trkpt lat="43.6997" lon="7.08628">
        <ele>294.20001220703</ele>
        <time>2011-04-03T13:57:41.000Z</time>
      </trkpt>
      <trkpt lat="43.69953" lon="7.08644">
        <ele>291.60000610352</ele>
        <time>2011-04-03T13:57:46.000Z</time>
      </trkpt>
      <trkpt lat="43.69953" lon="7.08658">
        <ele>290.79998779297</ele>
        <time>2011-04-03T13:57:50.000Z</time>
      </trkpt>
      <trkpt lat="43.6995" lon="7.08669">
        <ele>290</ele>
        <time>2011-04-03T13:57:53.000Z</time>
      </trkpt>
      <trkpt lat="43.69947" lon="7.08676">
        <ele>289.60000610352</ele>
        <time>2011-04-03T13:57:55.000Z</time>
      </trkpt>
      <trkpt lat="43.6994" lon="7.08694">
        <ele>288.20001220703</ele>
        <time>2011-04-03T13:58:00.000Z</time>
      </trkpt>
      <trkpt lat="43.69926" lon="7.08706">
        <ele>286.39999389648</ele>
        <time>2011-04-03T13:58:03.000Z</time>
      </trkpt>
      <trkpt lat="43.69915" lon="7.08715">
        <ele>285</ele>
        <time>2011-04-03T13:58:05.000Z</time>
      </trkpt>
      <trkpt lat="43.69892" lon="7.08732">
        <ele>281.60000610352</ele>
        <time>2011-04-03T13:58:09.000Z</time>
      </trkpt>
      <trkpt lat="43.6988" lon="7.08734">
        <ele>280.20001220703</ele>
        <time>2011-04-03T13:58:13.000Z</time>
      </trkpt>
      <trkpt lat="43.6988" lon="7.08734">
        <ele>280.20001220703</ele>
        <time>2011-04-03T13:58:17.000Z</time>
      </trkpt>
      <trkpt lat="43.69881" lon="7.08734">
        <ele>280.20001220703</ele>
        <time>2011-04-03T13:58:24.000Z</time>
      </trkpt>
      <trkpt lat="43.69881" lon="7.08738">
        <ele>280</ele>
        <time>2011-04-03T13:58:44.000Z</time>
      </trkpt>
      <trkpt lat="43.69882" lon="7.08737">
        <ele>280.20001220703</ele>
        <time>2011-04-03T13:58:57.000Z</time>
      </trkpt>
      <trkpt lat="43.69883" lon="7.08736">
        <ele>280.39999389648</ele>
        <time>2011-04-03T13:59:22.000Z</time>
      </trkpt>
      <trkpt lat="43.69883" lon="7.08738">
        <ele>280.39999389648</ele>
        <time>2011-04-03T13:59:27.000Z</time>
      </trkpt>
      <trkpt lat="43.69882" lon="7.08738">
        <ele>280.20001220703</ele>
        <time>2011-04-03T13:59:29.000Z</time>
      </trkpt>
      <trkpt lat="43.69876" lon="7.08727">
        <ele>280</ele>
        <time>2011-04-03T13:59:33.000Z</time>
      </trkpt>
      <trkpt lat="43.69861" lon="7.08707">
        <ele>279.20001220703</ele>
        <time>2011-04-03T13:59:37.000Z</time>
      </trkpt>
      <trkpt lat="43.69843" lon="7.08683">
        <ele>278.20001220703</ele>
        <time>2011-04-03T13:59:41.000Z</time>
      </trkpt>
      <trkpt lat="43.69814" lon="7.08668">
        <ele>275.79998779297</ele>
        <time>2011-04-03T13:59:46.000Z</time>
      </trkpt>
      <trkpt lat="43.69808" lon="7.08664">
        <ele>275.39999389648</ele>
        <time>2011-04-03T13:59:47.000Z</time>
      </trkpt>
      <trkpt lat="43.69795" lon="7.08659">
        <ele>274.20001220703</ele>
        <time>2011-04-03T13:59:49.000Z</time>
      </trkpt>
      <trkpt lat="43.69782" lon="7.08653">
        <ele>273.20001220703</ele>
        <time>2011-04-03T13:59:51.000Z</time>
      </trkpt>
      <trkpt lat="43.69757" lon="7.08623">
        <ele>272.39999389648</ele>
        <time>2011-04-03T13:59:56.000Z</time>
      </trkpt>
      <trkpt lat="43.69734" lon="7.08595">
        <ele>271.60000610352</ele>
        <time>2011-04-03T14:00:01.000Z</time>
      </trkpt>
      <trkpt lat="43.69726" lon="7.08582">
        <ele>271.39999389648</ele>
        <time>2011-04-03T14:00:03.000Z</time>
      </trkpt>
      <trkpt lat="43.69717" lon="7.08567">
        <ele>271.20001220703</ele>
        <time>2011-04-03T14:00:05.000Z</time>
      </trkpt>
      <trkpt lat="43.69703" lon="7.08547">
        <ele>270.79998779297</ele>
        <time>2011-04-03T14:00:08.000Z</time>
      </trkpt>
      <trkpt lat="43.69665" lon="7.08516">
        <ele>267.79998779297</ele>
        <time>2011-04-03T14:00:14.000Z</time>
      </trkpt>
      <trkpt lat="43.69619" lon="7.08465">
        <ele>264.79998779297</ele>
        <time>2011-04-03T14:00:22.000Z</time>
      </trkpt>
      <trkpt lat="43.69614" lon="7.08458">
        <ele>264.60000610352</ele>
        <time>2011-04-03T14:00:23.000Z</time>
      </trkpt>
      <trkpt lat="43.69601" lon="7.08427">
        <ele>265.79998779297</ele>
        <time>2011-04-03T14:00:27.000Z</time>
      </trkpt>
      <trkpt lat="43.69589" lon="7.08398">
        <ele>266.60000610352</ele>
        <time>2011-04-03T14:00:31.000Z</time>
      </trkpt>
      <trkpt lat="43.69573" lon="7.08378">
        <ele>267.20001220703</ele>
        <time>2011-04-03T14:00:35.000Z</time>
      </trkpt>
      <trkpt lat="43.69565" lon="7.0837">
        <ele>267.39999389648</ele>
        <time>2011-04-03T14:00:37.000Z</time>
      </trkpt>
      <trkpt lat="43.69549" lon="7.08357">
        <ele>267.79998779297</ele>
        <time>2011-04-03T14:00:42.000Z</time>
      </trkpt>
      <trkpt lat="43.69542" lon="7.08351">
        <ele>267.79998779297</ele>
        <time>2011-04-03T14:00:44.000Z</time>
      </trkpt>
      <trkpt lat="43.6952" lon="7.08337">
        <ele>267.79998779297</ele>
        <time>2011-04-03T14:00:50.000Z</time>
      </trkpt>
      <trkpt lat="43.69501" lon="7.0833">
        <ele>267.20001220703</ele>
        <time>2011-04-03T14:00:55.000Z</time>
      </trkpt>
      <trkpt lat="43.69483" lon="7.08337">
        <ele>265.60000610352</ele>
        <time>2011-04-03T14:01:00.000Z</time>
      </trkpt>
      <trkpt lat="43.69474" lon="7.08349">
        <ele>264.39999389648</ele>
        <time>2011-04-03T14:01:03.000Z</time>
      </trkpt>
      <trkpt lat="43.69458" lon="7.08354">
        <ele>263.60000610352</ele>
        <time>2011-04-03T14:01:07.000Z</time>
      </trkpt>
      <trkpt lat="43.6945" lon="7.08353">
        <ele>263.39999389648</ele>
        <time>2011-04-03T14:01:09.000Z</time>
      </trkpt>
      <trkpt lat="43.69429" lon="7.08356">
        <ele>262.60000610352</ele>
        <time>2011-04-03T14:01:15.000Z</time>
      </trkpt>
      <trkpt lat="43.69425" lon="7.08348">
        <ele>262.39999389648</ele>
        <time>2011-04-03T14:01:18.000Z</time>
      </trkpt>
      <trkpt lat="43.69413" lon="7.08325">
        <ele>262</ele>
        <time>2011-04-03T14:01:24.000Z</time>
      </trkpt>
      <trkpt lat="43.69393" lon="7.08306">
        <ele>260.39999389648</ele>
        <time>2011-04-03T14:01:29.000Z</time>
      </trkpt>
      <trkpt lat="43.69373" lon="7.0827">
        <ele>259</ele>
        <time>2011-04-03T14:01:34.000Z</time>
      </trkpt>
      <trkpt lat="43.6935" lon="7.08259">
        <ele>256</ele>
        <time>2011-04-03T14:01:38.000Z</time>
      </trkpt>
      <trkpt lat="43.69331" lon="7.08256">
        <ele>253.60000610352</ele>
        <time>2011-04-03T14:01:42.000Z</time>
      </trkpt>
      <trkpt lat="43.69303" lon="7.08256">
        <ele>249</ele>
        <time>2011-04-03T14:01:48.000Z</time>
      </trkpt>
      <trkpt lat="43.69291" lon="7.08239">
        <ele>247.39999389648</ele>
        <time>2011-04-03T14:01:52.000Z</time>
      </trkpt>
      <trkpt lat="43.69285" lon="7.08225">
        <ele>247.19999694824</ele>
        <time>2011-04-03T14:01:55.000Z</time>
      </trkpt>
      <trkpt lat="43.69276" lon="7.08213">
        <ele>246</ele>
        <time>2011-04-03T14:01:58.000Z</time>
      </trkpt>
      <trkpt lat="43.6926" lon="7.0819">
        <ele>244</ele>
        <time>2011-04-03T14:02:04.000Z</time>
      </trkpt>
      <trkpt lat="43.69243" lon="7.08171">
        <ele>241.19999694824</ele>
        <time>2011-04-03T14:02:11.000Z</time>
      </trkpt>
      <trkpt lat="43.69234" lon="7.08156">
        <ele>238.80000305176</ele>
        <time>2011-04-03T14:02:15.000Z</time>
      </trkpt>
      <trkpt lat="43.69231" lon="7.08145">
        <ele>237.80000305176</ele>
        <time>2011-04-03T14:02:17.000Z</time>
      </trkpt>
      <trkpt lat="43.69223" lon="7.08104">
        <ele>234.60000610352</ele>
        <time>2011-04-03T14:02:22.000Z</time>
      </trkpt>
      <trkpt lat="43.69227" lon="7.08065">
        <ele>233</ele>
        <time>2011-04-03T14:02:26.000Z</time>
      </trkpt>
      <trkpt lat="43.69237" lon="7.08011">
        <ele>229.60000610352</ele>
        <time>2011-04-03T14:02:33.000Z</time>
      </trkpt>
      <trkpt lat="43.69237" lon="7.08">
        <ele>228.39999389648</ele>
        <time>2011-04-03T14:02:35.000Z</time>
      </trkpt>
      <trkpt lat="43.6924" lon="7.07985">
        <ele>226.80000305176</ele>
        <time>2011-04-03T14:02:40.000Z</time>
      </trkpt>
      <trkpt lat="43.69233" lon="7.07962">
        <ele>223.80000305176</ele>
        <time>2011-04-03T14:02:45.000Z</time>
      </trkpt>
      <trkpt lat="43.69229" lon="7.07955">
        <ele>223</ele>
        <time>2011-04-03T14:02:47.000Z</time>
      </trkpt>
      <trkpt lat="43.69219" lon="7.07952">
        <ele>223</ele>
        <time>2011-04-03T14:02:51.000Z</time>
      </trkpt>
      <trkpt lat="43.69193" lon="7.07948">
        <ele>223.39999389648</ele>
        <time>2011-04-03T14:02:57.000Z</time>
      </trkpt>
      <trkpt lat="43.69179" lon="7.0795">
        <ele>223.80000305176</ele>
        <time>2011-04-03T14:03:00.000Z</time>
      </trkpt>
      <trkpt lat="43.69146" lon="7.07955">
        <ele>221</ele>
        <time>2011-04-03T14:03:07.000Z</time>
      </trkpt>
      <trkpt lat="43.69137" lon="7.07956">
        <ele>219.80000305176</ele>
        <time>2011-04-03T14:03:09.000Z</time>
      </trkpt>
      <trkpt lat="43.69123" lon="7.07947">
        <ele>218.60000610352</ele>
        <time>2011-04-03T14:03:14.000Z</time>
      </trkpt>
      <trkpt lat="43.69108" lon="7.07933">
        <ele>217.60000610352</ele>
        <time>2011-04-03T14:03:18.000Z</time>
      </trkpt>
      <trkpt lat="43.69093" lon="7.07921">
        <ele>216</ele>
        <time>2011-04-03T14:03:22.000Z</time>
      </trkpt>
      <trkpt lat="43.69078" lon="7.0791">
        <ele>212.80000305176</ele>
        <time>2011-04-03T14:03:28.000Z</time>
      </trkpt>
      <trkpt lat="43.69066" lon="7.079">
        <ele>208.39999389648</ele>
        <time>2011-04-03T14:03:34.000Z</time>
      </trkpt>
      <trkpt lat="43.69053" lon="7.07889">
        <ele>204.19999694824</ele>
        <time>2011-04-03T14:03:38.000Z</time>
      </trkpt>
      <trkpt lat="43.69042" lon="7.07883">
        <ele>201</ele>
        <time>2011-04-03T14:03:42.000Z</time>
      </trkpt>
      <trkpt lat="43.69029" lon="7.07874">
        <ele>197.39999389648</ele>
        <time>2011-04-03T14:03:48.000Z</time>
      </trkpt>
      <trkpt lat="43.69028" lon="7.07868">
        <ele>196.39999389648</ele>
        <time>2011-04-03T14:03:50.000Z</time>
      </trkpt>
      <trkpt lat="43.69017" lon="7.07866">
        <ele>194</ele>
        <time>2011-04-03T14:03:55.000Z</time>
      </trkpt>
      <trkpt lat="43.69014" lon="7.07868">
        <ele>193.39999389648</ele>
        <time>2011-04-03T14:03:56.000Z</time>
      </trkpt>
      <trkpt lat="43.69008" lon="7.07871">
        <ele>192.39999389648</ele>
        <time>2011-04-03T14:03:58.000Z</time>
      </trkpt>
      <trkpt lat="43.68996" lon="7.07871">
        <ele>190.60000610352</ele>
        <time>2011-04-03T14:04:02.000Z</time>
      </trkpt>
      <trkpt lat="43.68975" lon="7.07874">
        <ele>191</ele>
        <time>2011-04-03T14:04:07.000Z</time>
      </trkpt>
      <trkpt lat="43.68972" lon="7.07854">
        <ele>190.19999694824</ele>
        <time>2011-04-03T14:04:11.000Z</time>
      </trkpt>
      <trkpt lat="43.68973" lon="7.07848">
        <ele>189.80000305176</ele>
        <time>2011-04-03T14:04:12.000Z</time>
      </trkpt>
      <trkpt lat="43.68971" lon="7.07826">
        <ele>188.39999389648</ele>
        <time>2011-04-03T14:04:15.000Z</time>
      </trkpt>
      <trkpt lat="43.68974" lon="7.07813">
        <ele>186.39999389648</ele>
        <time>2011-04-03T14:04:19.000Z</time>
      </trkpt>
      <trkpt lat="43.6898" lon="7.07783">
        <ele>181.60000610352</ele>
        <time>2011-04-03T14:04:26.000Z</time>
      </trkpt>
      <trkpt lat="43.68989" lon="7.07755">
        <ele>176</ele>
        <time>2011-04-03T14:04:31.000Z</time>
      </trkpt>
      <trkpt lat="43.68994" lon="7.07738">
        <ele>170.80000305176</ele>
        <time>2011-04-03T14:04:35.000Z</time>
      </trkpt>
      <trkpt lat="43.68993" lon="7.07732">
        <ele>169.19999694824</ele>
        <time>2011-04-03T14:04:37.000Z</time>
      </trkpt>
      <trkpt lat="43.68988" lon="7.07714">
        <ele>165.80000305176</ele>
        <time>2011-04-03T14:04:42.000Z</time>
      </trkpt>
      <trkpt lat="43.68988" lon="7.07697">
        <ele>161.60000610352</ele>
        <time>2011-04-03T14:04:47.000Z</time>
      </trkpt>
      <trkpt lat="43.6899" lon="7.07686">
        <ele>157.80000305176</ele>
        <time>2011-04-03T14:04:51.000Z</time>
      </trkpt>
      <trkpt lat="43.6899" lon="7.07672">
        <ele>153.80000305176</ele>
        <time>2011-04-03T14:04:57.000Z</time>
      </trkpt>
      <trkpt lat="43.68994" lon="7.07672">
        <ele>152.39999389648</ele>
        <time>2011-04-03T14:05:04.000Z</time>
      </trkpt>
      <trkpt lat="43.68998" lon="7.07677">
        <ele>152.60000610352</ele>
        <time>2011-04-03T14:05:08.000Z</time>
      </trkpt>
      <trkpt lat="43.69001" lon="7.07679">
        <ele>152.19999694824</ele>
        <time>2011-04-03T14:05:13.000Z</time>
      </trkpt>
      <trkpt lat="43.69007" lon="7.0766">
        <ele>144.60000610352</ele>
        <time>2011-04-03T14:05:18.000Z</time>
      </trkpt>
      <trkpt lat="43.69006" lon="7.07654">
        <ele>142.60000610352</ele>
        <time>2011-04-03T14:05:19.000Z</time>
      </trkpt>
      <trkpt lat="43.69005" lon="7.0762">
        <ele>129.80000305176</ele>
        <time>2011-04-03T14:05:26.000Z</time>
      </trkpt>
      <trkpt lat="43.68999" lon="7.07593">
        <ele>122</ele>
        <time>2011-04-03T14:05:31.000Z</time>
      </trkpt>
      <trkpt lat="43.68993" lon="7.07583">
        <ele>120.19999694824</ele>
        <time>2011-04-03T14:05:33.000Z</time>
      </trkpt>
      <trkpt lat="43.68985" lon="7.07556">
        <ele>112.59999847412</ele>
        <time>2011-04-03T14:05:39.000Z</time>
      </trkpt>
      <trkpt lat="43.6898" lon="7.07552">
        <ele>112.40000152588</ele>
        <time>2011-04-03T14:05:41.000Z</time>
      </trkpt>
      <trkpt lat="43.68965" lon="7.07533">
        <ele>109.59999847412</ele>
        <time>2011-04-03T14:05:47.000Z</time>
      </trkpt>
      <trkpt lat="43.68949" lon="7.07522">
        <ele>109.59999847412</ele>
        <time>2011-04-03T14:05:52.000Z</time>
      </trkpt>
      <trkpt lat="43.68931" lon="7.07514">
        <ele>110.40000152588</ele>
        <time>2011-04-03T14:05:56.000Z</time>
      </trkpt>
      <trkpt lat="43.68924" lon="7.07508">
        <ele>109.80000305176</ele>
        <time>2011-04-03T14:05:58.000Z</time>
      </trkpt>
      <trkpt lat="43.68907" lon="7.07497">
        <ele>108</ele>
        <time>2011-04-03T14:06:04.000Z</time>
      </trkpt>
      <trkpt lat="43.689" lon="7.07483">
        <ele>103.59999847412</ele>
        <time>2011-04-03T14:06:08.000Z</time>
      </trkpt>
      <trkpt lat="43.68887" lon="7.07465">
        <ele>98.400001525879</ele>
        <time>2011-04-03T14:06:13.000Z</time>
      </trkpt>
      <trkpt lat="43.6888" lon="7.07446">
        <ele>92.400001525879</ele>
        <time>2011-04-03T14:06:17.000Z</time>
      </trkpt>
      <trkpt lat="43.68874" lon="7.0743">
        <ele>86.800003051758</ele>
        <time>2011-04-03T14:06:20.000Z</time>
      </trkpt>
      <trkpt lat="43.68865" lon="7.07408">
        <ele>81.400001525879</ele>
        <time>2011-04-03T14:06:25.000Z</time>
      </trkpt>
      <trkpt lat="43.68866" lon="7.07393">
        <ele>77.800003051758</ele>
        <time>2011-04-03T14:06:29.000Z</time>
      </trkpt>
      <trkpt lat="43.68865" lon="7.07389">
        <ele>77</ele>
        <time>2011-04-03T14:06:30.000Z</time>
      </trkpt>
      <trkpt lat="43.68852" lon="7.07347">
        <ele>69.199996948242</ele>
        <time>2011-04-03T14:06:37.000Z</time>
      </trkpt>
      <trkpt lat="43.68852" lon="7.07339">
        <ele>67.199996948242</ele>
        <time>2011-04-03T14:06:38.000Z</time>
      </trkpt>
      <trkpt lat="43.68851" lon="7.07331">
        <ele>65.599998474121</ele>
        <time>2011-04-03T14:06:40.000Z</time>
      </trkpt>
      <trkpt lat="43.68852" lon="7.07309">
        <ele>60.599998474121</ele>
        <time>2011-04-03T14:06:45.000Z</time>
      </trkpt>
      <trkpt lat="43.68843" lon="7.07298">
        <ele>59</ele>
        <time>2011-04-03T14:06:49.000Z</time>
      </trkpt>
      <trkpt lat="43.68834" lon="7.07296">
        <ele>59</ele>
        <time>2011-04-03T14:06:52.000Z</time>
      </trkpt>
      <trkpt lat="43.68816" lon="7.07298">
        <ele>57.799999237061</ele>
        <time>2011-04-03T14:06:57.000Z</time>
      </trkpt>
      <trkpt lat="43.68811" lon="7.07301">
        <ele>58</ele>
        <time>2011-04-03T14:06:59.000Z</time>
      </trkpt>
      <trkpt lat="43.68809" lon="7.07296">
        <ele>56.599998474121</ele>
        <time>2011-04-03T14:07:03.000Z</time>
      </trkpt>
      <trkpt lat="43.68803" lon="7.07295">
        <ele>55.799999237061</ele>
        <time>2011-04-03T14:07:06.000Z</time>
      </trkpt>
      <trkpt lat="43.68798" lon="7.07288">
        <ele>54</ele>
        <time>2011-04-03T14:07:14.000Z</time>
      </trkpt>
      <trkpt lat="43.68796" lon="7.07284">
        <ele>53</ele>
        <time>2011-04-03T14:07:18.000Z</time>
      </trkpt>
      <trkpt lat="43.68794" lon="7.07281">
        <ele>52.200000762939</ele>
        <time>2011-04-03T14:07:23.000Z</time>
      </trkpt>
      <trkpt lat="43.68793" lon="7.0728">
        <ele>52</ele>
        <time>2011-04-03T14:07:24.000Z</time>
      </trkpt>
      <trkpt lat="43.68784" lon="7.07271">
        <ele>49.599998474121</ele>
        <time>2011-04-03T14:07:29.000Z</time>
      </trkpt>
      <trkpt lat="43.68777" lon="7.07268">
        <ele>48.599998474121</ele>
        <time>2011-04-03T14:07:35.000Z</time>
      </trkpt>
      <trkpt lat="43.68779" lon="7.07257">
        <ele>46.799999237061</ele>
        <time>2011-04-03T14:07:38.000Z</time>
      </trkpt>
      <trkpt lat="43.68773" lon="7.07247">
        <ele>45.400001525879</ele>
        <time>2011-04-03T14:07:42.000Z</time>
      </trkpt>
      <trkpt lat="43.68746" lon="7.0724">
        <ele>44.599998474121</ele>
        <time>2011-04-03T14:07:48.000Z</time>
      </trkpt>
      <trkpt lat="43.68716" lon="7.07232">
        <ele>43.799999237061</ele>
        <time>2011-04-03T14:07:54.000Z</time>
      </trkpt>
      <trkpt lat="43.68662" lon="7.07216">
        <ele>43.799999237061</ele>
        <time>2011-04-03T14:08:05.000Z</time>
      </trkpt>
      <trkpt lat="43.68622" lon="7.07205">
        <ele>47</ele>
        <time>2011-04-03T14:08:13.000Z</time>
      </trkpt>
      <trkpt lat="43.68592" lon="7.07195">
        <ele>50.799999237061</ele>
        <time>2011-04-03T14:08:19.000Z</time>
      </trkpt>
      <trkpt lat="43.68555" lon="7.07189">
        <ele>57.200000762939</ele>
        <time>2011-04-03T14:08:26.000Z</time>
      </trkpt>
      <trkpt lat="43.6852" lon="7.07209">
        <ele>58</ele>
        <time>2011-04-03T14:08:33.000Z</time>
      </trkpt>
      <trkpt lat="43.68486" lon="7.07235">
        <ele>55.799999237061</ele>
        <time>2011-04-03T14:08:40.000Z</time>
      </trkpt>
      <trkpt lat="43.68461" lon="7.07254">
        <ele>55.799999237061</ele>
        <time>2011-04-03T14:08:45.000Z</time>
      </trkpt>
      <trkpt lat="43.68431" lon="7.07283">
        <ele>55.799999237061</ele>
        <time>2011-04-03T14:08:52.000Z</time>
      </trkpt>
      <trkpt lat="43.68399" lon="7.07322">
        <ele>52.200000762939</ele>
        <time>2011-04-03T14:09:00.000Z</time>
      </trkpt>
      <trkpt lat="43.68368" lon="7.0735">
        <ele>53.599998474121</ele>
        <time>2011-04-03T14:09:07.000Z</time>
      </trkpt>
      <trkpt lat="43.68359" lon="7.07358">
        <ele>54.200000762939</ele>
        <time>2011-04-03T14:09:09.000Z</time>
      </trkpt>
      <trkpt lat="43.6835" lon="7.07348">
        <ele>56.400001525879</ele>
        <time>2011-04-03T14:09:13.000Z</time>
      </trkpt>
      <trkpt lat="43.68358" lon="7.0734">
        <ele>56.200000762939</ele>
        <time>2011-04-03T14:09:15.000Z</time>
      </trkpt>
      <trkpt lat="43.68389" lon="7.07317">
        <ele>54.799999237061</ele>
        <time>2011-04-03T14:09:23.000Z</time>
      </trkpt>
      <trkpt lat="43.68414" lon="7.07285">
        <ele>57.599998474121</ele>
        <time>2011-04-03T14:09:33.000Z</time>
      </trkpt>
      <trkpt lat="43.68432" lon="7.07252">
        <ele>61.599998474121</ele>
        <time>2011-04-03T14:09:42.000Z</time>
      </trkpt>
      <trkpt lat="43.68447" lon="7.07226">
        <ele>65</ele>
        <time>2011-04-03T14:09:50.000Z</time>
      </trkpt>
      <trkpt lat="43.68468" lon="7.07199">
        <ele>68.400001525879</ele>
        <time>2011-04-03T14:09:59.000Z</time>
      </trkpt>
      <trkpt lat="43.68485" lon="7.07183">
        <ele>70.400001525879</ele>
        <time>2011-04-03T14:10:06.000Z</time>
      </trkpt>
      <trkpt lat="43.68507" lon="7.0716">
        <ele>74.400001525879</ele>
        <time>2011-04-03T14:10:16.000Z</time>
      </trkpt>
      <trkpt lat="43.68533" lon="7.07135">
        <ele>81</ele>
        <time>2011-04-03T14:10:27.000Z</time>
      </trkpt>
      <trkpt lat="43.68557" lon="7.07122">
        <ele>83.400001525879</ele>
        <time>2011-04-03T14:10:37.000Z</time>
      </trkpt>
      <trkpt lat="43.68576" lon="7.07118">
        <ele>82.199996948242</ele>
        <time>2011-04-03T14:10:44.000Z</time>
      </trkpt>
      <trkpt lat="43.686" lon="7.07111">
        <ele>80.800003051758</ele>
        <time>2011-04-03T14:10:53.000Z</time>
      </trkpt>
      <trkpt lat="43.68631" lon="7.07096">
        <ele>80.199996948242</ele>
        <time>2011-04-03T14:11:04.000Z</time>
      </trkpt>
      <trkpt lat="43.68652" lon="7.07079">
        <ele>82.599998474121</ele>
        <time>2011-04-03T14:11:12.000Z</time>
      </trkpt>
      <trkpt lat="43.68675" lon="7.07063">
        <ele>88.400001525879</ele>
        <time>2011-04-03T14:11:21.000Z</time>
      </trkpt>
      <trkpt lat="43.68695" lon="7.07054">
        <ele>89</ele>
        <time>2011-04-03T14:11:29.000Z</time>
      </trkpt>
      <trkpt lat="43.68725" lon="7.07041">
        <ele>88.599998474121</ele>
        <time>2011-04-03T14:11:40.000Z</time>
      </trkpt>
      <trkpt lat="43.68751" lon="7.07036">
        <ele>84</ele>
        <time>2011-04-03T14:11:49.000Z</time>
      </trkpt>
      <trkpt lat="43.68773" lon="7.07029">
        <ele>79.800003051758</ele>
        <time>2011-04-03T14:11:57.000Z</time>
      </trkpt>
      <trkpt lat="43.68793" lon="7.07015">
        <ele>78</ele>
        <time>2011-04-03T14:12:05.000Z</time>
      </trkpt>
      <trkpt lat="43.68798" lon="7.06997">
        <ele>81.400001525879</ele>
        <time>2011-04-03T14:12:10.000Z</time>
      </trkpt>
      <trkpt lat="43.68797" lon="7.06973">
        <ele>88.400001525879</ele>
        <time>2011-04-03T14:12:16.000Z</time>
      </trkpt>
      <trkpt lat="43.68798" lon="7.06945">
        <ele>95.199996948242</ele>
        <time>2011-04-03T14:12:23.000Z</time>
      </trkpt>
      <trkpt lat="43.68807" lon="7.06926">
        <ele>94.400001525879</ele>
        <time>2011-04-03T14:12:29.000Z</time>
      </trkpt>
      <trkpt lat="43.68817" lon="7.06898">
        <ele>91.199996948242</ele>
        <time>2011-04-03T14:12:37.000Z</time>
      </trkpt>
      <trkpt lat="43.68818" lon="7.06866">
        <ele>93.800003051758</ele>
        <time>2011-04-03T14:12:45.000Z</time>
      </trkpt>
      <trkpt lat="43.6882" lon="7.0684">
        <ele>95.199996948242</ele>
        <time>2011-04-03T14:12:52.000Z</time>
      </trkpt>
      <trkpt lat="43.68828" lon="7.06806">
        <ele>87</ele>
        <time>2011-04-03T14:13:01.000Z</time>
      </trkpt>
      <trkpt lat="43.68829" lon="7.0678">
        <ele>83</ele>
        <time>2011-04-03T14:13:08.000Z</time>
      </trkpt>
      <trkpt lat="43.68821" lon="7.06769">
        <ele>86.400001525879</ele>
        <time>2011-04-03T14:13:12.000Z</time>
      </trkpt>
      <trkpt lat="43.68809" lon="7.06769">
        <ele>94</ele>
        <time>2011-04-03T14:13:16.000Z</time>
      </trkpt>
      <trkpt lat="43.68785" lon="7.06774">
        <ele>109.40000152588</ele>
        <time>2011-04-03T14:13:24.000Z</time>
      </trkpt>
      <trkpt lat="43.68769" lon="7.06764">
        <ele>117.19999694824</ele>
        <time>2011-04-03T14:13:30.000Z</time>
      </trkpt>
      <trkpt lat="43.68759" lon="7.06741">
        <ele>118.59999847412</ele>
        <time>2011-04-03T14:13:37.000Z</time>
      </trkpt>
      <trkpt lat="43.68754" lon="7.06716">
        <ele>115.59999847412</ele>
        <time>2011-04-03T14:13:44.000Z</time>
      </trkpt>
      <trkpt lat="43.68743" lon="7.06693">
        <ele>116.19999694824</ele>
        <time>2011-04-03T14:13:51.000Z</time>
      </trkpt>
      <trkpt lat="43.68726" lon="7.06666">
        <ele>117.59999847412</ele>
        <time>2011-04-03T14:14:00.000Z</time>
      </trkpt>
      <trkpt lat="43.68716" lon="7.06642">
        <ele>117</ele>
        <time>2011-04-03T14:14:07.000Z</time>
      </trkpt>
      <trkpt lat="43.6871" lon="7.06617">
        <ele>114.59999847412</ele>
        <time>2011-04-03T14:14:14.000Z</time>
      </trkpt>
      <trkpt lat="43.68699" lon="7.06589">
        <ele>114.19999694824</ele>
        <time>2011-04-03T14:14:22.000Z</time>
      </trkpt>
      <trkpt lat="43.68685" lon="7.06572">
        <ele>117.59999847412</ele>
        <time>2011-04-03T14:14:29.000Z</time>
      </trkpt>
      <trkpt lat="43.68663" lon="7.06559">
        <ele>123.80000305176</ele>
        <time>2011-04-03T14:14:38.000Z</time>
      </trkpt>
      <trkpt lat="43.68646" lon="7.0654">
        <ele>125.80000305176</ele>
        <time>2011-04-03T14:14:46.000Z</time>
      </trkpt>
      <trkpt lat="43.68637" lon="7.06517">
        <ele>124</ele>
        <time>2011-04-03T14:14:53.000Z</time>
      </trkpt>
      <trkpt lat="43.6862" lon="7.06501">
        <ele>127</ele>
        <time>2011-04-03T14:15:00.000Z</time>
      </trkpt>
      <trkpt lat="43.68597" lon="7.06485">
        <ele>133</ele>
        <time>2011-04-03T14:15:09.000Z</time>
      </trkpt>
      <trkpt lat="43.68578" lon="7.06468">
        <ele>136.60000610352</ele>
        <time>2011-04-03T14:15:17.000Z</time>
      </trkpt>
      <trkpt lat="43.68572" lon="7.06467">
        <ele>139.19999694824</ele>
        <time>2011-04-03T14:15:19.000Z</time>
      </trkpt>
      <trkpt lat="43.6857" lon="7.06473">
        <ele>142</ele>
        <time>2011-04-03T14:15:23.000Z</time>
      </trkpt>
      <trkpt lat="43.68577" lon="7.06478">
        <ele>140</ele>
        <time>2011-04-03T14:15:27.000Z</time>
      </trkpt>
      <trkpt lat="43.68583" lon="7.06491">
        <ele>139.80000305176</ele>
        <time>2011-04-03T14:15:33.000Z</time>
      </trkpt>
      <trkpt lat="43.68584" lon="7.06493">
        <ele>139.80000305176</ele>
        <time>2011-04-03T14:15:34.000Z</time>
      </trkpt>
      <trkpt lat="43.68597" lon="7.06512">
        <ele>138.39999389648</ele>
        <time>2011-04-03T14:15:43.000Z</time>
      </trkpt>
      <trkpt lat="43.68605" lon="7.06527">
        <ele>138.39999389648</ele>
        <time>2011-04-03T14:15:50.000Z</time>
      </trkpt>
      <trkpt lat="43.6861" lon="7.06541">
        <ele>139.19999694824</ele>
        <time>2011-04-03T14:15:57.000Z</time>
      </trkpt>
      <trkpt lat="43.68611" lon="7.0655">
        <ele>140.60000610352</ele>
        <time>2011-04-03T14:16:02.000Z</time>
      </trkpt>
      <trkpt lat="43.68614" lon="7.06561">
        <ele>142</ele>
        <time>2011-04-03T14:16:08.000Z</time>
      </trkpt>
      <trkpt lat="43.68613" lon="7.06577">
        <ele>145.60000610352</ele>
        <time>2011-04-03T14:16:15.000Z</time>
      </trkpt>
      <trkpt lat="43.68613" lon="7.06591">
        <ele>147.39999389648</ele>
        <time>2011-04-03T14:16:21.000Z</time>
      </trkpt>
      <trkpt lat="43.68607" lon="7.06604">
        <ele>150</ele>
        <time>2011-04-03T14:16:27.000Z</time>
      </trkpt>
      <trkpt lat="43.68597" lon="7.06621">
        <ele>153.60000610352</ele>
        <time>2011-04-03T14:16:35.000Z</time>
      </trkpt>
      <trkpt lat="43.68585" lon="7.06643">
        <ele>156.39999389648</ele>
        <time>2011-04-03T14:16:44.000Z</time>
      </trkpt>
      <trkpt lat="43.68573" lon="7.06665">
        <ele>160.39999389648</ele>
        <time>2011-04-03T14:16:52.000Z</time>
      </trkpt>
      <trkpt lat="43.68564" lon="7.06684">
        <ele>162.39999389648</ele>
        <time>2011-04-03T14:16:58.000Z</time>
      </trkpt>
      <trkpt lat="43.68556" lon="7.067">
        <ele>164</ele>
        <time>2011-04-03T14:17:03.000Z</time>
      </trkpt>
      <trkpt lat="43.68547" lon="7.06719">
        <ele>165.19999694824</ele>
        <time>2011-04-03T14:17:10.000Z</time>
      </trkpt>
      <trkpt lat="43.68538" lon="7.06735">
        <ele>166.39999389648</ele>
        <time>2011-04-03T14:17:17.000Z</time>
      </trkpt>
      <trkpt lat="43.68528" lon="7.06749">
        <ele>167.39999389648</ele>
        <time>2011-04-03T14:17:23.000Z</time>
      </trkpt>
      <trkpt lat="43.68516" lon="7.06765">
        <ele>168.60000610352</ele>
        <time>2011-04-03T14:17:30.000Z</time>
      </trkpt>
      <trkpt lat="43.68506" lon="7.0678">
        <ele>169.19999694824</ele>
        <time>2011-04-03T14:17:37.000Z</time>
      </trkpt>
      <trkpt lat="43.68501" lon="7.06792">
        <ele>168.80000305176</ele>
        <time>2011-04-03T14:17:42.000Z</time>
      </trkpt>
      <trkpt lat="43.68494" lon="7.06805">
        <ele>168.80000305176</ele>
        <time>2011-04-03T14:17:48.000Z</time>
      </trkpt>
      <trkpt lat="43.68485" lon="7.06823">
        <ele>168.80000305176</ele>
        <time>2011-04-03T14:17:56.000Z</time>
      </trkpt>
      <trkpt lat="43.68474" lon="7.06842">
        <ele>168.60000610352</ele>
        <time>2011-04-03T14:18:04.000Z</time>
      </trkpt>
      <trkpt lat="43.68465" lon="7.06856">
        <ele>168.60000610352</ele>
        <time>2011-04-03T14:18:11.000Z</time>
      </trkpt>
      <trkpt lat="43.68457" lon="7.06869">
        <ele>168.19999694824</ele>
        <time>2011-04-03T14:18:17.000Z</time>
      </trkpt>
      <trkpt lat="43.68449" lon="7.06882">
        <ele>167.39999389648</ele>
        <time>2011-04-03T14:18:23.000Z</time>
      </trkpt>
      <trkpt lat="43.68438" lon="7.06893">
        <ele>167.39999389648</ele>
        <time>2011-04-03T14:18:29.000Z</time>
      </trkpt>
      <trkpt lat="43.68423" lon="7.06892">
        <ele>170</ele>
        <time>2011-04-03T14:18:36.000Z</time>
      </trkpt>
      <trkpt lat="43.68411" lon="7.06886">
        <ele>172.80000305176</ele>
        <time>2011-04-03T14:18:42.000Z</time>
      </trkpt>
      <trkpt lat="43.684" lon="7.06878">
        <ele>176</ele>
        <time>2011-04-03T14:18:48.000Z</time>
      </trkpt>
      <trkpt lat="43.68387" lon="7.06874">
        <ele>178.19999694824</ele>
        <time>2011-04-03T14:18:54.000Z</time>
      </trkpt>
      <trkpt lat="43.6837" lon="7.06878">
        <ele>179.80000305176</ele>
        <time>2011-04-03T14:19:02.000Z</time>
      </trkpt>
      <trkpt lat="43.68362" lon="7.0689">
        <ele>178.80000305176</ele>
        <time>2011-04-03T14:19:08.000Z</time>
      </trkpt>
      <trkpt lat="43.68349" lon="7.06906">
        <ele>178.19999694824</ele>
        <time>2011-04-03T14:19:16.000Z</time>
      </trkpt>
      <trkpt lat="43.68334" lon="7.06917">
        <ele>178.80000305176</ele>
        <time>2011-04-03T14:19:23.000Z</time>
      </trkpt>
      <trkpt lat="43.68319" lon="7.06925">
        <ele>179.60000610352</ele>
        <time>2011-04-03T14:19:30.000Z</time>
      </trkpt>
      <trkpt lat="43.68303" lon="7.06931">
        <ele>181</ele>
        <time>2011-04-03T14:19:37.000Z</time>
      </trkpt>
      <trkpt lat="43.68285" lon="7.06939">
        <ele>182.60000610352</ele>
        <time>2011-04-03T14:19:44.000Z</time>
      </trkpt>
      <trkpt lat="43.68265" lon="7.06944">
        <ele>184.60000610352</ele>
        <time>2011-04-03T14:19:51.000Z</time>
      </trkpt>
      <trkpt lat="43.68241" lon="7.06952">
        <ele>186</ele>
        <time>2011-04-03T14:19:59.000Z</time>
      </trkpt>
      <trkpt lat="43.68219" lon="7.0696">
        <ele>185.39999389648</ele>
        <time>2011-04-03T14:20:06.000Z</time>
      </trkpt>
      <trkpt lat="43.68197" lon="7.06962">
        <ele>186</ele>
        <time>2011-04-03T14:20:12.000Z</time>
      </trkpt>
      <trkpt lat="43.68173" lon="7.06963">
        <ele>187.19999694824</ele>
        <time>2011-04-03T14:20:18.000Z</time>
      </trkpt>
      <trkpt lat="43.68159" lon="7.06964">
        <ele>187.39999389648</ele>
        <time>2011-04-03T14:20:21.000Z</time>
      </trkpt>
      <trkpt lat="43.68142" lon="7.06961">
        <ele>188.19999694824</ele>
        <time>2011-04-03T14:20:25.000Z</time>
      </trkpt>
      <trkpt lat="43.68134" lon="7.06961">
        <ele>188.19999694824</ele>
        <time>2011-04-03T14:20:27.000Z</time>
      </trkpt>
      <trkpt lat="43.68121" lon="7.06959">
        <ele>189</ele>
        <time>2011-04-03T14:20:30.000Z</time>
      </trkpt>
      <trkpt lat="43.68086" lon="7.06955">
        <ele>190.19999694824</ele>
        <time>2011-04-03T14:20:37.000Z</time>
      </trkpt>
      <trkpt lat="43.68082" lon="7.06954">
        <ele>190.60000610352</ele>
        <time>2011-04-03T14:20:38.000Z</time>
      </trkpt>
      <trkpt lat="43.6806" lon="7.06955">
        <ele>190.80000305176</ele>
        <time>2011-04-03T14:20:43.000Z</time>
      </trkpt>
      <trkpt lat="43.68033" lon="7.06958">
        <ele>190.39999389648</ele>
        <time>2011-04-03T14:20:49.000Z</time>
      </trkpt>
      <trkpt lat="43.68005" lon="7.0696">
        <ele>190.39999389648</ele>
        <time>2011-04-03T14:20:55.000Z</time>
      </trkpt>
      <trkpt lat="43.67988" lon="7.06962">
        <ele>189.80000305176</ele>
        <time>2011-04-03T14:20:59.000Z</time>
      </trkpt>
      <trkpt lat="43.67966" lon="7.06956">
        <ele>190.80000305176</ele>
        <time>2011-04-03T14:21:04.000Z</time>
      </trkpt>
      <trkpt lat="43.67939" lon="7.06953">
        <ele>190.80000305176</ele>
        <time>2011-04-03T14:21:11.000Z</time>
      </trkpt>
      <trkpt lat="43.67915" lon="7.06949">
        <ele>191.39999389648</ele>
        <time>2011-04-03T14:21:17.000Z</time>
      </trkpt>
      <trkpt lat="43.67891" lon="7.06946">
        <ele>192</ele>
        <time>2011-04-03T14:21:23.000Z</time>
      </trkpt>
      <trkpt lat="43.67879" lon="7.06946">
        <ele>191.80000305176</ele>
        <time>2011-04-03T14:21:26.000Z</time>
      </trkpt>
      <trkpt lat="43.67867" lon="7.06945">
        <ele>192.19999694824</ele>
        <time>2011-04-03T14:21:29.000Z</time>
      </trkpt>
      <trkpt lat="43.67836" lon="7.0694">
        <ele>192.80000305176</ele>
        <time>2011-04-03T14:21:37.000Z</time>
      </trkpt>
      <trkpt lat="43.6781" lon="7.06937">
        <ele>193.39999389648</ele>
        <time>2011-04-03T14:21:44.000Z</time>
      </trkpt>
      <trkpt lat="43.67782" lon="7.0693">
        <ele>194.60000610352</ele>
        <time>2011-04-03T14:21:52.000Z</time>
      </trkpt>
      <trkpt lat="43.67763" lon="7.06923">
        <ele>195.80000305176</ele>
        <time>2011-04-03T14:21:58.000Z</time>
      </trkpt>
      <trkpt lat="43.67744" lon="7.0691">
        <ele>197.39999389648</ele>
        <time>2011-04-03T14:22:04.000Z</time>
      </trkpt>
      <trkpt lat="43.67718" lon="7.06893">
        <ele>198.39999389648</ele>
        <time>2011-04-03T14:22:11.000Z</time>
      </trkpt>
      <trkpt lat="43.67693" lon="7.06878">
        <ele>199.19999694824</ele>
        <time>2011-04-03T14:22:18.000Z</time>
      </trkpt>
      <trkpt lat="43.67661" lon="7.06863">
        <ele>199.60000610352</ele>
        <time>2011-04-03T14:22:27.000Z</time>
      </trkpt>
      <trkpt lat="43.67635" lon="7.06842">
        <ele>200.60000610352</ele>
        <time>2011-04-03T14:22:35.000Z</time>
      </trkpt>
      <trkpt lat="43.67608" lon="7.06819">
        <ele>201.39999389648</ele>
        <time>2011-04-03T14:22:43.000Z</time>
      </trkpt>
      <trkpt lat="43.67594" lon="7.06802">
        <ele>202.19999694824</ele>
        <time>2011-04-03T14:22:48.000Z</time>
      </trkpt>
      <trkpt lat="43.67574" lon="7.06779">
        <ele>202.60000610352</ele>
        <time>2011-04-03T14:22:55.000Z</time>
      </trkpt>
      <trkpt lat="43.67556" lon="7.06758">
        <ele>202.60000610352</ele>
        <time>2011-04-03T14:23:01.000Z</time>
      </trkpt>
      <trkpt lat="43.6754" lon="7.06733">
        <ele>202</ele>
        <time>2011-04-03T14:23:07.000Z</time>
      </trkpt>
      <trkpt lat="43.67537" lon="7.06714">
        <ele>202.60000610352</ele>
        <time>2011-04-03T14:23:10.000Z</time>
      </trkpt>
      <trkpt lat="43.67537" lon="7.06683">
        <ele>204.39999389648</ele>
        <time>2011-04-03T14:23:15.000Z</time>
      </trkpt>
      <trkpt lat="43.67539" lon="7.06659">
        <ele>205.80000305176</ele>
        <time>2011-04-03T14:23:19.000Z</time>
      </trkpt>
      <trkpt lat="43.67533" lon="7.06627">
        <ele>206</ele>
        <time>2011-04-03T14:23:24.000Z</time>
      </trkpt>
      <trkpt lat="43.67517" lon="7.06618">
        <ele>204.39999389648</ele>
        <time>2011-04-03T14:23:27.000Z</time>
      </trkpt>
      <trkpt lat="43.67479" lon="7.06638">
        <ele>201.80000305176</ele>
        <time>2011-04-03T14:23:33.000Z</time>
      </trkpt>
      <trkpt lat="43.67455" lon="7.06653">
        <ele>201.39999389648</ele>
        <time>2011-04-03T14:23:36.000Z</time>
      </trkpt>
      <trkpt lat="43.67413" lon="7.06694">
        <ele>197.19999694824</ele>
        <time>2011-04-03T14:23:42.000Z</time>
      </trkpt>
      <trkpt lat="43.67377" lon="7.06739">
        <ele>192.19999694824</ele>
        <time>2011-04-03T14:23:48.000Z</time>
      </trkpt>
      <trkpt lat="43.67344" lon="7.06768">
        <ele>187.39999389648</ele>
        <time>2011-04-03T14:23:53.000Z</time>
      </trkpt>
      <trkpt lat="43.67306" lon="7.06781">
        <ele>183</ele>
        <time>2011-04-03T14:23:58.000Z</time>
      </trkpt>
      <trkpt lat="43.67291" lon="7.06782">
        <ele>181.60000610352</ele>
        <time>2011-04-03T14:24:00.000Z</time>
      </trkpt>
      <trkpt lat="43.67261" lon="7.06771">
        <ele>181.60000610352</ele>
        <time>2011-04-03T14:24:04.000Z</time>
      </trkpt>
      <trkpt lat="43.67233" lon="7.06761">
        <ele>180.80000305176</ele>
        <time>2011-04-03T14:24:08.000Z</time>
      </trkpt>
      <trkpt lat="43.67215" lon="7.06756">
        <ele>179.39999389648</ele>
        <time>2011-04-03T14:24:13.000Z</time>
      </trkpt>
      <trkpt lat="43.67195" lon="7.06758">
        <ele>176.60000610352</ele>
        <time>2011-04-03T14:24:16.000Z</time>
      </trkpt>
      <trkpt lat="43.67172" lon="7.06767">
        <ele>172.80000305176</ele>
        <time>2011-04-03T14:24:19.000Z</time>
      </trkpt>
      <trkpt lat="43.67156" lon="7.06777">
        <ele>171.19999694824</ele>
        <time>2011-04-03T14:24:21.000Z</time>
      </trkpt>
      <trkpt lat="43.67127" lon="7.06783">
        <ele>170.60000610352</ele>
        <time>2011-04-03T14:24:25.000Z</time>
      </trkpt>
      <trkpt lat="43.6709" lon="7.06777">
        <ele>170.60000610352</ele>
        <time>2011-04-03T14:24:31.000Z</time>
      </trkpt>
      <trkpt lat="43.67059" lon="7.06774">
        <ele>171.19999694824</ele>
        <time>2011-04-03T14:24:37.000Z</time>
      </trkpt>
      <trkpt lat="43.67024" lon="7.06775">
        <ele>172</ele>
        <time>2011-04-03T14:24:44.000Z</time>
      </trkpt>
      <trkpt lat="43.66993" lon="7.06773">
        <ele>172.80000305176</ele>
        <time>2011-04-03T14:24:50.000Z</time>
      </trkpt>
      <trkpt lat="43.66983" lon="7.06789">
        <ele>173</ele>
        <time>2011-04-03T14:24:54.000Z</time>
      </trkpt>
      <trkpt lat="43.66983" lon="7.06796">
        <ele>173</ele>
        <time>2011-04-03T14:24:55.000Z</time>
      </trkpt>
      <trkpt lat="43.66979" lon="7.06827">
        <ele>172.80000305176</ele>
        <time>2011-04-03T14:25:00.000Z</time>
      </trkpt>
      <trkpt lat="43.66975" lon="7.06829">
        <ele>172.80000305176</ele>
        <time>2011-04-03T14:25:01.000Z</time>
      </trkpt>
      <trkpt lat="43.66954" lon="7.06845">
        <ele>173.60000610352</ele>
        <time>2011-04-03T14:25:08.000Z</time>
      </trkpt>
      <trkpt lat="43.6694" lon="7.06856">
        <ele>174.39999389648</ele>
        <time>2011-04-03T14:25:14.000Z</time>
      </trkpt>
      <trkpt lat="43.66922" lon="7.06854">
        <ele>175</ele>
        <time>2011-04-03T14:25:19.000Z</time>
      </trkpt>
      <trkpt lat="43.66901" lon="7.0686">
        <ele>176.39999389648</ele>
        <time>2011-04-03T14:25:25.000Z</time>
      </trkpt>
      <trkpt lat="43.669" lon="7.06884">
        <ele>176.60000610352</ele>
        <time>2011-04-03T14:25:30.000Z</time>
      </trkpt>
      <trkpt lat="43.66902" lon="7.06916">
        <ele>176.60000610352</ele>
        <time>2011-04-03T14:25:36.000Z</time>
      </trkpt>
      <trkpt lat="43.66891" lon="7.06946">
        <ele>176.60000610352</ele>
        <time>2011-04-03T14:25:42.000Z</time>
      </trkpt>
      <trkpt lat="43.66889" lon="7.06951">
        <ele>176.60000610352</ele>
        <time>2011-04-03T14:25:43.000Z</time>
      </trkpt>
      <trkpt lat="43.66877" lon="7.06969">
        <ele>176.80000305176</ele>
        <time>2011-04-03T14:25:47.000Z</time>
      </trkpt>
      <trkpt lat="43.66848" lon="7.06998">
        <ele>178</ele>
        <time>2011-04-03T14:25:55.000Z</time>
      </trkpt>
      <trkpt lat="43.66821" lon="7.07029">
        <ele>179.60000610352</ele>
        <time>2011-04-03T14:26:03.000Z</time>
      </trkpt>
      <trkpt lat="43.66797" lon="7.07058">
        <ele>181.39999389648</ele>
        <time>2011-04-03T14:26:11.000Z</time>
      </trkpt>
      <trkpt lat="43.66774" lon="7.07079">
        <ele>183</ele>
        <time>2011-04-03T14:26:18.000Z</time>
      </trkpt>
      <trkpt lat="43.6676" lon="7.07071">
        <ele>184.39999389648</ele>
        <time>2011-04-03T14:26:22.000Z</time>
      </trkpt>
      <trkpt lat="43.66735" lon="7.07055">
        <ele>186.39999389648</ele>
        <time>2011-04-03T14:26:29.000Z</time>
      </trkpt>
      <trkpt lat="43.66711" lon="7.0704">
        <ele>188</ele>
        <time>2011-04-03T14:26:35.000Z</time>
      </trkpt>
      <trkpt lat="43.66703" lon="7.07036">
        <ele>188.60000610352</ele>
        <time>2011-04-03T14:26:37.000Z</time>
      </trkpt>
      <trkpt lat="43.66691" lon="7.0704">
        <ele>189</ele>
        <time>2011-04-03T14:26:41.000Z</time>
      </trkpt>
      <trkpt lat="43.66693" lon="7.0705">
        <ele>188.80000305176</ele>
        <time>2011-04-03T14:26:43.000Z</time>
      </trkpt>
      <trkpt lat="43.66701" lon="7.07084">
        <ele>187.80000305176</ele>
        <time>2011-04-03T14:26:50.000Z</time>
      </trkpt>
      <trkpt lat="43.66704" lon="7.07118">
        <ele>188.60000610352</ele>
        <time>2011-04-03T14:26:56.000Z</time>
      </trkpt>
      <trkpt lat="43.66706" lon="7.0716">
        <ele>189.39999389648</ele>
        <time>2011-04-03T14:27:03.000Z</time>
      </trkpt>
      <trkpt lat="43.66708" lon="7.07178">
        <ele>189.19999694824</ele>
        <time>2011-04-03T14:27:06.000Z</time>
      </trkpt>
      <trkpt lat="43.66711" lon="7.07202">
        <ele>188.60000610352</ele>
        <time>2011-04-03T14:27:10.000Z</time>
      </trkpt>
      <trkpt lat="43.66718" lon="7.0722">
        <ele>188.19999694824</ele>
        <time>2011-04-03T14:27:13.000Z</time>
      </trkpt>
      <trkpt lat="43.66745" lon="7.07262">
        <ele>188</ele>
        <time>2011-04-03T14:27:21.000Z</time>
      </trkpt>
      <trkpt lat="43.66768" lon="7.07291">
        <ele>189.39999389648</ele>
        <time>2011-04-03T14:27:28.000Z</time>
      </trkpt>
      <trkpt lat="43.66793" lon="7.07322">
        <ele>191.39999389648</ele>
        <time>2011-04-03T14:27:36.000Z</time>
      </trkpt>
      <trkpt lat="43.66826" lon="7.07361">
        <ele>194.60000610352</ele>
        <time>2011-04-03T14:27:47.000Z</time>
      </trkpt>
      <trkpt lat="43.66856" lon="7.07397">
        <ele>197.60000610352</ele>
        <time>2011-04-03T14:27:58.000Z</time>
      </trkpt>
      <trkpt lat="43.66874" lon="7.07419">
        <ele>200</ele>
        <time>2011-04-03T14:28:06.000Z</time>
      </trkpt>
      <trkpt lat="43.66885" lon="7.07432">
        <ele>202</ele>
        <time>2011-04-03T14:28:12.000Z</time>
      </trkpt>
      <trkpt lat="43.66898" lon="7.07449">
        <ele>204.60000610352</ele>
        <time>2011-04-03T14:28:20.000Z</time>
      </trkpt>
      <trkpt lat="43.66903" lon="7.07465">
        <ele>206.60000610352</ele>
        <time>2011-04-03T14:28:26.000Z</time>
      </trkpt>
      <trkpt lat="43.66903" lon="7.07482">
        <ele>208.19999694824</ele>
        <time>2011-04-03T14:28:31.000Z</time>
      </trkpt>
      <trkpt lat="43.66903" lon="7.07509">
        <ele>209.80000305176</ele>
        <time>2011-04-03T14:28:38.000Z</time>
      </trkpt>
      <trkpt lat="43.66908" lon="7.07539">
        <ele>209.60000610352</ele>
        <time>2011-04-03T14:28:44.000Z</time>
      </trkpt>
      <trkpt lat="43.66909" lon="7.07566">
        <ele>209</ele>
        <time>2011-04-03T14:28:49.000Z</time>
      </trkpt>
      <trkpt lat="43.66907" lon="7.07572">
        <ele>208.80000305176</ele>
        <time>2011-04-03T14:28:50.000Z</time>
      </trkpt>
      <trkpt lat="43.66883" lon="7.076">
        <ele>206.80000305176</ele>
        <time>2011-04-03T14:28:55.000Z</time>
      </trkpt>
      <trkpt lat="43.66872" lon="7.07638">
        <ele>204.80000305176</ele>
        <time>2011-04-03T14:28:59.000Z</time>
      </trkpt>
      <trkpt lat="43.66875" lon="7.07659">
        <ele>203.80000305176</ele>
        <time>2011-04-03T14:29:01.000Z</time>
      </trkpt>
      <trkpt lat="43.66874" lon="7.07718">
        <ele>197.80000305176</ele>
        <time>2011-04-03T14:29:06.000Z</time>
      </trkpt>
      <trkpt lat="43.66854" lon="7.0775">
        <ele>194.60000610352</ele>
        <time>2011-04-03T14:29:09.000Z</time>
      </trkpt>
      <trkpt lat="43.66848" lon="7.07762">
        <ele>193.60000610352</ele>
        <time>2011-04-03T14:29:10.000Z</time>
      </trkpt>
      <trkpt lat="43.66815" lon="7.07837">
        <ele>188.60000610352</ele>
        <time>2011-04-03T14:29:16.000Z</time>
      </trkpt>
      <trkpt lat="43.66794" lon="7.07896">
        <ele>188</ele>
        <time>2011-04-03T14:29:21.000Z</time>
      </trkpt>
      <trkpt lat="43.66791" lon="7.07941">
        <ele>187</ele>
        <time>2011-04-03T14:29:25.000Z</time>
      </trkpt>
      <trkpt lat="43.66803" lon="7.08011">
        <ele>184.60000610352</ele>
        <time>2011-04-03T14:29:32.000Z</time>
      </trkpt>
      <trkpt lat="43.66807" lon="7.08031">
        <ele>183.19999694824</ele>
        <time>2011-04-03T14:29:34.000Z</time>
      </trkpt>
      <trkpt lat="43.6682" lon="7.08079">
        <ele>180.39999389648</ele>
        <time>2011-04-03T14:29:38.000Z</time>
      </trkpt>
      <trkpt lat="43.66829" lon="7.08161">
        <ele>180.39999389648</ele>
        <time>2011-04-03T14:29:44.000Z</time>
      </trkpt>
      <trkpt lat="43.66836" lon="7.08227">
        <ele>183.39999389648</ele>
        <time>2011-04-03T14:29:50.000Z</time>
      </trkpt>
      <trkpt lat="43.66848" lon="7.08271">
        <ele>185.19999694824</ele>
        <time>2011-04-03T14:29:55.000Z</time>
      </trkpt>
      <trkpt lat="43.6685" lon="7.0828">
        <ele>185.19999694824</ele>
        <time>2011-04-03T14:29:56.000Z</time>
      </trkpt>
      <trkpt lat="43.66851" lon="7.08336">
        <ele>184</ele>
        <time>2011-04-03T14:30:03.000Z</time>
      </trkpt>
      <trkpt lat="43.66859" lon="7.08373">
        <ele>183.60000610352</ele>
        <time>2011-04-03T14:30:07.000Z</time>
      </trkpt>
      <trkpt lat="43.66884" lon="7.08437">
        <ele>180</ele>
        <time>2011-04-03T14:30:13.000Z</time>
      </trkpt>
      <trkpt lat="43.66891" lon="7.08457">
        <ele>178.19999694824</ele>
        <time>2011-04-03T14:30:15.000Z</time>
      </trkpt>
      <trkpt lat="43.66894" lon="7.08496">
        <ele>176</ele>
        <time>2011-04-03T14:30:19.000Z</time>
      </trkpt>
      <trkpt lat="43.66902" lon="7.08536">
        <ele>172.60000610352</ele>
        <time>2011-04-03T14:30:23.000Z</time>
      </trkpt>
      <trkpt lat="43.66908" lon="7.08583">
        <ele>169</ele>
        <time>2011-04-03T14:30:28.000Z</time>
      </trkpt>
      <trkpt lat="43.66908" lon="7.08614">
        <ele>167.80000305176</ele>
        <time>2011-04-03T14:30:32.000Z</time>
      </trkpt>
      <trkpt lat="43.66906" lon="7.08621">
        <ele>168</ele>
        <time>2011-04-03T14:30:36.000Z</time>
      </trkpt>
      <trkpt lat="43.66906" lon="7.08621">
        <ele>168</ele>
        <time>2011-04-03T14:30:44.000Z</time>
      </trkpt>
      <trkpt lat="43.66905" lon="7.08621">
        <ele>168.19999694824</ele>
        <time>2011-04-03T14:30:49.000Z</time>
      </trkpt>
      <trkpt lat="43.66905" lon="7.08626">
        <ele>168</ele>
        <time>2011-04-03T14:30:52.000Z</time>
      </trkpt>
      <trkpt lat="43.66905" lon="7.08638">
        <ele>167.60000610352</ele>
        <time>2011-04-03T14:30:58.000Z</time>
      </trkpt>
      <trkpt lat="43.66903" lon="7.08649">
        <ele>167.39999389648</ele>
        <time>2011-04-03T14:31:03.000Z</time>
      </trkpt>
      <trkpt lat="43.66903" lon="7.08654">
        <ele>167</ele>
        <time>2011-04-03T14:31:08.000Z</time>
      </trkpt>
      <trkpt lat="43.66903" lon="7.08672">
        <ele>166.19999694824</ele>
        <time>2011-04-03T14:31:13.000Z</time>
      </trkpt>
      <trkpt lat="43.66902" lon="7.08677">
        <ele>165.80000305176</ele>
        <time>2011-04-03T14:31:14.000Z</time>
      </trkpt>
      <trkpt lat="43.66903" lon="7.08717">
        <ele>162.60000610352</ele>
        <time>2011-04-03T14:31:20.000Z</time>
      </trkpt>
      <trkpt lat="43.66908" lon="7.08768">
        <ele>157.60000610352</ele>
        <time>2011-04-03T14:31:25.000Z</time>
      </trkpt>
      <trkpt lat="43.66902" lon="7.08825">
        <ele>151.39999389648</ele>
        <time>2011-04-03T14:31:29.000Z</time>
      </trkpt>
      <trkpt lat="43.6688" lon="7.08909">
        <ele>142</ele>
        <time>2011-04-03T14:31:35.000Z</time>
      </trkpt>
      <trkpt lat="43.66869" lon="7.08945">
        <ele>139.60000610352</ele>
        <time>2011-04-03T14:31:38.000Z</time>
      </trkpt>
      <trkpt lat="43.66866" lon="7.08953">
        <ele>139.19999694824</ele>
        <time>2011-04-03T14:31:39.000Z</time>
      </trkpt>
      <trkpt lat="43.66848" lon="7.08976">
        <ele>138.80000305176</ele>
        <time>2011-04-03T14:31:43.000Z</time>
      </trkpt>
      <trkpt lat="43.66816" lon="7.08997">
        <ele>137</ele>
        <time>2011-04-03T14:31:48.000Z</time>
      </trkpt>
      <trkpt lat="43.66809" lon="7.08999">
        <ele>136.19999694824</ele>
        <time>2011-04-03T14:31:49.000Z</time>
      </trkpt>
      <trkpt lat="43.66771" lon="7.09015">
        <ele>132.39999389648</ele>
        <time>2011-04-03T14:31:54.000Z</time>
      </trkpt>
      <trkpt lat="43.66743" lon="7.09039">
        <ele>129.60000610352</ele>
        <time>2011-04-03T14:31:58.000Z</time>
      </trkpt>
      <trkpt lat="43.6673" lon="7.09068">
        <ele>127.80000305176</ele>
        <time>2011-04-03T14:32:01.000Z</time>
      </trkpt>
      <trkpt lat="43.66726" lon="7.09101">
        <ele>127.19999694824</ele>
        <time>2011-04-03T14:32:04.000Z</time>
      </trkpt>
      <trkpt lat="43.66714" lon="7.09155">
        <ele>124.80000305176</ele>
        <time>2011-04-03T14:32:09.000Z</time>
      </trkpt>
      <trkpt lat="43.66694" lon="7.09176">
        <ele>120.80000305176</ele>
        <time>2011-04-03T14:32:12.000Z</time>
      </trkpt>
      <trkpt lat="43.66675" lon="7.09197">
        <ele>116.19999694824</ele>
        <time>2011-04-03T14:32:15.000Z</time>
      </trkpt>
      <trkpt lat="43.6666" lon="7.09235">
        <ele>111.80000305176</ele>
        <time>2011-04-03T14:32:19.000Z</time>
      </trkpt>
      <trkpt lat="43.66653" lon="7.09257">
        <ele>109.59999847412</ele>
        <time>2011-04-03T14:32:21.000Z</time>
      </trkpt>
      <trkpt lat="43.66629" lon="7.093">
        <ele>104.19999694824</ele>
        <time>2011-04-03T14:32:26.000Z</time>
      </trkpt>
      <trkpt lat="43.66612" lon="7.09337">
        <ele>101</ele>
        <time>2011-04-03T14:32:30.000Z</time>
      </trkpt>
      <trkpt lat="43.66603" lon="7.09381">
        <ele>98.199996948242</ele>
        <time>2011-04-03T14:32:34.000Z</time>
      </trkpt>
      <trkpt lat="43.66599" lon="7.09417">
        <ele>96.199996948242</ele>
        <time>2011-04-03T14:32:37.000Z</time>
      </trkpt>
      <trkpt lat="43.666" lon="7.09452">
        <ele>95.400001525879</ele>
        <time>2011-04-03T14:32:40.000Z</time>
      </trkpt>
      <trkpt lat="43.66609" lon="7.09498">
        <ele>94.800003051758</ele>
        <time>2011-04-03T14:32:44.000Z</time>
      </trkpt>
      <trkpt lat="43.66617" lon="7.09531">
        <ele>93</ele>
        <time>2011-04-03T14:32:49.000Z</time>
      </trkpt>
      <trkpt lat="43.66609" lon="7.0953">
        <ele>92.400001525879</ele>
        <time>2011-04-03T14:32:53.000Z</time>
      </trkpt>
      <trkpt lat="43.66606" lon="7.09529">
        <ele>92.199996948242</ele>
        <time>2011-04-03T14:32:54.000Z</time>
      </trkpt>
      <trkpt lat="43.66579" lon="7.09528">
        <ele>90</ele>
        <time>2011-04-03T14:33:00.000Z</time>
      </trkpt>
      <trkpt lat="43.66563" lon="7.09526">
        <ele>88.400001525879</ele>
        <time>2011-04-03T14:33:03.000Z</time>
      </trkpt>
      <trkpt lat="43.66553" lon="7.09531">
        <ele>86.800003051758</ele>
        <time>2011-04-03T14:33:05.000Z</time>
      </trkpt>
      <trkpt lat="43.66544" lon="7.09552">
        <ele>84</ele>
        <time>2011-04-03T14:33:09.000Z</time>
      </trkpt>
      <trkpt lat="43.66536" lon="7.09563">
        <ele>82.400001525879</ele>
        <time>2011-04-03T14:33:11.000Z</time>
      </trkpt>
      <trkpt lat="43.6652" lon="7.09576">
        <ele>79.599998474121</ele>
        <time>2011-04-03T14:33:14.000Z</time>
      </trkpt>
      <trkpt lat="43.66499" lon="7.09568">
        <ele>77.800003051758</ele>
        <time>2011-04-03T14:33:18.000Z</time>
      </trkpt>
      <trkpt lat="43.66493" lon="7.09549">
        <ele>78.199996948242</ele>
        <time>2011-04-03T14:33:21.000Z</time>
      </trkpt>
      <trkpt lat="43.66479" lon="7.09507">
        <ele>78.800003051758</ele>
        <time>2011-04-03T14:33:27.000Z</time>
      </trkpt>
      <trkpt lat="43.66466" lon="7.09485">
        <ele>76.800003051758</ele>
        <time>2011-04-03T14:33:31.000Z</time>
      </trkpt>
      <trkpt lat="43.66456" lon="7.09468">
        <ele>75.199996948242</ele>
        <time>2011-04-03T14:33:34.000Z</time>
      </trkpt>
      <trkpt lat="43.66448" lon="7.09439">
        <ele>73.800003051758</ele>
        <time>2011-04-03T14:33:39.000Z</time>
      </trkpt>
      <trkpt lat="43.66442" lon="7.09446">
        <ele>72.599998474121</ele>
        <time>2011-04-03T14:33:42.000Z</time>
      </trkpt>
      <trkpt lat="43.66442" lon="7.09463">
        <ele>72.599998474121</ele>
        <time>2011-04-03T14:33:45.000Z</time>
      </trkpt>
      <trkpt lat="43.66445" lon="7.09493">
        <ele>73</ele>
        <time>2011-04-03T14:33:50.000Z</time>
      </trkpt>
      <trkpt lat="43.66445" lon="7.0953">
        <ele>72</ele>
        <time>2011-04-03T14:33:55.000Z</time>
      </trkpt>
      <trkpt lat="43.66439" lon="7.09544">
        <ele>70.800003051758</ele>
        <time>2011-04-03T14:33:57.000Z</time>
      </trkpt>
      <trkpt lat="43.66432" lon="7.09557">
        <ele>69.400001525879</ele>
        <time>2011-04-03T14:33:59.000Z</time>
      </trkpt>
      <trkpt lat="43.66424" lon="7.09568">
        <ele>68</ele>
        <time>2011-04-03T14:34:01.000Z</time>
      </trkpt>
      <trkpt lat="43.66408" lon="7.09584">
        <ele>66</ele>
        <time>2011-04-03T14:34:04.000Z</time>
      </trkpt>
      <trkpt lat="43.66391" lon="7.096">
        <ele>63.799999237061</ele>
        <time>2011-04-03T14:34:08.000Z</time>
      </trkpt>
      <trkpt lat="43.66381" lon="7.09596">
        <ele>63</ele>
        <time>2011-04-03T14:34:11.000Z</time>
      </trkpt>
      <trkpt lat="43.66372" lon="7.09589">
        <ele>62.400001525879</ele>
        <time>2011-04-03T14:34:13.000Z</time>
      </trkpt>
      <trkpt lat="43.66351" lon="7.09589">
        <ele>60.400001525879</ele>
        <time>2011-04-03T14:34:18.000Z</time>
      </trkpt>
      <trkpt lat="43.66347" lon="7.09593">
        <ele>59.799999237061</ele>
        <time>2011-04-03T14:34:19.000Z</time>
      </trkpt>
      <trkpt lat="43.66329" lon="7.09604">
        <ele>57.599998474121</ele>
        <time>2011-04-03T14:34:24.000Z</time>
      </trkpt>
      <trkpt lat="43.66326" lon="7.09582">
        <ele>58</ele>
        <time>2011-04-03T14:34:29.000Z</time>
      </trkpt>
      <trkpt lat="43.66327" lon="7.09561">
        <ele>58.200000762939</ele>
        <time>2011-04-03T14:34:32.000Z</time>
      </trkpt>
      <trkpt lat="43.6633" lon="7.09536">
        <ele>58.599998474121</ele>
        <time>2011-04-03T14:34:35.000Z</time>
      </trkpt>
      <trkpt lat="43.66317" lon="7.09499">
        <ele>57.599998474121</ele>
        <time>2011-04-03T14:34:41.000Z</time>
      </trkpt>
      <trkpt lat="43.66304" lon="7.09478">
        <ele>57.599998474121</ele>
        <time>2011-04-03T14:34:46.000Z</time>
      </trkpt>
      <trkpt lat="43.66294" lon="7.09469">
        <ele>57.200000762939</ele>
        <time>2011-04-03T14:34:49.000Z</time>
      </trkpt>
      <trkpt lat="43.66283" lon="7.09458">
        <ele>57</ele>
        <time>2011-04-03T14:34:52.000Z</time>
      </trkpt>
      <trkpt lat="43.66267" lon="7.09455">
        <ele>56.200000762939</ele>
        <time>2011-04-03T14:34:56.000Z</time>
      </trkpt>
      <trkpt lat="43.66262" lon="7.09456">
        <ele>55.799999237061</ele>
        <time>2011-04-03T14:34:57.000Z</time>
      </trkpt>
      <trkpt lat="43.66223" lon="7.09483">
        <ele>53</ele>
        <time>2011-04-03T14:35:05.000Z</time>
      </trkpt>
      <trkpt lat="43.66211" lon="7.09492">
        <ele>52.400001525879</ele>
        <time>2011-04-03T14:35:08.000Z</time>
      </trkpt>
      <trkpt lat="43.66206" lon="7.09505">
        <ele>51.599998474121</ele>
        <time>2011-04-03T14:35:12.000Z</time>
      </trkpt>
      <trkpt lat="43.66206" lon="7.09508">
        <ele>51.400001525879</ele>
        <time>2011-04-03T14:35:14.000Z</time>
      </trkpt>
      <trkpt lat="43.66202" lon="7.09517">
        <ele>50.799999237061</ele>
        <time>2011-04-03T14:35:19.000Z</time>
      </trkpt>
      <trkpt lat="43.6618" lon="7.09539">
        <ele>49</ele>
        <time>2011-04-03T14:35:25.000Z</time>
      </trkpt>
      <trkpt lat="43.66153" lon="7.09558">
        <ele>46.599998474121</ele>
        <time>2011-04-03T14:35:30.000Z</time>
      </trkpt>
      <trkpt lat="43.66119" lon="7.0958">
        <ele>44.400001525879</ele>
        <time>2011-04-03T14:35:35.000Z</time>
      </trkpt>
      <trkpt lat="43.66096" lon="7.09584">
        <ele>44</ele>
        <time>2011-04-03T14:35:39.000Z</time>
      </trkpt>
      <trkpt lat="43.66078" lon="7.09552">
        <ele>43.799999237061</ele>
        <time>2011-04-03T14:35:44.000Z</time>
      </trkpt>
      <trkpt lat="43.66056" lon="7.09544">
        <ele>41.599998474121</ele>
        <time>2011-04-03T14:35:47.000Z</time>
      </trkpt>
      <trkpt lat="43.66048" lon="7.09545">
        <ele>40.799999237061</ele>
        <time>2011-04-03T14:35:48.000Z</time>
      </trkpt>
      <trkpt lat="43.65988" lon="7.09572">
        <ele>34.599998474121</ele>
        <time>2011-04-03T14:35:55.000Z</time>
      </trkpt>
      <trkpt lat="43.65977" lon="7.09579">
        <ele>33.400001525879</ele>
        <time>2011-04-03T14:35:57.000Z</time>
      </trkpt>
      <trkpt lat="43.65968" lon="7.09594">
        <ele>32.599998474121</ele>
        <time>2011-04-03T14:36:01.000Z</time>
      </trkpt>
      <trkpt lat="43.65967" lon="7.09598">
        <ele>32.799999237061</ele>
        <time>2011-04-03T14:36:02.000Z</time>
      </trkpt>
      <trkpt lat="43.65954" lon="7.09605">
        <ele>31.60000038147</ele>
        <time>2011-04-03T14:36:08.000Z</time>
      </trkpt>
      <trkpt lat="43.65944" lon="7.09589">
        <ele>30.200000762939</ele>
        <time>2011-04-03T14:36:11.000Z</time>
      </trkpt>
      <trkpt lat="43.65934" lon="7.09535">
        <ele>29.200000762939</ele>
        <time>2011-04-03T14:36:18.000Z</time>
      </trkpt>
      <trkpt lat="43.65918" lon="7.09471">
        <ele>29.39999961853</ele>
        <time>2011-04-03T14:36:26.000Z</time>
      </trkpt>
      <trkpt lat="43.659" lon="7.09403">
        <ele>32</ele>
        <time>2011-04-03T14:36:35.000Z</time>
      </trkpt>
      <trkpt lat="43.65885" lon="7.09348">
        <ele>34.200000762939</ele>
        <time>2011-04-03T14:36:43.000Z</time>
      </trkpt>
      <trkpt lat="43.65884" lon="7.09342">
        <ele>34.400001525879</ele>
        <time>2011-04-03T14:36:44.000Z</time>
      </trkpt>
      <trkpt lat="43.6587" lon="7.09315">
        <ele>35.400001525879</ele>
        <time>2011-04-03T14:36:49.000Z</time>
      </trkpt>
      <trkpt lat="43.65862" lon="7.09303">
        <ele>35.599998474121</ele>
        <time>2011-04-03T14:36:52.000Z</time>
      </trkpt>
      <trkpt lat="43.65849" lon="7.09308">
        <ele>34.400001525879</ele>
        <time>2011-04-03T14:36:54.000Z</time>
      </trkpt>
      <trkpt lat="43.65832" lon="7.09324">
        <ele>32.400001525879</ele>
        <time>2011-04-03T14:36:57.000Z</time>
      </trkpt>
      <trkpt lat="43.65823" lon="7.09337">
        <ele>31.39999961853</ele>
        <time>2011-04-03T14:36:59.000Z</time>
      </trkpt>
      <trkpt lat="43.65801" lon="7.09353">
        <ele>30.200000762939</ele>
        <time>2011-04-03T14:37:03.000Z</time>
      </trkpt>
      <trkpt lat="43.65772" lon="7.09367">
        <ele>29.200000762939</ele>
        <time>2011-04-03T14:37:08.000Z</time>
      </trkpt>
      <trkpt lat="43.65739" lon="7.09374">
        <ele>29.39999961853</ele>
        <time>2011-04-03T14:37:14.000Z</time>
      </trkpt>
      <trkpt lat="43.65707" lon="7.09362">
        <ele>30.799999237061</ele>
        <time>2011-04-03T14:37:20.000Z</time>
      </trkpt>
      <trkpt lat="43.65697" lon="7.09354">
        <ele>31.200000762939</ele>
        <time>2011-04-03T14:37:22.000Z</time>
      </trkpt>
      <trkpt lat="43.65661" lon="7.09342">
        <ele>32.599998474121</ele>
        <time>2011-04-03T14:37:29.000Z</time>
      </trkpt>
      <trkpt lat="43.65656" lon="7.0934">
        <ele>32.799999237061</ele>
        <time>2011-04-03T14:37:30.000Z</time>
      </trkpt>
      <trkpt lat="43.65624" lon="7.09315">
        <ele>34.599998474121</ele>
        <time>2011-04-03T14:37:37.000Z</time>
      </trkpt>
      <trkpt lat="43.6562" lon="7.09312">
        <ele>34.599998474121</ele>
        <time>2011-04-03T14:37:38.000Z</time>
      </trkpt>
      <trkpt lat="43.65598" lon="7.09294">
        <ele>35</ele>
        <time>2011-04-03T14:37:43.000Z</time>
      </trkpt>
      <trkpt lat="43.65579" lon="7.0927">
        <ele>34.799999237061</ele>
        <time>2011-04-03T14:37:48.000Z</time>
      </trkpt>
      <trkpt lat="43.65555" lon="7.09224">
        <ele>35.599998474121</ele>
        <time>2011-04-03T14:37:56.000Z</time>
      </trkpt>
      <trkpt lat="43.65537" lon="7.09182">
        <ele>36</ele>
        <time>2011-04-03T14:38:03.000Z</time>
      </trkpt>
      <trkpt lat="43.65518" lon="7.09139">
        <ele>36.400001525879</ele>
        <time>2011-04-03T14:38:10.000Z</time>
      </trkpt>
      <trkpt lat="43.65512" lon="7.09127">
        <ele>36.200000762939</ele>
        <time>2011-04-03T14:38:12.000Z</time>
      </trkpt>
      <trkpt lat="43.65494" lon="7.09089">
        <ele>35.799999237061</ele>
        <time>2011-04-03T14:38:19.000Z</time>
      </trkpt>
      <trkpt lat="43.65468" lon="7.09039">
        <ele>37.599998474121</ele>
        <time>2011-04-03T14:38:28.000Z</time>
      </trkpt>
      <trkpt lat="43.6545" lon="7.09002">
        <ele>37.799999237061</ele>
        <time>2011-04-03T14:38:35.000Z</time>
      </trkpt>
      <trkpt lat="43.65431" lon="7.08964">
        <ele>37</ele>
        <time>2011-04-03T14:38:43.000Z</time>
      </trkpt>
      <trkpt lat="43.65427" lon="7.08954">
        <ele>36.599998474121</ele>
        <time>2011-04-03T14:38:47.000Z</time>
      </trkpt>
      <trkpt lat="43.65428" lon="7.08955">
        <ele>36.599998474121</ele>
        <time>2011-04-03T14:38:55.000Z</time>
      </trkpt>
      <trkpt lat="43.65429" lon="7.08958">
        <ele>36.799999237061</ele>
        <time>2011-04-03T14:39:07.000Z</time>
      </trkpt>
      <trkpt lat="43.6543" lon="7.08958">
        <ele>36.799999237061</ele>
        <time>2011-04-03T14:39:23.000Z</time>
      </trkpt>
      <trkpt lat="43.65429" lon="7.08958">
        <ele>36.799999237061</ele>
        <time>2011-04-03T14:39:40.000Z</time>
      </trkpt>
      <trkpt lat="43.65428" lon="7.08956">
        <ele>36.799999237061</ele>
        <time>2011-04-03T14:39:43.000Z</time>
      </trkpt>
      <trkpt lat="43.65419" lon="7.08939">
        <ele>36</ele>
        <time>2011-04-03T14:39:48.000Z</time>
      </trkpt>
      <trkpt lat="43.6541" lon="7.08919">
        <ele>35.599998474121</ele>
        <time>2011-04-03T14:39:52.000Z</time>
      </trkpt>
      <trkpt lat="43.65394" lon="7.08886">
        <ele>36.400001525879</ele>
        <time>2011-04-03T14:39:58.000Z</time>
      </trkpt>
      <trkpt lat="43.65371" lon="7.08839">
        <ele>36.599998474121</ele>
        <time>2011-04-03T14:40:07.000Z</time>
      </trkpt>
      <trkpt lat="43.65358" lon="7.08812">
        <ele>37.599998474121</ele>
        <time>2011-04-03T14:40:14.000Z</time>
      </trkpt>
      <trkpt lat="43.65349" lon="7.0879">
        <ele>38.400001525879</ele>
        <time>2011-04-03T14:40:19.000Z</time>
      </trkpt>
      <trkpt lat="43.65335" lon="7.08767">
        <ele>39.400001525879</ele>
        <time>2011-04-03T14:40:25.000Z</time>
      </trkpt>
      <trkpt lat="43.65315" lon="7.08755">
        <ele>40.799999237061</ele>
        <time>2011-04-03T14:40:32.000Z</time>
      </trkpt>
      <trkpt lat="43.65291" lon="7.0874">
        <ele>43.200000762939</ele>
        <time>2011-04-03T14:40:40.000Z</time>
      </trkpt>
      <trkpt lat="43.65279" lon="7.08728">
        <ele>45</ele>
        <time>2011-04-03T14:40:46.000Z</time>
      </trkpt>
      <trkpt lat="43.65268" lon="7.08715">
        <ele>46.799999237061</ele>
        <time>2011-04-03T14:40:53.000Z</time>
      </trkpt>
      <trkpt lat="43.65259" lon="7.08728">
        <ele>46.400001525879</ele>
        <time>2011-04-03T14:40:58.000Z</time>
      </trkpt>
      <trkpt lat="43.65238" lon="7.08752">
        <ele>46.400001525879</ele>
        <time>2011-04-03T14:41:06.000Z</time>
      </trkpt>
      <trkpt lat="43.65227" lon="7.08747">
        <ele>47.799999237061</ele>
        <time>2011-04-03T14:41:10.000Z</time>
      </trkpt>
      <trkpt lat="43.65221" lon="7.08737">
        <ele>49.799999237061</ele>
        <time>2011-04-03T14:41:15.000Z</time>
      </trkpt>
      <trkpt lat="43.652" lon="7.08728">
        <ele>53.599998474121</ele>
        <time>2011-04-03T14:41:25.000Z</time>
      </trkpt>
      <trkpt lat="43.65185" lon="7.08719">
        <ele>56.400001525879</ele>
        <time>2011-04-03T14:41:33.000Z</time>
      </trkpt>
      <trkpt lat="43.65168" lon="7.0871">
        <ele>60</ele>
        <time>2011-04-03T14:41:42.000Z</time>
      </trkpt>
      <trkpt lat="43.65154" lon="7.0871">
        <ele>62.200000762939</ele>
        <time>2011-04-03T14:41:49.000Z</time>
      </trkpt>
      <trkpt lat="43.65143" lon="7.08714">
        <ele>63.599998474121</ele>
        <time>2011-04-03T14:41:54.000Z</time>
      </trkpt>
      <trkpt lat="43.65128" lon="7.08722">
        <ele>65.400001525879</ele>
        <time>2011-04-03T14:42:02.000Z</time>
      </trkpt>
      <trkpt lat="43.65116" lon="7.0873">
        <ele>66.599998474121</ele>
        <time>2011-04-03T14:42:08.000Z</time>
      </trkpt>
      <trkpt lat="43.65109" lon="7.08743">
        <ele>66.599998474121</ele>
        <time>2011-04-03T14:42:14.000Z</time>
      </trkpt>
      <trkpt lat="43.651" lon="7.08766">
        <ele>67.800003051758</ele>
        <time>2011-04-03T14:42:22.000Z</time>
      </trkpt>
      <trkpt lat="43.65085" lon="7.08796">
        <ele>71.199996948242</ele>
        <time>2011-04-03T14:42:33.000Z</time>
      </trkpt>
      <trkpt lat="43.65075" lon="7.08802">
        <ele>73.400001525879</ele>
        <time>2011-04-03T14:42:38.000Z</time>
      </trkpt>
      <trkpt lat="43.6507" lon="7.08786">
        <ele>74.599998474121</ele>
        <time>2011-04-03T14:42:44.000Z</time>
      </trkpt>
      <trkpt lat="43.6507" lon="7.08783">
        <ele>74.599998474121</ele>
        <time>2011-04-03T14:42:45.000Z</time>
      </trkpt>
      <trkpt lat="43.65062" lon="7.08756">
        <ele>76.400001525879</ele>
        <time>2011-04-03T14:42:53.000Z</time>
      </trkpt>
      <trkpt lat="43.65059" lon="7.08735">
        <ele>77.800003051758</ele>
        <time>2011-04-03T14:42:59.000Z</time>
      </trkpt>
      <trkpt lat="43.65059" lon="7.08717">
        <ele>78.599998474121</ele>
        <time>2011-04-03T14:43:04.000Z</time>
      </trkpt>
      <trkpt lat="43.65063" lon="7.08693">
        <ele>79.199996948242</ele>
        <time>2011-04-03T14:43:11.000Z</time>
      </trkpt>
      <trkpt lat="43.65064" lon="7.08677">
        <ele>79.800003051758</ele>
        <time>2011-04-03T14:43:16.000Z</time>
      </trkpt>
      <trkpt lat="43.65062" lon="7.08656">
        <ele>80.800003051758</ele>
        <time>2011-04-03T14:43:23.000Z</time>
      </trkpt>
      <trkpt lat="43.65058" lon="7.08639">
        <ele>81.599998474121</ele>
        <time>2011-04-03T14:43:29.000Z</time>
      </trkpt>
      <trkpt lat="43.65053" lon="7.08622">
        <ele>82.199996948242</ele>
        <time>2011-04-03T14:43:35.000Z</time>
      </trkpt>
      <trkpt lat="43.65043" lon="7.08614">
        <ele>83.599998474121</ele>
        <time>2011-04-03T14:43:40.000Z</time>
      </trkpt>
      <trkpt lat="43.65029" lon="7.08618">
        <ele>85.599998474121</ele>
        <time>2011-04-03T14:43:46.000Z</time>
      </trkpt>
      <trkpt lat="43.65019" lon="7.08628">
        <ele>87.199996948242</ele>
        <time>2011-04-03T14:43:52.000Z</time>
      </trkpt>
      <trkpt lat="43.65006" lon="7.08645">
        <ele>89.800003051758</ele>
        <time>2011-04-03T14:44:00.000Z</time>
      </trkpt>
      <trkpt lat="43.64998" lon="7.08664">
        <ele>92.199996948242</ele>
        <time>2011-04-03T14:44:08.000Z</time>
      </trkpt>
      <trkpt lat="43.6499" lon="7.0868">
        <ele>93.800003051758</ele>
        <time>2011-04-03T14:44:15.000Z</time>
      </trkpt>
      <trkpt lat="43.64983" lon="7.08706">
        <ele>95.400001525879</ele>
        <time>2011-04-03T14:44:24.000Z</time>
      </trkpt>
      <trkpt lat="43.6498" lon="7.08724">
        <ele>96.400001525879</ele>
        <time>2011-04-03T14:44:30.000Z</time>
      </trkpt>
      <trkpt lat="43.64974" lon="7.08744">
        <ele>97.800003051758</ele>
        <time>2011-04-03T14:44:37.000Z</time>
      </trkpt>
      <trkpt lat="43.64965" lon="7.08765">
        <ele>99.800003051758</ele>
        <time>2011-04-03T14:44:45.000Z</time>
      </trkpt>
      <trkpt lat="43.64959" lon="7.08783">
        <ele>101</ele>
        <time>2011-04-03T14:44:51.000Z</time>
      </trkpt>
      <trkpt lat="43.64953" lon="7.088">
        <ele>102.19999694824</ele>
        <time>2011-04-03T14:44:57.000Z</time>
      </trkpt>
      <trkpt lat="43.64946" lon="7.08817">
        <ele>103.80000305176</ele>
        <time>2011-04-03T14:45:03.000Z</time>
      </trkpt>
      <trkpt lat="43.64938" lon="7.08836">
        <ele>106</ele>
        <time>2011-04-03T14:45:10.000Z</time>
      </trkpt>
      <trkpt lat="43.64927" lon="7.08844">
        <ele>109.19999694824</ele>
        <time>2011-04-03T14:45:16.000Z</time>
      </trkpt>
      <trkpt lat="43.64919" lon="7.08843">
        <ele>111</ele>
        <time>2011-04-03T14:45:21.000Z</time>
      </trkpt>
      <trkpt lat="43.64911" lon="7.08833">
        <ele>112.19999694824</ele>
        <time>2011-04-03T14:45:27.000Z</time>
      </trkpt>
      <trkpt lat="43.64907" lon="7.08817">
        <ele>113.19999694824</ele>
        <time>2011-04-03T14:45:34.000Z</time>
      </trkpt>
      <trkpt lat="43.64903" lon="7.08802">
        <ele>114</ele>
        <time>2011-04-03T14:45:41.000Z</time>
      </trkpt>
      <trkpt lat="43.64897" lon="7.0879">
        <ele>115.59999847412</ele>
        <time>2011-04-03T14:45:47.000Z</time>
      </trkpt>
      <trkpt lat="43.6489" lon="7.08777">
        <ele>117.40000152588</ele>
        <time>2011-04-03T14:45:54.000Z</time>
      </trkpt>
      <trkpt lat="43.64883" lon="7.08769">
        <ele>119.19999694824</ele>
        <time>2011-04-03T14:46:00.000Z</time>
      </trkpt>
      <trkpt lat="43.64877" lon="7.08755">
        <ele>120.80000305176</ele>
        <time>2011-04-03T14:46:09.000Z</time>
      </trkpt>
      <trkpt lat="43.64871" lon="7.08739">
        <ele>122</ele>
        <time>2011-04-03T14:46:18.000Z</time>
      </trkpt>
      <trkpt lat="43.64866" lon="7.08728">
        <ele>122.59999847412</ele>
        <time>2011-04-03T14:46:25.000Z</time>
      </trkpt>
      <trkpt lat="43.64858" lon="7.08712">
        <ele>124</ele>
        <time>2011-04-03T14:46:34.000Z</time>
      </trkpt>
      <trkpt lat="43.64854" lon="7.08705">
        <ele>124.80000305176</ele>
        <time>2011-04-03T14:46:39.000Z</time>
      </trkpt>
      <trkpt lat="43.64846" lon="7.08693">
        <ele>126.19999694824</ele>
        <time>2011-04-03T14:46:46.000Z</time>
      </trkpt>
      <trkpt lat="43.64837" lon="7.08686">
        <ele>128</ele>
        <time>2011-04-03T14:46:52.000Z</time>
      </trkpt>
      <trkpt lat="43.64828" lon="7.08676">
        <ele>129.80000305176</ele>
        <time>2011-04-03T14:46:59.000Z</time>
      </trkpt>
      <trkpt lat="43.6482" lon="7.08658">
        <ele>131.39999389648</ele>
        <time>2011-04-03T14:47:07.000Z</time>
      </trkpt>
      <trkpt lat="43.64814" lon="7.08641">
        <ele>132.80000305176</ele>
        <time>2011-04-03T14:47:14.000Z</time>
      </trkpt>
      <trkpt lat="43.64808" lon="7.0862">
        <ele>134</ele>
        <time>2011-04-03T14:47:22.000Z</time>
      </trkpt>
      <trkpt lat="43.64805" lon="7.086">
        <ele>134.39999389648</ele>
        <time>2011-04-03T14:47:29.000Z</time>
      </trkpt>
      <trkpt lat="43.64797" lon="7.08577">
        <ele>136</ele>
        <time>2011-04-03T14:47:37.000Z</time>
      </trkpt>
      <trkpt lat="43.64784" lon="7.08546">
        <ele>137</ele>
        <time>2011-04-03T14:47:45.000Z</time>
      </trkpt>
      <trkpt lat="43.64766" lon="7.08518">
        <ele>139.39999389648</ele>
        <time>2011-04-03T14:47:53.000Z</time>
      </trkpt>
      <trkpt lat="43.64749" lon="7.08504">
        <ele>142.80000305176</ele>
        <time>2011-04-03T14:47:59.000Z</time>
      </trkpt>
      <trkpt lat="43.64735" lon="7.08481">
        <ele>143.80000305176</ele>
        <time>2011-04-03T14:48:05.000Z</time>
      </trkpt>
      <trkpt lat="43.64726" lon="7.08457">
        <ele>142.60000610352</ele>
        <time>2011-04-03T14:48:10.000Z</time>
      </trkpt>
      <trkpt lat="43.64719" lon="7.08428">
        <ele>139.19999694824</ele>
        <time>2011-04-03T14:48:15.000Z</time>
      </trkpt>
      <trkpt lat="43.64717" lon="7.08416">
        <ele>137.39999389648</ele>
        <time>2011-04-03T14:48:17.000Z</time>
      </trkpt>
      <trkpt lat="43.64716" lon="7.08386">
        <ele>131.80000305176</ele>
        <time>2011-04-03T14:48:23.000Z</time>
      </trkpt>
      <trkpt lat="43.64709" lon="7.08373">
        <ele>131</ele>
        <time>2011-04-03T14:48:26.000Z</time>
      </trkpt>
      <trkpt lat="43.64691" lon="7.08354">
        <ele>130.39999389648</ele>
        <time>2011-04-03T14:48:31.000Z</time>
      </trkpt>
      <trkpt lat="43.64686" lon="7.08346">
        <ele>129.80000305176</ele>
        <time>2011-04-03T14:48:33.000Z</time>
      </trkpt>
      <trkpt lat="43.64662" lon="7.08336">
        <ele>130.80000305176</ele>
        <time>2011-04-03T14:48:39.000Z</time>
      </trkpt>
      <trkpt lat="43.6465" lon="7.08338">
        <ele>131.60000610352</ele>
        <time>2011-04-03T14:48:42.000Z</time>
      </trkpt>
      <trkpt lat="43.64615" lon="7.08341">
        <ele>133.19999694824</ele>
        <time>2011-04-03T14:48:50.000Z</time>
      </trkpt>
      <trkpt lat="43.64582" lon="7.08342">
        <ele>134.60000610352</ele>
        <time>2011-04-03T14:48:58.000Z</time>
      </trkpt>
      <trkpt lat="43.64549" lon="7.08344">
        <ele>137.80000305176</ele>
        <time>2011-04-03T14:49:06.000Z</time>
      </trkpt>
      <trkpt lat="43.6454" lon="7.08343">
        <ele>138.39999389648</ele>
        <time>2011-04-03T14:49:08.000Z</time>
      </trkpt>
      <trkpt lat="43.64531" lon="7.08343">
        <ele>139.19999694824</ele>
        <time>2011-04-03T14:49:10.000Z</time>
      </trkpt>
      <trkpt lat="43.64517" lon="7.08341">
        <ele>140</ele>
        <time>2011-04-03T14:49:13.000Z</time>
      </trkpt>
      <trkpt lat="43.64483" lon="7.0832">
        <ele>140.60000610352</ele>
        <time>2011-04-03T14:49:21.000Z</time>
      </trkpt>
      <trkpt lat="43.64479" lon="7.08317">
        <ele>140.60000610352</ele>
        <time>2011-04-03T14:49:22.000Z</time>
      </trkpt>
      <trkpt lat="43.64454" lon="7.08298">
        <ele>142.19999694824</ele>
        <time>2011-04-03T14:49:28.000Z</time>
      </trkpt>
      <trkpt lat="43.64436" lon="7.08287">
        <ele>144.19999694824</ele>
        <time>2011-04-03T14:49:33.000Z</time>
      </trkpt>
      <trkpt lat="43.64426" lon="7.0828">
        <ele>145.60000610352</ele>
        <time>2011-04-03T14:49:36.000Z</time>
      </trkpt>
      <trkpt lat="43.64417" lon="7.08264">
        <ele>145.39999389648</ele>
        <time>2011-04-03T14:49:41.000Z</time>
      </trkpt>
      <trkpt lat="43.64421" lon="7.08252">
        <ele>143</ele>
        <time>2011-04-03T14:49:44.000Z</time>
      </trkpt>
      <trkpt lat="43.64444" lon="7.08212">
        <ele>139</ele>
        <time>2011-04-03T14:49:53.000Z</time>
      </trkpt>
      <trkpt lat="43.64449" lon="7.08195">
        <ele>138.39999389648</ele>
        <time>2011-04-03T14:49:56.000Z</time>
      </trkpt>
      <trkpt lat="43.64456" lon="7.08143">
        <ele>137.60000610352</ele>
        <time>2011-04-03T14:50:05.000Z</time>
      </trkpt>
      <trkpt lat="43.64457" lon="7.08138">
        <ele>137.60000610352</ele>
        <time>2011-04-03T14:50:06.000Z</time>
      </trkpt>
      <trkpt lat="43.64454" lon="7.08106">
        <ele>138.39999389648</ele>
        <time>2011-04-03T14:50:13.000Z</time>
      </trkpt>
      <trkpt lat="43.64451" lon="7.0808">
        <ele>138.60000610352</ele>
        <time>2011-04-03T14:50:19.000Z</time>
      </trkpt>
      <trkpt lat="43.6444" lon="7.08068">
        <ele>138.80000305176</ele>
        <time>2011-04-03T14:50:23.000Z</time>
      </trkpt>
      <trkpt lat="43.64412" lon="7.08058">
        <ele>140.80000305176</ele>
        <time>2011-04-03T14:50:31.000Z</time>
      </trkpt>
      <trkpt lat="43.64385" lon="7.08054">
        <ele>141</ele>
        <time>2011-04-03T14:50:38.000Z</time>
      </trkpt>
      <trkpt lat="43.64349" lon="7.0806">
        <ele>143</ele>
        <time>2011-04-03T14:50:46.000Z</time>
      </trkpt>
      <trkpt lat="43.64331" lon="7.08061">
        <ele>143.60000610352</ele>
        <time>2011-04-03T14:50:50.000Z</time>
      </trkpt>
      <trkpt lat="43.6431" lon="7.08058">
        <ele>143.60000610352</ele>
        <time>2011-04-03T14:50:55.000Z</time>
      </trkpt>
      <trkpt lat="43.64293" lon="7.08049">
        <ele>143.39999389648</ele>
        <time>2011-04-03T14:50:59.000Z</time>
      </trkpt>
      <trkpt lat="43.64275" lon="7.08046">
        <ele>143.80000305176</ele>
        <time>2011-04-03T14:51:04.000Z</time>
      </trkpt>
      <trkpt lat="43.64262" lon="7.08035">
        <ele>144.19999694824</ele>
        <time>2011-04-03T14:51:08.000Z</time>
      </trkpt>
      <trkpt lat="43.64244" lon="7.08016">
        <ele>144.80000305176</ele>
        <time>2011-04-03T14:51:14.000Z</time>
      </trkpt>
      <trkpt lat="43.64231" lon="7.08005">
        <ele>144.80000305176</ele>
        <time>2011-04-03T14:51:20.000Z</time>
      </trkpt>
      <trkpt lat="43.6423" lon="7.08005">
        <ele>144.80000305176</ele>
        <time>2011-04-03T14:51:22.000Z</time>
      </trkpt>
      <trkpt lat="43.64231" lon="7.08006">
        <ele>144.80000305176</ele>
        <time>2011-04-03T14:53:56.000Z</time>
      </trkpt>
      <trkpt lat="43.64231" lon="7.08006">
        <ele>144.80000305176</ele>
        <time>2011-04-03T14:53:56.000Z</time>
      </trkpt>
      <trkpt lat="43.64231" lon="7.08006">
        <ele>144.80000305176</ele>
        <time>2011-04-03T14:53:57.000Z</time>
      </trkpt>
      <trkpt lat="43.64229" lon="7.08004">
        <ele>144.80000305176</ele>
        <time>2011-04-03T14:53:59.000Z</time>
      </trkpt>
      <trkpt lat="43.64218" lon="7.07999">
        <ele>144.80000305176</ele>
        <time>2011-04-03T14:54:06.000Z</time>
      </trkpt>
      <trkpt lat="43.64216" lon="7.08003">
        <ele>144.80000305176</ele>
        <time>2011-04-03T14:54:11.000Z</time>
      </trkpt>
      <trkpt lat="43.64215" lon="7.0801">
        <ele>144.60000610352</ele>
        <time>2011-04-03T14:54:15.000Z</time>
      </trkpt>
      <trkpt lat="43.6421" lon="7.08029">
        <ele>143.80000305176</ele>
        <time>2011-04-03T14:54:18.000Z</time>
      </trkpt>
      <trkpt lat="43.64207" lon="7.08037">
        <ele>143.39999389648</ele>
        <time>2011-04-03T14:54:19.000Z</time>
      </trkpt>
      <trkpt lat="43.64202" lon="7.08082">
        <ele>141</ele>
        <time>2011-04-03T14:54:23.000Z</time>
      </trkpt>
      <trkpt lat="43.64175" lon="7.08109">
        <ele>139.60000610352</ele>
        <time>2011-04-03T14:54:26.000Z</time>
      </trkpt>
      <trkpt lat="43.64141" lon="7.08135">
        <ele>137.80000305176</ele>
        <time>2011-04-03T14:54:29.000Z</time>
      </trkpt>
      <trkpt lat="43.64095" lon="7.08147">
        <ele>136</ele>
        <time>2011-04-03T14:54:33.000Z</time>
      </trkpt>
      <trkpt lat="43.6405" lon="7.08147">
        <ele>130.80000305176</ele>
        <time>2011-04-03T14:54:38.000Z</time>
      </trkpt>
      <trkpt lat="43.64031" lon="7.08148">
        <ele>128.60000610352</ele>
        <time>2011-04-03T14:54:41.000Z</time>
      </trkpt>
      <trkpt lat="43.6401" lon="7.08159">
        <ele>128.19999694824</ele>
        <time>2011-04-03T14:54:45.000Z</time>
      </trkpt>
      <trkpt lat="43.63996" lon="7.08168">
        <ele>129</ele>
        <time>2011-04-03T14:54:48.000Z</time>
      </trkpt>
      <trkpt lat="43.63973" lon="7.08177">
        <ele>128.60000610352</ele>
        <time>2011-04-03T14:54:53.000Z</time>
      </trkpt>
      <trkpt lat="43.63955" lon="7.08182">
        <ele>127.80000305176</ele>
        <time>2011-04-03T14:54:57.000Z</time>
      </trkpt>
      <trkpt lat="43.63937" lon="7.08204">
        <ele>125.80000305176</ele>
        <time>2011-04-03T14:55:01.000Z</time>
      </trkpt>
      <trkpt lat="43.63927" lon="7.08221">
        <ele>123.80000305176</ele>
        <time>2011-04-03T14:55:03.000Z</time>
      </trkpt>
      <trkpt lat="43.63908" lon="7.0825">
        <ele>118.59999847412</ele>
        <time>2011-04-03T14:55:06.000Z</time>
      </trkpt>
      <trkpt lat="43.63885" lon="7.08277">
        <ele>114.19999694824</ele>
        <time>2011-04-03T14:55:09.000Z</time>
      </trkpt>
      <trkpt lat="43.63859" lon="7.083">
        <ele>109.19999694824</ele>
        <time>2011-04-03T14:55:12.000Z</time>
      </trkpt>
      <trkpt lat="43.63825" lon="7.08336">
        <ele>103.40000152588</ele>
        <time>2011-04-03T14:55:16.000Z</time>
      </trkpt>
      <trkpt lat="43.63803" lon="7.08362">
        <ele>106.59999847412</ele>
        <time>2011-04-03T14:55:19.000Z</time>
      </trkpt>
      <trkpt lat="43.6378" lon="7.08383">
        <ele>107.40000152588</ele>
        <time>2011-04-03T14:55:22.000Z</time>
      </trkpt>
      <trkpt lat="43.63741" lon="7.08384">
        <ele>100.59999847412</ele>
        <time>2011-04-03T14:55:26.000Z</time>
      </trkpt>
      <trkpt lat="43.6373" lon="7.08396">
        <ele>100.80000305176</ele>
        <time>2011-04-03T14:55:28.000Z</time>
      </trkpt>
      <trkpt lat="43.63692" lon="7.08433">
        <ele>99.800003051758</ele>
        <time>2011-04-03T14:55:34.000Z</time>
      </trkpt>
      <trkpt lat="43.63686" lon="7.08437">
        <ele>99.199996948242</ele>
        <time>2011-04-03T14:55:35.000Z</time>
      </trkpt>
      <trkpt lat="43.63645" lon="7.08469">
        <ele>96.800003051758</ele>
        <time>2011-04-03T14:55:41.000Z</time>
      </trkpt>
      <trkpt lat="43.63614" lon="7.08501">
        <ele>94.800003051758</ele>
        <time>2011-04-03T14:55:46.000Z</time>
      </trkpt>
      <trkpt lat="43.63591" lon="7.08544">
        <ele>92.199996948242</ele>
        <time>2011-04-03T14:55:51.000Z</time>
      </trkpt>
      <trkpt lat="43.63578" lon="7.08593">
        <ele>91</ele>
        <time>2011-04-03T14:55:55.000Z</time>
      </trkpt>
      <trkpt lat="43.63577" lon="7.08661">
        <ele>89.599998474121</ele>
        <time>2011-04-03T14:56:00.000Z</time>
      </trkpt>
      <trkpt lat="43.63577" lon="7.08674">
        <ele>89.199996948242</ele>
        <time>2011-04-03T14:56:01.000Z</time>
      </trkpt>
      <trkpt lat="43.63586" lon="7.08718">
        <ele>89</ele>
        <time>2011-04-03T14:56:05.000Z</time>
      </trkpt>
      <trkpt lat="43.63598" lon="7.08795">
        <ele>87</ele>
        <time>2011-04-03T14:56:13.000Z</time>
      </trkpt>
      <trkpt lat="43.63603" lon="7.08813">
        <ele>86.199996948242</ele>
        <time>2011-04-03T14:56:15.000Z</time>
      </trkpt>
      <trkpt lat="43.63594" lon="7.0885">
        <ele>84.800003051758</ele>
        <time>2011-04-03T14:56:19.000Z</time>
      </trkpt>
      <trkpt lat="43.63588" lon="7.08856">
        <ele>84.800003051758</ele>
        <time>2011-04-03T14:56:20.000Z</time>
      </trkpt>
      <trkpt lat="43.63547" lon="7.08893">
        <ele>87.199996948242</ele>
        <time>2011-04-03T14:56:27.000Z</time>
      </trkpt>
      <trkpt lat="43.63512" lon="7.08921">
        <ele>90.400001525879</ele>
        <time>2011-04-03T14:56:34.000Z</time>
      </trkpt>
      <trkpt lat="43.63489" lon="7.08949">
        <ele>91.800003051758</ele>
        <time>2011-04-03T14:56:40.000Z</time>
      </trkpt>
      <trkpt lat="43.6346" lon="7.08986">
        <ele>91.800003051758</ele>
        <time>2011-04-03T14:56:47.000Z</time>
      </trkpt>
      <trkpt lat="43.63456" lon="7.08992">
        <ele>91.599998474121</ele>
        <time>2011-04-03T14:56:48.000Z</time>
      </trkpt>
      <trkpt lat="43.63425" lon="7.09013">
        <ele>91</ele>
        <time>2011-04-03T14:56:54.000Z</time>
      </trkpt>
      <trkpt lat="43.63413" lon="7.09018">
        <ele>91</ele>
        <time>2011-04-03T14:56:56.000Z</time>
      </trkpt>
      <trkpt lat="43.63393" lon="7.09038">
        <ele>91</ele>
        <time>2011-04-03T14:57:00.000Z</time>
      </trkpt>
      <trkpt lat="43.63352" lon="7.09077">
        <ele>90.599998474121</ele>
        <time>2011-04-03T14:57:08.000Z</time>
      </trkpt>
      <trkpt lat="43.63329" lon="7.09111">
        <ele>91.199996948242</ele>
        <time>2011-04-03T14:57:14.000Z</time>
      </trkpt>
      <trkpt lat="43.63317" lon="7.0913">
        <ele>91.800003051758</ele>
        <time>2011-04-03T14:57:18.000Z</time>
      </trkpt>
      <trkpt lat="43.63296" lon="7.09182">
        <ele>94</ele>
        <time>2011-04-03T14:57:28.000Z</time>
      </trkpt>
      <trkpt lat="43.63295" lon="7.09187">
        <ele>94.199996948242</ele>
        <time>2011-04-03T14:57:29.000Z</time>
      </trkpt>
      <trkpt lat="43.63291" lon="7.09197">
        <ele>94.400001525879</ele>
        <time>2011-04-03T14:57:31.000Z</time>
      </trkpt>
      <trkpt lat="43.63268" lon="7.09223">
        <ele>97.599998474121</ele>
        <time>2011-04-03T14:57:39.000Z</time>
      </trkpt>
      <trkpt lat="43.63243" lon="7.09246">
        <ele>100.40000152588</ele>
        <time>2011-04-03T14:57:46.000Z</time>
      </trkpt>
      <trkpt lat="43.63214" lon="7.09276">
        <ele>98.599998474121</ele>
        <time>2011-04-03T14:57:54.000Z</time>
      </trkpt>
      <trkpt lat="43.63202" lon="7.09283">
        <ele>98.599998474121</ele>
        <time>2011-04-03T14:57:57.000Z</time>
      </trkpt>
      <trkpt lat="43.63191" lon="7.09289">
        <ele>98.800003051758</ele>
        <time>2011-04-03T14:58:00.000Z</time>
      </trkpt>
      <trkpt lat="43.63175" lon="7.09291">
        <ele>99.800003051758</ele>
        <time>2011-04-03T14:58:04.000Z</time>
      </trkpt>
      <trkpt lat="43.63156" lon="7.09296">
        <ele>100</ele>
        <time>2011-04-03T14:58:08.000Z</time>
      </trkpt>
      <trkpt lat="43.63142" lon="7.09302">
        <ele>99.400001525879</ele>
        <time>2011-04-03T14:58:11.000Z</time>
      </trkpt>
      <trkpt lat="43.63125" lon="7.09312">
        <ele>98.400001525879</ele>
        <time>2011-04-03T14:58:14.000Z</time>
      </trkpt>
      <trkpt lat="43.63096" lon="7.09327">
        <ele>96.800003051758</ele>
        <time>2011-04-03T14:58:18.000Z</time>
      </trkpt>
      <trkpt lat="43.63037" lon="7.09347">
        <ele>92.599998474121</ele>
        <time>2011-04-03T14:58:25.000Z</time>
      </trkpt>
      <trkpt lat="43.63009" lon="7.09344">
        <ele>92.199996948242</ele>
        <time>2011-04-03T14:58:29.000Z</time>
      </trkpt>
      <trkpt lat="43.6299" lon="7.09352">
        <ele>90.599998474121</ele>
        <time>2011-04-03T14:58:32.000Z</time>
      </trkpt>
      <trkpt lat="43.62985" lon="7.09359">
        <ele>89.400001525879</ele>
        <time>2011-04-03T14:58:33.000Z</time>
      </trkpt>
      <trkpt lat="43.62968" lon="7.09383">
        <ele>85.800003051758</ele>
        <time>2011-04-03T14:58:36.000Z</time>
      </trkpt>
      <trkpt lat="43.62938" lon="7.09412">
        <ele>82.599998474121</ele>
        <time>2011-04-03T14:58:40.000Z</time>
      </trkpt>
      <trkpt lat="43.62912" lon="7.09449">
        <ele>79.599998474121</ele>
        <time>2011-04-03T14:58:44.000Z</time>
      </trkpt>
      <trkpt lat="43.62873" lon="7.09516">
        <ele>72.199996948242</ele>
        <time>2011-04-03T14:58:50.000Z</time>
      </trkpt>
      <trkpt lat="43.62827" lon="7.09597">
        <ele>69.199996948242</ele>
        <time>2011-04-03T14:58:57.000Z</time>
      </trkpt>
      <trkpt lat="43.62803" lon="7.09654">
        <ele>65.199996948242</ele>
        <time>2011-04-03T14:59:02.000Z</time>
      </trkpt>
      <trkpt lat="43.62785" lon="7.09661">
        <ele>64.800003051758</ele>
        <time>2011-04-03T14:59:06.000Z</time>
      </trkpt>
      <trkpt lat="43.6278" lon="7.09635">
        <ele>64.199996948242</ele>
        <time>2011-04-03T14:59:08.000Z</time>
      </trkpt>
      <trkpt lat="43.62781" lon="7.09623">
        <ele>64</ele>
        <time>2011-04-03T14:59:09.000Z</time>
      </trkpt>
      <trkpt lat="43.6278" lon="7.0954">
        <ele>62.200000762939</ele>
        <time>2011-04-03T14:59:16.000Z</time>
      </trkpt>
      <trkpt lat="43.62774" lon="7.09468">
        <ele>58.599998474121</ele>
        <time>2011-04-03T14:59:22.000Z</time>
      </trkpt>
      <trkpt lat="43.62778" lon="7.0942">
        <ele>56.799999237061</ele>
        <time>2011-04-03T14:59:26.000Z</time>
      </trkpt>
      <trkpt lat="43.628" lon="7.09346">
        <ele>61.400001525879</ele>
        <time>2011-04-03T14:59:33.000Z</time>
      </trkpt>
      <trkpt lat="43.62816" lon="7.09307">
        <ele>66.800003051758</ele>
        <time>2011-04-03T14:59:37.000Z</time>
      </trkpt>
      <trkpt lat="43.62805" lon="7.09275">
        <ele>66</ele>
        <time>2011-04-03T14:59:41.000Z</time>
      </trkpt>
      <trkpt lat="43.62787" lon="7.09284">
        <ele>61</ele>
        <time>2011-04-03T14:59:43.000Z</time>
      </trkpt>
      <trkpt lat="43.62778" lon="7.0931">
        <ele>57</ele>
        <time>2011-04-03T14:59:45.000Z</time>
      </trkpt>
      <trkpt lat="43.62772" lon="7.09348">
        <ele>53.799999237061</ele>
        <time>2011-04-03T14:59:48.000Z</time>
      </trkpt>
      <trkpt lat="43.62768" lon="7.0936">
        <ele>53.200000762939</ele>
        <time>2011-04-03T14:59:49.000Z</time>
      </trkpt>
      <trkpt lat="43.62729" lon="7.09436">
        <ele>46.400001525879</ele>
        <time>2011-04-03T14:59:56.000Z</time>
      </trkpt>
      <trkpt lat="43.62708" lon="7.09494">
        <ele>46.400001525879</ele>
        <time>2011-04-03T15:00:01.000Z</time>
      </trkpt>
      <trkpt lat="43.62701" lon="7.09519">
        <ele>46.400001525879</ele>
        <time>2011-04-03T15:00:03.000Z</time>
      </trkpt>
      <trkpt lat="43.62673" lon="7.09554">
        <ele>42.400001525879</ele>
        <time>2011-04-03T15:00:07.000Z</time>
      </trkpt>
      <trkpt lat="43.62645" lon="7.09566">
        <ele>39</ele>
        <time>2011-04-03T15:00:10.000Z</time>
      </trkpt>
      <trkpt lat="43.62616" lon="7.09611">
        <ele>36</ele>
        <time>2011-04-03T15:00:15.000Z</time>
      </trkpt>
      <trkpt lat="43.62614" lon="7.09645">
        <ele>35.200000762939</ele>
        <time>2011-04-03T15:00:18.000Z</time>
      </trkpt>
      <trkpt lat="43.62606" lon="7.09671">
        <ele>33.400001525879</ele>
        <time>2011-04-03T15:00:21.000Z</time>
      </trkpt>
      <trkpt lat="43.62589" lon="7.09676">
        <ele>30</ele>
        <time>2011-04-03T15:00:23.000Z</time>
      </trkpt>
      <trkpt lat="43.62578" lon="7.09677">
        <ele>28.200000762939</ele>
        <time>2011-04-03T15:00:24.000Z</time>
      </trkpt>
      <trkpt lat="43.62503" lon="7.09695">
        <ele>20.60000038147</ele>
        <time>2011-04-03T15:00:31.000Z</time>
      </trkpt>
      <trkpt lat="43.62428" lon="7.0972">
        <ele>17.200000762939</ele>
        <time>2011-04-03T15:00:38.000Z</time>
      </trkpt>
      <trkpt lat="43.62398" lon="7.09753">
        <ele>16.799999237061</ele>
        <time>2011-04-03T15:00:42.000Z</time>
      </trkpt>
      <trkpt lat="43.62361" lon="7.09825">
        <ele>17.200000762939</ele>
        <time>2011-04-03T15:00:49.000Z</time>
      </trkpt>
      <trkpt lat="43.62341" lon="7.0987">
        <ele>16.60000038147</ele>
        <time>2011-04-03T15:00:54.000Z</time>
      </trkpt>
      <trkpt lat="43.62331" lon="7.09897">
        <ele>16.200000762939</ele>
        <time>2011-04-03T15:00:57.000Z</time>
      </trkpt>
      <trkpt lat="43.62308" lon="7.0991">
        <ele>17.60000038147</ele>
        <time>2011-04-03T15:01:01.000Z</time>
      </trkpt>
      <trkpt lat="43.62294" lon="7.0991">
        <ele>18.60000038147</ele>
        <time>2011-04-03T15:01:03.000Z</time>
      </trkpt>
      <trkpt lat="43.62268" lon="7.09921">
        <ele>19.60000038147</ele>
        <time>2011-04-03T15:01:07.000Z</time>
      </trkpt>
      <trkpt lat="43.62236" lon="7.09954">
        <ele>19.60000038147</ele>
        <time>2011-04-03T15:01:13.000Z</time>
      </trkpt>
      <trkpt lat="43.62211" lon="7.09976">
        <ele>18.799999237061</ele>
        <time>2011-04-03T15:01:18.000Z</time>
      </trkpt>
      <trkpt lat="43.622" lon="7.09979">
        <ele>18.799999237061</ele>
        <time>2011-04-03T15:01:23.000Z</time>
      </trkpt>
      <trkpt lat="43.62197" lon="7.09979">
        <ele>19</ele>
        <time>2011-04-03T15:01:24.000Z</time>
      </trkpt>
      <trkpt lat="43.62189" lon="7.10002">
        <ele>16.60000038147</ele>
        <time>2011-04-03T15:01:28.000Z</time>
      </trkpt>
      <trkpt lat="43.62186" lon="7.1003">
        <ele>16</ele>
        <time>2011-04-03T15:01:31.000Z</time>
      </trkpt>
      <trkpt lat="43.62175" lon="7.10042">
        <ele>15.800000190735</ele>
        <time>2011-04-03T15:01:33.000Z</time>
      </trkpt>
      <trkpt lat="43.62128" lon="7.1008">
        <ele>15.800000190735</ele>
        <time>2011-04-03T15:01:41.000Z</time>
      </trkpt>
      <trkpt lat="43.6208" lon="7.10107">
        <ele>16.200000762939</ele>
        <time>2011-04-03T15:01:49.000Z</time>
      </trkpt>
      <trkpt lat="43.62043" lon="7.10122">
        <ele>15.800000190735</ele>
        <time>2011-04-03T15:01:55.000Z</time>
      </trkpt>
      <trkpt lat="43.62014" lon="7.10134">
        <ele>15.39999961853</ele>
        <time>2011-04-03T15:02:00.000Z</time>
      </trkpt>
      <trkpt lat="43.61994" lon="7.10151">
        <ele>15.39999961853</ele>
        <time>2011-04-03T15:02:04.000Z</time>
      </trkpt>
      <trkpt lat="43.6196" lon="7.10184">
        <ele>16.200000762939</ele>
        <time>2011-04-03T15:02:11.000Z</time>
      </trkpt>
      <trkpt lat="43.61916" lon="7.10213">
        <ele>15.60000038147</ele>
        <time>2011-04-03T15:02:19.000Z</time>
      </trkpt>
      <trkpt lat="43.61874" lon="7.10244">
        <ele>13.60000038147</ele>
        <time>2011-04-03T15:02:27.000Z</time>
      </trkpt>
      <trkpt lat="43.61818" lon="7.10289">
        <ele>13</ele>
        <time>2011-04-03T15:02:38.000Z</time>
      </trkpt>
      <trkpt lat="43.61781" lon="7.10317">
        <ele>13.60000038147</ele>
        <time>2011-04-03T15:02:45.000Z</time>
      </trkpt>
      <trkpt lat="43.61749" lon="7.10351">
        <ele>13.60000038147</ele>
        <time>2011-04-03T15:02:52.000Z</time>
      </trkpt>
      <trkpt lat="43.61721" lon="7.10393">
        <ele>12.60000038147</ele>
        <time>2011-04-03T15:02:59.000Z</time>
      </trkpt>
      <trkpt lat="43.61711" lon="7.10413">
        <ele>12</ele>
        <time>2011-04-03T15:03:02.000Z</time>
      </trkpt>
      <trkpt lat="43.61691" lon="7.1048">
        <ele>12.800000190735</ele>
        <time>2011-04-03T15:03:11.000Z</time>
      </trkpt>
      <trkpt lat="43.6167" lon="7.10558">
        <ele>11.60000038147</ele>
        <time>2011-04-03T15:03:21.000Z</time>
      </trkpt>
      <trkpt lat="43.61641" lon="7.10622">
        <ele>10</ele>
        <time>2011-04-03T15:03:30.000Z</time>
      </trkpt>
      <trkpt lat="43.61608" lon="7.10671">
        <ele>10.39999961853</ele>
        <time>2011-04-03T15:03:38.000Z</time>
      </trkpt>
      <trkpt lat="43.61578" lon="7.1071">
        <ele>12.199999809265</ele>
        <time>2011-04-03T15:03:45.000Z</time>
      </trkpt>
      <trkpt lat="43.6155" lon="7.10758">
        <ele>16.39999961853</ele>
        <time>2011-04-03T15:03:53.000Z</time>
      </trkpt>
      <trkpt lat="43.61526" lon="7.10796">
        <ele>16.39999961853</ele>
        <time>2011-04-03T15:04:00.000Z</time>
      </trkpt>
      <trkpt lat="43.6151" lon="7.10825">
        <ele>14.60000038147</ele>
        <time>2011-04-03T15:04:05.000Z</time>
      </trkpt>
      <trkpt lat="43.61487" lon="7.10848">
        <ele>13.800000190735</ele>
        <time>2011-04-03T15:04:10.000Z</time>
      </trkpt>
      <trkpt lat="43.61444" lon="7.10877">
        <ele>13.60000038147</ele>
        <time>2011-04-03T15:04:18.000Z</time>
      </trkpt>
      <trkpt lat="43.61394" lon="7.10881">
        <ele>14</ele>
        <time>2011-04-03T15:04:26.000Z</time>
      </trkpt>
      <trkpt lat="43.61341" lon="7.10883">
        <ele>14</ele>
        <time>2011-04-03T15:04:35.000Z</time>
      </trkpt>
      <trkpt lat="43.61292" lon="7.10882">
        <ele>12.39999961853</ele>
        <time>2011-04-03T15:04:43.000Z</time>
      </trkpt>
      <trkpt lat="43.61256" lon="7.10863">
        <ele>11.39999961853</ele>
        <time>2011-04-03T15:04:49.000Z</time>
      </trkpt>
      <trkpt lat="43.6122" lon="7.10851">
        <ele>12.199999809265</ele>
        <time>2011-04-03T15:04:55.000Z</time>
      </trkpt>
      <trkpt lat="43.61181" lon="7.10859">
        <ele>12.60000038147</ele>
        <time>2011-04-03T15:05:01.000Z</time>
      </trkpt>
      <trkpt lat="43.61172" lon="7.10866">
        <ele>12.60000038147</ele>
        <time>2011-04-03T15:05:03.000Z</time>
      </trkpt>
      <trkpt lat="43.61148" lon="7.10874">
        <ele>14.800000190735</ele>
        <time>2011-04-03T15:05:06.000Z</time>
      </trkpt>
      <trkpt lat="43.6113" lon="7.10904">
        <ele>15.800000190735</ele>
        <time>2011-04-03T15:05:10.000Z</time>
      </trkpt>
      <trkpt lat="43.61105" lon="7.10955">
        <ele>14.39999961853</ele>
        <time>2011-04-03T15:05:17.000Z</time>
      </trkpt>
      <trkpt lat="43.61102" lon="7.10961">
        <ele>14</ele>
        <time>2011-04-03T15:05:18.000Z</time>
      </trkpt>
      <trkpt lat="43.61078" lon="7.10986">
        <ele>11.800000190735</ele>
        <time>2011-04-03T15:05:23.000Z</time>
      </trkpt>
      <trkpt lat="43.6105" lon="7.10997">
        <ele>10.199999809265</ele>
        <time>2011-04-03T15:05:28.000Z</time>
      </trkpt>
      <trkpt lat="43.60992" lon="7.11005">
        <ele>10.199999809265</ele>
        <time>2011-04-03T15:05:38.000Z</time>
      </trkpt>
      <trkpt lat="43.60944" lon="7.11015">
        <ele>12.199999809265</ele>
        <time>2011-04-03T15:05:46.000Z</time>
      </trkpt>
      <trkpt lat="43.60909" lon="7.11035">
        <ele>13.199999809265</ele>
        <time>2011-04-03T15:05:52.000Z</time>
      </trkpt>
      <trkpt lat="43.60874" lon="7.11064">
        <ele>12.800000190735</ele>
        <time>2011-04-03T15:05:59.000Z</time>
      </trkpt>
      <trkpt lat="43.6083" lon="7.11098">
        <ele>12.60000038147</ele>
        <time>2011-04-03T15:06:08.000Z</time>
      </trkpt>
      <trkpt lat="43.60814" lon="7.11107">
        <ele>12.800000190735</ele>
        <time>2011-04-03T15:06:11.000Z</time>
      </trkpt>
      <trkpt lat="43.60766" lon="7.11125">
        <ele>13.60000038147</ele>
        <time>2011-04-03T15:06:20.000Z</time>
      </trkpt>
      <trkpt lat="43.60731" lon="7.11133">
        <ele>14.800000190735</ele>
        <time>2011-04-03T15:06:27.000Z</time>
      </trkpt>
      <trkpt lat="43.60722" lon="7.11136">
        <ele>15.199999809265</ele>
        <time>2011-04-03T15:06:29.000Z</time>
      </trkpt>
      <trkpt lat="43.60683" lon="7.11158">
        <ele>18.200000762939</ele>
        <time>2011-04-03T15:06:38.000Z</time>
      </trkpt>
      <trkpt lat="43.60649" lon="7.11176">
        <ele>21.799999237061</ele>
        <time>2011-04-03T15:06:47.000Z</time>
      </trkpt>
      <trkpt lat="43.60622" lon="7.11192">
        <ele>24.799999237061</ele>
        <time>2011-04-03T15:06:55.000Z</time>
      </trkpt>
      <trkpt lat="43.60598" lon="7.11205">
        <ele>26.799999237061</ele>
        <time>2011-04-03T15:07:03.000Z</time>
      </trkpt>
      <trkpt lat="43.60578" lon="7.11216">
        <ele>28.200000762939</ele>
        <time>2011-04-03T15:07:10.000Z</time>
      </trkpt>
      <trkpt lat="43.60554" lon="7.11227">
        <ele>28.60000038147</ele>
        <time>2011-04-03T15:07:18.000Z</time>
      </trkpt>
      <trkpt lat="43.60528" lon="7.11228">
        <ele>28.799999237061</ele>
        <time>2011-04-03T15:07:26.000Z</time>
      </trkpt>
      <trkpt lat="43.60499" lon="7.11228">
        <ele>29.200000762939</ele>
        <time>2011-04-03T15:07:34.000Z</time>
      </trkpt>
      <trkpt lat="43.60464" lon="7.1123">
        <ele>28.799999237061</ele>
        <time>2011-04-03T15:07:43.000Z</time>
      </trkpt>
      <trkpt lat="43.60431" lon="7.11232">
        <ele>28.39999961853</ele>
        <time>2011-04-03T15:07:51.000Z</time>
      </trkpt>
      <trkpt lat="43.60411" lon="7.11234">
        <ele>28.39999961853</ele>
        <time>2011-04-03T15:07:55.000Z</time>
      </trkpt>
      <trkpt lat="43.60367" lon="7.11246">
        <ele>28.60000038147</ele>
        <time>2011-04-03T15:08:03.000Z</time>
      </trkpt>
      <trkpt lat="43.60339" lon="7.11246">
        <ele>28.799999237061</ele>
        <time>2011-04-03T15:08:08.000Z</time>
      </trkpt>
      <trkpt lat="43.60319" lon="7.11234">
        <ele>29.200000762939</ele>
        <time>2011-04-03T15:08:12.000Z</time>
      </trkpt>
      <trkpt lat="43.60299" lon="7.11229">
        <ele>29.39999961853</ele>
        <time>2011-04-03T15:08:16.000Z</time>
      </trkpt>
      <trkpt lat="43.60285" lon="7.11242">
        <ele>29.60000038147</ele>
        <time>2011-04-03T15:08:19.000Z</time>
      </trkpt>
      <trkpt lat="43.60265" lon="7.11257">
        <ele>29.799999237061</ele>
        <time>2011-04-03T15:08:23.000Z</time>
      </trkpt>
      <trkpt lat="43.60214" lon="7.11264">
        <ele>29</ele>
        <time>2011-04-03T15:08:32.000Z</time>
      </trkpt>
      <trkpt lat="43.60174" lon="7.11267">
        <ele>28</ele>
        <time>2011-04-03T15:08:39.000Z</time>
      </trkpt>
      <trkpt lat="43.6012" lon="7.11273">
        <ele>27.799999237061</ele>
        <time>2011-04-03T15:08:48.000Z</time>
      </trkpt>
      <trkpt lat="43.60072" lon="7.11282">
        <ele>28.200000762939</ele>
        <time>2011-04-03T15:08:56.000Z</time>
      </trkpt>
      <trkpt lat="43.60024" lon="7.11291">
        <ele>29</ele>
        <time>2011-04-03T15:09:04.000Z</time>
      </trkpt>
      <trkpt lat="43.5999" lon="7.11302">
        <ele>29.39999961853</ele>
        <time>2011-04-03T15:09:10.000Z</time>
      </trkpt>
      <trkpt lat="43.59984" lon="7.11302">
        <ele>29.39999961853</ele>
        <time>2011-04-03T15:09:11.000Z</time>
      </trkpt>
      <trkpt lat="43.59919" lon="7.11305">
        <ele>29.60000038147</ele>
        <time>2011-04-03T15:09:23.000Z</time>
      </trkpt>
      <trkpt lat="43.59914" lon="7.11304">
        <ele>29.60000038147</ele>
        <time>2011-04-03T15:09:24.000Z</time>
      </trkpt>
      <trkpt lat="43.59867" lon="7.11313">
        <ele>29.799999237061</ele>
        <time>2011-04-03T15:09:33.000Z</time>
      </trkpt>
      <trkpt lat="43.59832" lon="7.11328">
        <ele>29.799999237061</ele>
        <time>2011-04-03T15:09:40.000Z</time>
      </trkpt>
      <trkpt lat="43.59785" lon="7.11348">
        <ele>29.60000038147</ele>
        <time>2011-04-03T15:09:49.000Z</time>
      </trkpt>
      <trkpt lat="43.59752" lon="7.11358">
        <ele>29.60000038147</ele>
        <time>2011-04-03T15:09:55.000Z</time>
      </trkpt>
      <trkpt lat="43.59702" lon="7.11374">
        <ele>29</ele>
        <time>2011-04-03T15:10:04.000Z</time>
      </trkpt>
      <trkpt lat="43.5968" lon="7.11367">
        <ele>28.60000038147</ele>
        <time>2011-04-03T15:10:08.000Z</time>
      </trkpt>
      <trkpt lat="43.59674" lon="7.11366">
        <ele>28.39999961853</ele>
        <time>2011-04-03T15:10:09.000Z</time>
      </trkpt>
      <trkpt lat="43.59647" lon="7.11352">
        <ele>27.60000038147</ele>
        <time>2011-04-03T15:10:14.000Z</time>
      </trkpt>
      <trkpt lat="43.59615" lon="7.11311">
        <ele>27</ele>
        <time>2011-04-03T15:10:21.000Z</time>
      </trkpt>
      <trkpt lat="43.59603" lon="7.11272">
        <ele>27.200000762939</ele>
        <time>2011-04-03T15:10:26.000Z</time>
      </trkpt>
      <trkpt lat="43.59603" lon="7.11241">
        <ele>27.799999237061</ele>
        <time>2011-04-03T15:10:30.000Z</time>
      </trkpt>
      <trkpt lat="43.59614" lon="7.11192">
        <ele>29.60000038147</ele>
        <time>2011-04-03T15:10:37.000Z</time>
      </trkpt>
      <trkpt lat="43.59634" lon="7.11136">
        <ele>30.799999237061</ele>
        <time>2011-04-03T15:10:46.000Z</time>
      </trkpt>
      <trkpt lat="43.5965" lon="7.11077">
        <ele>30.799999237061</ele>
        <time>2011-04-03T15:10:55.000Z</time>
      </trkpt>
      <trkpt lat="43.59672" lon="7.11017">
        <ele>33.200000762939</ele>
        <time>2011-04-03T15:11:05.000Z</time>
      </trkpt>
      <trkpt lat="43.59678" lon="7.11">
        <ele>34</ele>
        <time>2011-04-03T15:11:08.000Z</time>
      </trkpt>
      <trkpt lat="43.59685" lon="7.10965">
        <ele>35.799999237061</ele>
        <time>2011-04-03T15:11:15.000Z</time>
      </trkpt>
      <trkpt lat="43.59685" lon="7.10926">
        <ele>37.400001525879</ele>
        <time>2011-04-03T15:11:23.000Z</time>
      </trkpt>
      <trkpt lat="43.59682" lon="7.1088">
        <ele>40.400001525879</ele>
        <time>2011-04-03T15:11:33.000Z</time>
      </trkpt>
      <trkpt lat="43.59678" lon="7.10834">
        <ele>43.599998474121</ele>
        <time>2011-04-03T15:11:43.000Z</time>
      </trkpt>
      <trkpt lat="43.59674" lon="7.10797">
        <ele>46.799999237061</ele>
        <time>2011-04-03T15:11:52.000Z</time>
      </trkpt>
      <trkpt lat="43.59672" lon="7.10762">
        <ele>49.799999237061</ele>
        <time>2011-04-03T15:12:02.000Z</time>
      </trkpt>
      <trkpt lat="43.5967" lon="7.1073">
        <ele>52.400001525879</ele>
        <time>2011-04-03T15:12:11.000Z</time>
      </trkpt>
      <trkpt lat="43.59663" lon="7.10699">
        <ele>54.599998474121</ele>
        <time>2011-04-03T15:12:21.000Z</time>
      </trkpt>
      <trkpt lat="43.59655" lon="7.10668">
        <ele>56.599998474121</ele>
        <time>2011-04-03T15:12:31.000Z</time>
      </trkpt>
      <trkpt lat="43.59647" lon="7.1064">
        <ele>56.799999237061</ele>
        <time>2011-04-03T15:12:40.000Z</time>
      </trkpt>
      <trkpt lat="43.59641" lon="7.10619">
        <ele>56.599998474121</ele>
        <time>2011-04-03T15:12:47.000Z</time>
      </trkpt>
      <trkpt lat="43.5964" lon="7.10616">
        <ele>56.599998474121</ele>
        <time>2011-04-03T15:12:48.000Z</time>
      </trkpt>
      <trkpt lat="43.59635" lon="7.10606">
        <ele>56.400001525879</ele>
        <time>2011-04-03T15:12:53.000Z</time>
      </trkpt>
      <trkpt lat="43.5963" lon="7.10576">
        <ele>55.599998474121</ele>
        <time>2011-04-03T15:12:58.000Z</time>
      </trkpt>
      <trkpt lat="43.59643" lon="7.1056">
        <ele>55.200000762939</ele>
        <time>2011-04-03T15:13:01.000Z</time>
      </trkpt>
      <trkpt lat="43.59649" lon="7.10548">
        <ele>54.799999237061</ele>
        <time>2011-04-03T15:13:03.000Z</time>
      </trkpt>
      <trkpt lat="43.59677" lon="7.10519">
        <ele>54.599998474121</ele>
        <time>2011-04-03T15:13:09.000Z</time>
      </trkpt>
      <trkpt lat="43.59713" lon="7.10483">
        <ele>55</ele>
        <time>2011-04-03T15:13:17.000Z</time>
      </trkpt>
      <trkpt lat="43.59729" lon="7.10467">
        <ele>55.400001525879</ele>
        <time>2011-04-03T15:13:21.000Z</time>
      </trkpt>
      <trkpt lat="43.59745" lon="7.1045">
        <ele>55.799999237061</ele>
        <time>2011-04-03T15:13:25.000Z</time>
      </trkpt>
      <trkpt lat="43.5977" lon="7.10402">
        <ele>56.400001525879</ele>
        <time>2011-04-03T15:13:33.000Z</time>
      </trkpt>
      <trkpt lat="43.59796" lon="7.1034">
        <ele>57.400001525879</ele>
        <time>2011-04-03T15:13:42.000Z</time>
      </trkpt>
      <trkpt lat="43.5981" lon="7.10305">
        <ele>58</ele>
        <time>2011-04-03T15:13:48.000Z</time>
      </trkpt>
      <trkpt lat="43.59808" lon="7.103">
        <ele>57.799999237061</ele>
        <time>2011-04-03T15:13:53.000Z</time>
      </trkpt>
      <trkpt lat="43.59809" lon="7.10302">
        <ele>57.799999237061</ele>
        <time>2011-04-03T15:14:01.000Z</time>
      </trkpt>
      <trkpt lat="43.59813" lon="7.103">
        <ele>58</ele>
        <time>2011-04-03T15:14:06.000Z</time>
      </trkpt>
      <trkpt lat="43.59814" lon="7.10297">
        <ele>58</ele>
        <time>2011-04-03T15:14:07.000Z</time>
      </trkpt>
      <trkpt lat="43.59826" lon="7.10274">
        <ele>57.799999237061</ele>
        <time>2011-04-03T15:14:13.000Z</time>
      </trkpt>
      <trkpt lat="43.59844" lon="7.1024">
        <ele>58.400001525879</ele>
        <time>2011-04-03T15:14:20.000Z</time>
      </trkpt>
      <trkpt lat="43.59861" lon="7.10205">
        <ele>60.400001525879</ele>
        <time>2011-04-03T15:14:27.000Z</time>
      </trkpt>
      <trkpt lat="43.59882" lon="7.10164">
        <ele>60.799999237061</ele>
        <time>2011-04-03T15:14:35.000Z</time>
      </trkpt>
      <trkpt lat="43.599" lon="7.10125">
        <ele>61.799999237061</ele>
        <time>2011-04-03T15:14:42.000Z</time>
      </trkpt>
      <trkpt lat="43.59923" lon="7.10078">
        <ele>61</ele>
        <time>2011-04-03T15:14:51.000Z</time>
      </trkpt>
      <trkpt lat="43.59923" lon="7.10062">
        <ele>61.799999237061</ele>
        <time>2011-04-03T15:14:55.000Z</time>
      </trkpt>
      <trkpt lat="43.59904" lon="7.10033">
        <ele>64.800003051758</ele>
        <time>2011-04-03T15:15:02.000Z</time>
      </trkpt>
      <trkpt lat="43.59902" lon="7.1003">
        <ele>65.400001525879</ele>
        <time>2011-04-03T15:15:06.000Z</time>
      </trkpt>
      <trkpt lat="43.599" lon="7.10028">
        <ele>65.800003051758</ele>
        <time>2011-04-03T15:15:12.000Z</time>
      </trkpt>
      <trkpt lat="43.59899" lon="7.10027">
        <ele>66</ele>
        <time>2011-04-03T15:15:14.000Z</time>
      </trkpt>
      <trkpt lat="43.5989" lon="7.10022">
        <ele>67.599998474121</ele>
        <time>2011-04-03T15:15:22.000Z</time>
      </trkpt>
      <trkpt lat="43.59884" lon="7.10017">
        <ele>69</ele>
        <time>2011-04-03T15:15:30.000Z</time>
      </trkpt>
      <trkpt lat="43.59881" lon="7.10011">
        <ele>69.800003051758</ele>
        <time>2011-04-03T15:15:38.000Z</time>
      </trkpt>
      <trkpt lat="43.59879" lon="7.1001">
        <ele>70.199996948242</ele>
        <time>2011-04-03T15:15:43.000Z</time>
      </trkpt>
      <trkpt lat="43.59875" lon="7.10012">
        <ele>70.599998474121</ele>
        <time>2011-04-03T15:15:49.000Z</time>
      </trkpt>
      <trkpt lat="43.5987" lon="7.10013">
        <ele>71.400001525879</ele>
        <time>2011-04-03T15:15:56.000Z</time>
      </trkpt>
      <trkpt lat="43.59862" lon="7.10011">
        <ele>72.599998474121</ele>
        <time>2011-04-03T15:16:04.000Z</time>
      </trkpt>
      <trkpt lat="43.59857" lon="7.10005">
        <ele>73.800003051758</ele>
        <time>2011-04-03T15:16:12.000Z</time>
      </trkpt>
      <trkpt lat="43.59855" lon="7.10003">
        <ele>74.400001525879</ele>
        <time>2011-04-03T15:16:16.000Z</time>
      </trkpt>
      <trkpt lat="43.59849" lon="7.1">
        <ele>75.400001525879</ele>
        <time>2011-04-03T15:16:23.000Z</time>
      </trkpt>
      <trkpt lat="43.59849" lon="7.09993">
        <ele>75.599998474121</ele>
        <time>2011-04-03T15:16:31.000Z</time>
      </trkpt>
      <trkpt lat="43.59844" lon="7.0999">
        <ele>76.599998474121</ele>
        <time>2011-04-03T15:16:36.000Z</time>
      </trkpt>
      <trkpt lat="43.59841" lon="7.09987">
        <ele>77.199996948242</ele>
        <time>2011-04-03T15:16:41.000Z</time>
      </trkpt>
      <trkpt lat="43.59836" lon="7.09981">
        <ele>78</ele>
        <time>2011-04-03T15:16:47.000Z</time>
      </trkpt>
      <trkpt lat="43.59832" lon="7.09977">
        <ele>78.400001525879</ele>
        <time>2011-04-03T15:16:53.000Z</time>
      </trkpt>
      <trkpt lat="43.59827" lon="7.09973">
        <ele>78.599998474121</ele>
        <time>2011-04-03T15:16:59.000Z</time>
      </trkpt>
      <trkpt lat="43.59815" lon="7.09968">
        <ele>78.599998474121</ele>
        <time>2011-04-03T15:17:04.000Z</time>
      </trkpt>
      <trkpt lat="43.59813" lon="7.09967">
        <ele>78.599998474121</ele>
        <time>2011-04-03T15:17:05.000Z</time>
      </trkpt>
      <trkpt lat="43.59812" lon="7.09952">
        <ele>79</ele>
        <time>2011-04-03T15:17:09.000Z</time>
      </trkpt>
      <trkpt lat="43.59817" lon="7.0994">
        <ele>79.199996948242</ele>
        <time>2011-04-03T15:17:12.000Z</time>
      </trkpt>
      <trkpt lat="43.59826" lon="7.0991">
        <ele>80.199996948242</ele>
        <time>2011-04-03T15:17:19.000Z</time>
      </trkpt>
      <trkpt lat="43.59829" lon="7.09887">
        <ele>81.599998474121</ele>
        <time>2011-04-03T15:17:24.000Z</time>
      </trkpt>
      <trkpt lat="43.59833" lon="7.09844">
        <ele>84.199996948242</ele>
        <time>2011-04-03T15:17:33.000Z</time>
      </trkpt>
      <trkpt lat="43.59838" lon="7.09809">
        <ele>84.800003051758</ele>
        <time>2011-04-03T15:17:40.000Z</time>
      </trkpt>
      <trkpt lat="43.59841" lon="7.09786">
        <ele>85</ele>
        <time>2011-04-03T15:17:45.000Z</time>
      </trkpt>
      <trkpt lat="43.5983" lon="7.09776">
        <ele>85.599998474121</ele>
        <time>2011-04-03T15:17:49.000Z</time>
      </trkpt>
      <trkpt lat="43.59827" lon="7.09762">
        <ele>85.800003051758</ele>
        <time>2011-04-03T15:17:52.000Z</time>
      </trkpt>
      <trkpt lat="43.59831" lon="7.09737">
        <ele>85.800003051758</ele>
        <time>2011-04-03T15:17:56.000Z</time>
      </trkpt>
      <trkpt lat="43.5984" lon="7.09709">
        <ele>85</ele>
        <time>2011-04-03T15:18:00.000Z</time>
      </trkpt>
      <trkpt lat="43.59857" lon="7.09673">
        <ele>84</ele>
        <time>2011-04-03T15:18:06.000Z</time>
      </trkpt>
    </trkseg>
  </trk>
</gpx>